[[{"header":{"parameterUnit":"m.s-1","parameterCategory":1,"la1":31.0,"la2":29.5877,"lo1":-88.7671,"lo2":-86.6584,"dy":0.0162,"dx":0.0185,"nx":115,"ny":88,"refTime":"2023-04-26T12:00:00:Z","depth":0,"parameterNumber":2,"parameterNumberName":"U-component_of_WINDS"},"data":[0.0,0.0,0.0,0.0,0.0,0.0,0.0,0.0,0.0,0.0,0.0,0.0,0.0,0.0,0.0,0.0,0.0,0.0,0.0,0.0,0.0,0.0,0.0,0.0,0.0,0.0,0.0,0.0,0.0,0.0,0.0,0.0,0.0,0.0,0.0,0.0,0.0,0.0,0.0,0.0,0.0,0.0,0.0,0.0,0.0,0.0,0.0,0.0,0.0,0.0,0.0,0.0,0.0,0.0,0.0,0.0,0.0,0.0,0.0,0.0,0.0,0.0,0.0,0.0,0.0,0.0,0.0,0.0,0.0,0.0,0.0,0.0,0.0,0.0,0.0,0.0,0.0,0.0,0.0,0.0,0.0,0.0,0.0,0.0,0.0,0.0,0.0,0.0,0.0,0.0,0.0,0.0,0.0,0.0,0.0,0.0,0.0,0.0,0.0,0.0,0.0,0.0,0.0,0.0,0.0,0.0,0.0,0.0,0.0,0.0,0.0,0.0,0.0,0.0,0.0,0.0,0.0,0.0,0.0,0.0,0.0,0.0,0.0,0.0,0.0,0.0,0.0,0.0,0.0,0.0,0.0,0.0,0.0,0.0,0.0,0.0,0.0,0.0,0.0,0.0,0.0,0.0,0.0,0.0,0.0,0.0,0.0,0.0,0.0,0.0,0.0,0.0,0.0,0.0,0.0,0.0,0.0,0.0,0.0,0.0,0.0,0.0,0.0,0.0,0.0,0.0,0.0,0.0,0.0,0.0,0.0,0.0,0.0,0.0,0.0,0.0,0.0,0.0,0.0,0.0,0.0,0.0,0.0,0.0,0.0,0.0,0.0,0.0,0.0,0.0,0.0,0.0,0.0,0.0,0.0,0.0,0.0,0.0,0.0,0.0,0.0,0.0,0.0,0.0,0.0,0.0,0.0,0.0,0.0,0.0,0.0,0.0,0.0,0.0,0.0,0.0,0.0,0.0,0.0,0.0,0.0,0.0,0.0,0.0,0.0,0.0,0.0,0.0,0.0,0.0,0.0,0.0,0.0,0.0,0.0,0.0,0.0,0.0,0.0,0.0,0.0,0.0,0.0,0.0,0.0,0.0,0.0,0.0,0.0,0.0,0.0,0.0,0.0,0.0,0.0,0.0,0.0,0.0,0.0,0.0,0.0,0.0,0.0,0.0,0.0,0.0,0.0,0.0,0.0,0.0,0.0,0.0,0.0,0.0,0.0,0.0,0.0,0.0,0.0,0.0,0.0,0.0,0.0,0.0,0.0,0.0,0.0,0.0,0.0,0.0,0.0,0.0,0.0,0.0,0.0,0.0,0.0,0.0,0.0,0.0,0.0,0.0,0.0,0.0,0.0,0.0,0.0,0.0,0.0,0.0,0.0,0.0,0.0,0.0,0.0,0.0,0.0,0.0,0.0,0.0,0.0,0.0,0.0,0.0,0.0,0.0,0.0,0.0,0.0,0.0,0.0,0.0,0.0,0.0,0.0,0.0,0.0,0.0,0.0,0.0,0.0,0.0,0.0,0.0,0.0,0.0,0.0,0.0,0.0,0.0,0.0,0.0,0.0,0.0,0.0,0.0,0.0,0.0,0.0,0.0,0.0,0.0,0.0,0.0,0.0,0.0,0.0,0.0,0.0,0.0,0.0,0.0,0.0,0.0,0.0,0.0,0.0,0.0,0.0,0.0,0.0,0.0,0.0,0.0,0.0,0.0,0.0,0.0,0.0,0.0,0.0,0.0,0.0,0.0,0.0,0.0,0.0,0.0,0.0,0.0,0.0,0.0,0.0,0.0,0.0,0.0,0.0,0.0,0.0,0.0,0.0,0.0,0.0,0.0,0.0,0.0,0.0,0.0,0.0,0.0,0.0,0.0,0.0,0.0,0.0,0.0,0.0,0.0,0.0,0.0,0.0,0.0,0.0,0.0,0.0,0.0,0.0,0.0,0.0,0.0,0.0,0.0,0.0,0.0,0.0,0.0,0.0,0.0,0.0,0.0,0.0,0.0,0.0,0.0,0.0,0.0,0.0,0.0,0.0,0.0,0.0,0.0,0.0,0.0,0.0,0.0,0.0,0.0,0.0,0.0,0.0,0.0,0.0,0.0,0.0,0.0,0.0,0.0,0.0,0.0,0.0,0.0,0.0,0.0,0.0,0.0,0.0,0.0,0.0,0.0,0.0,0.0,0.0,0.0,0.0,0.0,0.0,0.0,0.0,0.0,0.0,0.0,0.0,0.0,0.0,0.0,0.0,0.0,0.0,0.0,0.0,0.0,0.0,0.0,0.0,0.0,0.0,0.0,0.0,0.0,0.0,0.0,0.0,0.0,0.0,0.0,0.0,0.0,0.0,0.0,0.0,0.0,0.0,0.0,0.0,0.0,0.0,0.0,0.0,0.0,0.0,0.0,0.0,0.0,0.0,0.0,0.0,0.0,0.0,0.0,0.0,0.0,0.0,0.0,0.0,0.0,0.0,0.0,0.0,0.0,0.0,0.0,0.0,0.0,0.0,0.0,0.0,0.0,0.0,0.0,0.0,0.0,0.0,0.0,0.0,0.0,0.0,0.0,0.0,0.0,0.0,0.0,0.0,0.0,0.0,0.0,0.0,0.0,0.0,0.0,0.0,0.0,0.0,0.0,0.0,0.0,0.0,0.0,0.0,0.0,0.0,0.0,0.0,0.0,0.0,0.0,0.0,0.0,0.0,0.0,0.0,0.0,0.0,0.0,0.0,0.0,0.0,0.0,0.0,0.0,0.0,0.0,0.0,0.0,0.0,0.0,0.0,0.0,0.0,0.0,0.0,0.0,0.0,0.0,0.0,0.0,0.0,0.0,0.0,0.0,0.0,0.0,0.0,0.0,0.0,0.0,0.0,0.0,0.0,0.0,0.0,0.0,0.0,0.0,0.0,0.0,0.0,0.0,0.0,0.0,0.0,0.0,0.0,0.0,0.0,0.0,0.0,0.0,0.0,0.0,0.0,0.0,0.0,0.0,0.0,0.0,0.0,0.0,0.0,0.0,0.0,0.0,0.0,0.0,0.0,0.0,0.0,0.0,0.0,0.0,0.0,0.0,0.0,0.0,0.0,0.0,0.0,0.0,0.0,0.0,0.0,0.0,0.0,0.0,0.0,0.0,0.0,0.0,0.0,0.0,0.0,0.0,0.0,0.0,0.0,0.0,0.0,0.0,0.0,0.0,0.0,0.0,0.0,0.0,0.0,0.0,0.0,0.0,0.0,0.0,0.0,0.0,0.0,0.0,0.0,0.0,0.0,0.0,0.0,0.0,0.0,0.0,0.0,0.0,0.0,0.0,0.0,0.0,0.0,0.0,0.0,0.0,0.0,0.0,0.0,0.0,0.0,0.0,0.0,0.0,0.0,0.0,0.0,0.0,0.0,0.0,0.0,0.0,0.0,0.0,0.0,0.0,0.0,0.0,0.0,0.0,0.0,0.0,0.0,0.0,0.0,0.0,0.0,0.0,0.0,0.0,0.0,0.0,0.0,0.0,0.0,0.0,0.0,0.0,0.0,0.0,0.0,0.0,0.0,0.0,0.0,0.0,0.0,0.0,0.0,0.0,0.0,0.0,0.0,0.0,0.0,0.0,0.0,0.0,0.0,0.0,0.0,0.0,0.0,0.0,0.0,0.0,0.0,0.0,0.0,0.0,0.0,0.0,0.0,0.0,0.0,0.0,0.0,0.0,0.0,0.0,0.0,0.0,0.0,0.0,0.0,0.0,0.0,0.0,0.0,0.0,0.0,0.0,0.0,0.0,0.0,0.0,0.0,0.0,0.0,0.0,0.0,0.0,0.0,0.0,0.0,0.0,0.0,0.0,0.0,0.0,0.0,0.0,0.0,0.0,0.0,0.0,0.0,0.0,0.0,0.0,0.0,0.0,0.0,0.0,0.0,0.0,0.0,0.0,0.0,0.0,0.0,0.0,0.0,0.0,0.0,0.0,0.0,0.0,0.0,0.0,0.0,0.0,0.0,0.0,0.0,0.0,0.0,0.0,0.0,0.0,0.0,0.0,0.0,0.0,0.0,0.0,0.0,0.0,0.0,0.0,0.0,0.0,0.0,0.0,0.0,0.0,0.0,0.0,0.0,0.0,0.0,0.0,0.0,0.0,0.0,0.0,0.0,0.0,0.0,0.0,0.0,0.0,0.0,0.0,0.0,0.0,0.0,0.0,0.0,0.0,0.0,0.0,0.0,0.0,0.0,0.0,0.0,0.0,0.0,0.0,0.0,0.0,0.0,0.0,0.0,0.0,-4.9427,0.0,0.0,0.0,-4.7279,0.0,0.0,0.0,0.0,0.0,0.0,0.0,0.0,0.0,0.0,0.0,0.0,0.0,0.0,0.0,0.0,0.0,0.0,0.0,0.0,0.0,0.0,0.0,0.0,0.0,0.0,0.0,0.0,0.0,0.0,0.0,0.0,0.0,0.0,0.0,0.0,0.0,0.0,0.0,0.0,0.0,0.0,0.0,0.0,0.0,0.0,0.0,0.0,0.0,0.0,0.0,0.0,0.0,0.0,0.0,0.0,0.0,0.0,0.0,0.0,0.0,0.0,0.0,0.0,0.0,0.0,0.0,0.0,0.0,0.0,0.0,0.0,0.0,0.0,0.0,0.0,0.0,0.0,0.0,0.0,0.0,0.0,0.0,0.0,0.0,0.0,0.0,0.0,0.0,0.0,0.0,0.0,0.0,0.0,0.0,0.0,0.0,0.0,0.0,0.0,0.0,0.0,0.0,0.0,0.0,0.0,0.0,0.0,0.0,0.0,-4.9404,-4.991,-4.8611,-4.7694,-4.7242,0.0,0.0,0.0,0.0,0.0,0.0,0.0,0.0,0.0,0.0,0.0,0.0,0.0,0.0,0.0,0.0,0.0,0.0,0.0,0.0,0.0,0.0,0.0,0.0,0.0,0.0,0.0,0.0,0.0,0.0,0.0,0.0,0.0,0.0,0.0,0.0,0.0,0.0,0.0,0.0,0.0,0.0,0.0,0.0,0.0,0.0,0.0,0.0,0.0,0.0,0.0,0.0,0.0,0.0,0.0,0.0,0.0,0.0,0.0,0.0,0.0,0.0,0.0,0.0,0.0,0.0,0.0,0.0,0.0,0.0,0.0,0.0,0.0,0.0,0.0,0.0,0.0,0.0,0.0,0.0,0.0,0.0,0.0,0.0,0.0,0.0,0.0,0.0,0.0,0.0,0.0,0.0,0.0,0.0,0.0,0.0,0.0,0.0,0.0,0.0,0.0,0.0,0.0,0.0,0.0,0.0,0.0,0.0,0.0,0.0,0.0,0.0,-4.8453,-4.7355,-4.6653,0.0,0.0,0.0,0.0,0.0,0.0,0.0,0.0,0.0,0.0,0.0,0.0,0.0,0.0,0.0,0.0,0.0,0.0,0.0,0.0,0.0,0.0,0.0,0.0,0.0,0.0,0.0,0.0,0.0,0.0,0.0,0.0,0.0,0.0,0.0,0.0,0.0,0.0,0.0,0.0,0.0,0.0,0.0,0.0,0.0,0.0,0.0,0.0,0.0,0.0,0.0,0.0,0.0,0.0,0.0,0.0,0.0,0.0,0.0,0.0,0.0,0.0,0.0,0.0,0.0,0.0,0.0,0.0,0.0,0.0,0.0,0.0,0.0,0.0,0.0,0.0,0.0,0.0,0.0,0.0,0.0,0.0,0.0,0.0,0.0,0.0,0.0,0.0,0.0,0.0,0.0,0.0,0.0,0.0,0.0,0.0,0.0,0.0,0.0,0.0,0.0,0.0,0.0,0.0,0.0,0.0,0.0,0.0,0.0,0.0,-4.8486,-4.9754,-4.7926,0.0,-4.4599,0.0,0.0,0.0,0.0,0.0,0.0,0.0,0.0,0.0,0.0,0.0,0.0,0.0,0.0,0.0,0.0,0.0,0.0,0.0,0.0,0.0,0.0,0.0,0.0,0.0,0.0,0.0,0.0,0.0,0.0,0.0,0.0,0.0,0.0,0.0,0.0,0.0,0.0,0.0,0.0,0.0,0.0,0.0,0.0,0.0,0.0,0.0,0.0,0.0,0.0,0.0,0.0,0.0,0.0,0.0,0.0,0.0,0.0,0.0,0.0,0.0,0.0,0.0,0.0,0.0,0.0,0.0,0.0,0.0,0.0,0.0,0.0,0.0,0.0,0.0,0.0,0.0,0.0,0.0,0.0,0.0,0.0,0.0,0.0,0.0,0.0,0.0,0.0,0.0,0.0,0.0,0.0,0.0,0.0,0.0,0.0,0.0,0.0,0.0,0.0,0.0,0.0,0.0,0.0,0.0,0.0,0.0,0.0,0.0,0.0,-4.9315,-4.9824,-4.7672,-4.5793,0.0,0.0,0.0,0.0,0.0,0.0,0.0,0.0,0.0,0.0,0.0,0.0,0.0,0.0,0.0,0.0,0.0,0.0,0.0,0.0,0.0,0.0,0.0,0.0,0.0,0.0,0.0,0.0,0.0,0.0,0.0,0.0,0.0,0.0,0.0,0.0,0.0,0.0,0.0,0.0,0.0,0.0,0.0,0.0,0.0,0.0,0.0,0.0,0.0,0.0,0.0,0.0,0.0,0.0,0.0,0.0,0.0,0.0,0.0,0.0,0.0,0.0,0.0,0.0,0.0,0.0,0.0,0.0,0.0,0.0,0.0,0.0,0.0,0.0,0.0,0.0,0.0,0.0,0.0,0.0,0.0,0.0,0.0,0.0,0.0,0.0,0.0,0.0,0.0,0.0,0.0,0.0,0.0,0.0,0.0,0.0,0.0,0.0,0.0,0.0,0.0,0.0,0.0,0.0,0.0,0.0,0.0,0.0,0.0,0.0,-4.8819,-4.9337,-4.9277,-4.7564,-4.5914,-4.4418,0.0,0.0,0.0,0.0,0.0,0.0,0.0,0.0,0.0,0.0,0.0,0.0,0.0,0.0,0.0,0.0,0.0,0.0,0.0,0.0,0.0,0.0,0.0,0.0,0.0,0.0,0.0,0.0,0.0,0.0,0.0,0.0,0.0,0.0,0.0,0.0,0.0,0.0,0.0,0.0,0.0,0.0,0.0,0.0,0.0,0.0,0.0,0.0,0.0,0.0,0.0,0.0,0.0,0.0,0.0,0.0,0.0,0.0,0.0,0.0,0.0,0.0,0.0,0.0,0.0,0.0,0.0,0.0,0.0,0.0,0.0,0.0,0.0,0.0,0.0,0.0,0.0,0.0,0.0,0.0,0.0,0.0,0.0,0.0,0.0,0.0,0.0,0.0,0.0,0.0,0.0,0.0,0.0,0.0,0.0,0.0,0.0,0.0,0.0,0.0,0.0,0.0,0.0,0.0,0.0,0.0,0.0,0.0,-4.7632,-4.7631,-4.7748,-4.8227,-4.7727,-4.6537,0.0,0.0,0.0,0.0,0.0,0.0,0.0,0.0,0.0,0.0,0.0,0.0,0.0,0.0,0.0,0.0,0.0,0.0,0.0,0.0,0.0,0.0,0.0,0.0,0.0,0.0,0.0,0.0,0.0,0.0,0.0,0.0,0.0,0.0,0.0,0.0,0.0,0.0,0.0,0.0,0.0,0.0,0.0,0.0,0.0,0.0,0.0,0.0,0.0,0.0,0.0,0.0,0.0,0.0,0.0,0.0,0.0,0.0,0.0,0.0,0.0,0.0,0.0,0.0,0.0,0.0,0.0,0.0,0.0,0.0,0.0,0.0,0.0,0.0,0.0,0.0,0.0,0.0,0.0,0.0,0.0,0.0,0.0,0.0,0.0,0.0,0.0,0.0,0.0,0.0,0.0,0.0,0.0,0.0,0.0,0.0,0.0,0.0,0.0,0.0,0.0,0.0,0.0,0.0,0.0,0.0,0.0,0.0,0.0,-4.7517,-4.8332,-4.8821,-4.884,-4.8058,-4.6903,0.0,0.0,0.0,0.0,0.0,0.0,0.0,0.0,0.0,0.0,0.0,0.0,0.0,0.0,0.0,0.0,0.0,0.0,0.0,0.0,0.0,0.0,0.0,0.0,0.0,0.0,0.0,0.0,0.0,0.0,0.0,0.0,0.0,0.0,0.0,0.0,0.0,0.0,0.0,0.0,0.0,0.0,0.0,0.0,0.0,0.0,0.0,0.0,0.0,0.0,0.0,0.0,0.0,0.0,0.0,0.0,0.0,0.0,0.0,0.0,0.0,0.0,0.0,0.0,0.0,0.0,0.0,0.0,0.0,0.0,0.0,0.0,0.0,0.0,0.0,0.0,0.0,0.0,0.0,0.0,0.0,0.0,0.0,0.0,0.0,0.0,0.0,0.0,0.0,0.0,0.0,0.0,0.0,0.0,0.0,0.0,0.0,0.0,0.0,0.0,0.0,0.0,0.0,0.0,0.0,0.0,0.0,0.0,0.0,-4.7294,0.0,-4.9452,-4.9225,-4.8472,-4.7457,0.0,0.0,0.0,0.0,0.0,0.0,0.0,0.0,0.0,0.0,0.0,0.0,0.0,0.0,0.0,0.0,0.0,0.0,0.0,0.0,0.0,0.0,0.0,0.0,0.0,0.0,0.0,0.0,0.0,0.0,0.0,0.0,0.0,0.0,0.0,0.0,0.0,0.0,0.0,0.0,0.0,0.0,0.0,0.0,0.0,0.0,0.0,0.0,0.0,0.0,0.0,0.0,0.0,0.0,0.0,0.0,0.0,0.0,0.0,0.0,0.0,0.0,0.0,0.0,0.0,0.0,0.0,0.0,0.0,0.0,0.0,0.0,0.0,0.0,0.0,0.0,0.0,0.0,0.0,0.0,0.0,0.0,0.0,0.0,0.0,0.0,0.0,0.0,0.0,0.0,0.0,0.0,0.0,0.0,0.0,0.0,0.0,0.0,0.0,0.0,0.0,0.0,0.0,0.0,0.0,0.0,0.0,0.0,-4.5655,-4.7049,-4.8626,-4.9364,-4.9139,-4.893,-4.8272,0.0,0.0,0.0,0.0,0.0,0.0,0.0,0.0,0.0,0.0,0.0,0.0,0.0,0.0,0.0,0.0,0.0,0.0,0.0,0.0,0.0,0.0,0.0,0.0,0.0,0.0,0.0,0.0,0.0,0.0,0.0,0.0,0.0,0.0,0.0,0.0,0.0,0.0,0.0,0.0,0.0,0.0,0.0,0.0,0.0,0.0,0.0,0.0,0.0,0.0,0.0,0.0,0.0,0.0,0.0,0.0,0.0,0.0,0.0,0.0,0.0,0.0,0.0,0.0,0.0,0.0,0.0,0.0,0.0,0.0,0.0,0.0,0.0,0.0,0.0,0.0,0.0,0.0,0.0,0.0,0.0,0.0,0.0,0.0,0.0,0.0,0.0,0.0,0.0,0.0,0.0,0.0,0.0,0.0,0.0,0.0,0.0,0.0,0.0,0.0,0.0,0.0,0.0,0.0,0.0,0.0,0.0,0.0,0.0,-4.9496,-4.9888,-4.9986,-4.978,-4.9602,-4.8716,0.0,0.0,0.0,0.0,0.0,0.0,0.0,0.0,0.0,0.0,0.0,0.0,0.0,0.0,0.0,0.0,0.0,0.0,0.0,0.0,0.0,0.0,0.0,0.0,0.0,0.0,0.0,0.0,0.0,0.0,0.0,0.0,0.0,0.0,0.0,0.0,0.0,0.0,0.0,0.0,0.0,0.0,0.0,0.0,0.0,0.0,0.0,0.0,0.0,0.0,0.0,0.0,0.0,0.0,0.0,0.0,0.0,0.0,0.0,0.0,0.0,0.0,0.0,0.0,0.0,0.0,0.0,0.0,0.0,0.0,0.0,0.0,0.0,0.0,0.0,0.0,0.0,0.0,0.0,0.0,0.0,0.0,0.0,0.0,0.0,0.0,0.0,0.0,0.0,0.0,0.0,0.0,0.0,0.0,0.0,0.0,0.0,0.0,0.0,0.0,0.0,0.0,0.0,0.0,0.0,0.0,0.0,0.0,0.0,-5.1874,-5.1843,-5.1705,-5.1454,-5.1009,-4.9821,-4.7892,0.0,0.0,0.0,0.0,0.0,0.0,0.0,0.0,0.0,0.0,0.0,0.0,0.0,0.0,0.0,0.0,0.0,0.0,0.0,0.0,0.0,0.0,0.0,0.0,0.0,0.0,0.0,0.0,0.0,0.0,0.0,0.0,0.0,0.0,0.0,0.0,0.0,0.0,0.0,0.0,0.0,0.0,0.0,0.0,0.0,0.0,0.0,0.0,0.0,0.0,0.0,0.0,0.0,0.0,0.0,0.0,0.0,0.0,0.0,0.0,0.0,0.0,0.0,0.0,0.0,0.0,0.0,0.0,0.0,0.0,0.0,0.0,0.0,0.0,0.0,0.0,0.0,0.0,0.0,0.0,0.0,0.0,0.0,0.0,0.0,0.0,0.0,0.0,0.0,0.0,0.0,0.0,0.0,0.0,0.0,0.0,0.0,0.0,0.0,0.0,0.0,0.0,0.0,0.0,0.0,0.0,0.0,0.0,-5.4278,-5.439,-5.4317,-5.398,-5.2934,-5.144,0.0,0.0,0.0,0.0,0.0,0.0,0.0,0.0,0.0,0.0,0.0,0.0,0.0,0.0,0.0,0.0,0.0,0.0,0.0,0.0,0.0,0.0,0.0,0.0,0.0,0.0,0.0,0.0,0.0,0.0,0.0,0.0,0.0,0.0,0.0,0.0,0.0,0.0,0.0,0.0,0.0,0.0,0.0,0.0,0.0,0.0,0.0,0.0,0.0,0.0,0.0,0.0,0.0,0.0,0.0,0.0,0.0,0.0,0.0,0.0,0.0,0.0,0.0,0.0,0.0,0.0,0.0,0.0,0.0,0.0,0.0,0.0,0.0,0.0,0.0,0.0,0.0,0.0,0.0,0.0,0.0,0.0,0.0,0.0,0.0,0.0,0.0,0.0,0.0,0.0,0.0,0.0,0.0,0.0,0.0,0.0,0.0,0.0,0.0,0.0,0.0,0.0,0.0,0.0,0.0,0.0,0.0,0.0,0.0,-5.6667,-5.809,-5.7896,-5.614,-5.4649,-5.2804,0.0,0.0,0.0,0.0,0.0,0.0,0.0,0.0,0.0,0.0,0.0,0.0,0.0,0.0,0.0,0.0,0.0,0.0,0.0,0.0,0.0,0.0,0.0,0.0,0.0,0.0,0.0,0.0,0.0,0.0,0.0,0.0,0.0,0.0,0.0,0.0,0.0,0.0,0.0,0.0,0.0,0.0,0.0,0.0,0.0,0.0,0.0,0.0,0.0,0.0,0.0,0.0,0.0,0.0,0.0,0.0,0.0,0.0,0.0,0.0,0.0,0.0,0.0,0.0,0.0,0.0,0.0,0.0,0.0,0.0,0.0,0.0,0.0,0.0,0.0,0.0,0.0,0.0,0.0,0.0,0.0,0.0,0.0,0.0,0.0,0.0,0.0,0.0,0.0,0.0,0.0,0.0,0.0,0.0,0.0,0.0,0.0,0.0,0.0,0.0,0.0,0.0,0.0,0.0,0.0,0.0,0.0,0.0,-5.4933,-5.6714,-5.9102,-5.959,-5.8066,-5.6059,-5.3895,0.0,0.0,0.0,0.0,0.0,0.0,0.0,0.0,0.0,0.0,0.0,0.0,0.0,0.0,0.0,0.0,0.0,0.0,0.0,0.0,0.0,0.0,0.0,0.0,0.0,0.0,0.0,0.0,0.0,0.0,0.0,0.0,0.0,0.0,0.0,0.0,0.0,0.0,0.0,0.0,0.0,0.0,0.0,0.0,0.0,0.0,0.0,0.0,0.0,0.0,0.0,0.0,0.0,0.0,0.0,0.0,0.0,0.0,0.0,0.0,0.0,0.0,0.0,0.0,0.0,0.0,0.0,0.0,0.0,0.0,0.0,0.0,0.0,0.0,0.0,0.0,0.0,0.0,0.0,0.0,0.0,0.0,0.0,0.0,0.0,0.0,0.0,0.0,0.0,0.0,0.0,0.0,0.0,0.0,0.0,0.0,0.0,0.0,0.0,0.0,0.0,0.0,0.0,0.0,0.0,0.0,0.0,0.0,-5.4796,-5.5713,-5.8621,-5.9969,-5.945,-5.7125,-5.47,0.0,0.0,0.0,0.0,0.0,0.0,0.0,0.0,0.0,0.0,0.0,0.0,0.0,0.0,0.0,0.0,0.0,0.0,0.0,0.0,0.0,0.0,0.0,0.0,0.0,0.0,0.0,0.0,0.0,0.0,0.0,0.0,0.0,0.0,0.0,0.0,0.0,0.0,0.0,0.0,0.0,0.0,0.0,0.0,0.0,0.0,0.0,0.0,0.0,0.0,0.0,0.0,0.0,0.0,0.0,0.0,0.0,0.0,0.0,0.0,0.0,0.0,0.0,0.0,0.0,0.0,0.0,0.0,0.0,0.0,0.0,0.0,0.0,0.0,0.0,0.0,0.0,0.0,0.0,0.0,0.0,0.0,0.0,0.0,0.0,0.0,0.0,0.0,0.0,0.0,0.0,0.0,0.0,0.0,0.0,0.0,0.0,0.0,0.0,0.0,0.0,0.0,0.0,0.0,0.0,0.0,0.0,0.0,-5.5716,-5.7094,-5.8611,-5.9371,-5.9522,-5.7206,-5.4943,0.0,0.0,0.0,0.0,0.0,0.0,0.0,0.0,0.0,0.0,0.0,0.0,0.0,0.0,0.0,0.0,0.0,0.0,0.0,0.0,0.0,0.0,0.0,0.0,0.0,0.0,0.0,0.0,0.0,0.0,0.0,0.0,0.0,0.0,0.0,0.0,0.0,0.0,0.0,0.0,0.0,0.0,0.0,0.0,0.0,0.0,0.0,0.0,-6.2797,0.0,0.0,0.0,0.0,0.0,0.0,0.0,0.0,0.0,0.0,0.0,0.0,0.0,0.0,0.0,0.0,0.0,0.0,0.0,0.0,0.0,0.0,0.0,0.0,0.0,0.0,0.0,0.0,0.0,0.0,0.0,0.0,0.0,0.0,0.0,0.0,0.0,0.0,0.0,0.0,0.0,0.0,0.0,0.0,0.0,0.0,0.0,0.0,0.0,0.0,0.0,0.0,0.0,0.0,0.0,0.0,0.0,0.0,0.0,-5.493,-5.6523,-5.7384,-5.8115,-5.8484,-5.6649,-5.4912,0.0,0.0,0.0,0.0,0.0,0.0,0.0,0.0,0.0,0.0,0.0,0.0,0.0,0.0,0.0,0.0,0.0,0.0,0.0,0.0,0.0,0.0,0.0,0.0,0.0,0.0,0.0,0.0,0.0,0.0,0.0,0.0,0.0,0.0,0.0,0.0,0.0,0.0,0.0,0.0,0.0,0.0,0.0,0.0,0.0,0.0,0.0,0.0,0.0,0.0,0.0,0.0,0.0,0.0,0.0,0.0,0.0,0.0,0.0,0.0,0.0,0.0,0.0,0.0,0.0,0.0,0.0,0.0,0.0,0.0,0.0,0.0,0.0,0.0,0.0,0.0,0.0,0.0,0.0,0.0,0.0,0.0,0.0,0.0,0.0,0.0,0.0,0.0,0.0,0.0,0.0,0.0,0.0,0.0,0.0,0.0,0.0,0.0,0.0,0.0,0.0,0.0,0.0,0.0,0.0,0.0,0.0,-5.2556,-5.3933,-5.5472,-5.6116,-5.6775,-5.7525,-5.6062,-5.4884,-5.417,0.0,0.0,0.0,0.0,0.0,0.0,0.0,0.0,0.0,0.0,0.0,0.0,0.0,0.0,0.0,0.0,0.0,0.0,0.0,0.0,0.0,0.0,0.0,0.0,0.0,0.0,0.0,0.0,0.0,0.0,0.0,0.0,0.0,0.0,0.0,0.0,0.0,0.0,-6.0468,-6.2847,0.0,0.0,0.0,0.0,0.0,0.0,0.0,0.0,-6.5418,0.0,0.0,0.0,0.0,0.0,0.0,0.0,0.0,0.0,0.0,0.0,0.0,0.0,0.0,0.0,0.0,0.0,0.0,0.0,0.0,0.0,0.0,0.0,0.0,0.0,0.0,0.0,0.0,0.0,0.0,0.0,0.0,0.0,0.0,0.0,0.0,0.0,0.0,0.0,0.0,0.0,0.0,0.0,0.0,0.0,0.0,0.0,0.0,0.0,0.0,0.0,0.0,0.0,0.0,0.0,0.0,-5.1814,-5.3182,-5.4598,-5.6187,-5.6311,-5.6775,-5.7489,-5.6026,-5.5169,-5.4884,0.0,0.0,0.0,0.0,0.0,0.0,0.0,0.0,0.0,0.0,0.0,0.0,0.0,0.0,0.0,0.0,0.0,0.0,0.0,0.0,0.0,0.0,0.0,0.0,0.0,0.0,0.0,0.0,0.0,0.0,0.0,0.0,0.0,0.0,0.0,0.0,0.0,0.0,0.0,-6.4135,-6.5285,0.0,0.0,0.0,0.0,0.0,0.0,0.0,0.0,-6.6423,0.0,0.0,0.0,0.0,0.0,0.0,0.0,0.0,0.0,0.0,0.0,0.0,0.0,0.0,0.0,0.0,0.0,0.0,0.0,0.0,0.0,0.0,0.0,0.0,0.0,0.0,0.0,0.0,0.0,0.0,0.0,0.0,0.0,0.0,0.0,0.0,0.0,0.0,0.0,0.0,0.0,0.0,0.0,0.0,0.0,0.0,0.0,0.0,0.0,0.0,0.0,0.0,0.0,0.0,0.0,-5.1982,-5.331,-5.4813,-5.6311,-5.6383,-5.6775,-5.7525,-5.6062,-5.5259,0.0,0.0,0.0,0.0,0.0,0.0,0.0,0.0,0.0,0.0,0.0,0.0,0.0,0.0,0.0,0.0,0.0,0.0,0.0,0.0,0.0,0.0,0.0,0.0,0.0,0.0,0.0,0.0,0.0,0.0,0.0,0.0,0.0,0.0,0.0,0.0,0.0,0.0,0.0,0.0,-6.578,-6.7,-6.7355,0.0,0.0,0.0,0.0,0.0,0.0,-6.6776,-6.6633,0.0,0.0,0.0,0.0,0.0,0.0,0.0,0.0,0.0,0.0,0.0,0.0,0.0,0.0,0.0,0.0,0.0,0.0,0.0,0.0,0.0,0.0,0.0,0.0,0.0,0.0,0.0,0.0,0.0,0.0,0.0,0.0,0.0,0.0,0.0,0.0,0.0,0.0,0.0,0.0,0.0,0.0,0.0,0.0,0.0,0.0,0.0,0.0,0.0,0.0,0.0,0.0,0.0,0.0,0.0,-5.1982,-5.331,-5.4777,-5.6311,-5.6383,-5.6775,-5.7525,-5.5883,-5.5009,0.0,0.0,0.0,0.0,0.0,0.0,0.0,0.0,0.0,0.0,0.0,0.0,0.0,0.0,0.0,0.0,0.0,0.0,0.0,0.0,0.0,0.0,0.0,0.0,0.0,0.0,0.0,0.0,0.0,0.0,0.0,0.0,0.0,0.0,0.0,0.0,0.0,0.0,0.0,0.0,0.0,-6.845,-6.941,-6.8982,0.0,0.0,0.0,0.0,-6.477,-6.5098,0.0,0.0,0.0,0.0,0.0,0.0,0.0,0.0,0.0,0.0,0.0,0.0,0.0,0.0,0.0,0.0,0.0,0.0,0.0,0.0,0.0,0.0,0.0,0.0,0.0,0.0,0.0,0.0,0.0,0.0,0.0,0.0,0.0,0.0,0.0,0.0,0.0,0.0,0.0,0.0,0.0,0.0,0.0,0.0,0.0,0.0,0.0,0.0,0.0,0.0,0.0,0.0,0.0,0.0,0.0,0.0,-5.1982,-5.331,-5.4813,-5.6311,-5.6383,-5.6775,-5.7525,-5.5348,-5.4223,0.0,0.0,0.0,0.0,0.0,0.0,0.0,0.0,0.0,0.0,0.0,0.0,0.0,0.0,0.0,0.0,0.0,0.0,0.0,0.0,0.0,0.0,0.0,0.0,0.0,0.0,0.0,0.0,0.0,0.0,0.0,0.0,0.0,0.0,0.0,0.0,0.0,0.0,0.0,0.0,0.0,-6.8632,-7.0162,-7.0364,-7.0275,0.0,0.0,-6.6767,-6.2895,-6.1405,0.0,0.0,0.0,0.0,0.0,0.0,0.0,0.0,0.0,0.0,0.0,0.0,0.0,0.0,0.0,0.0,0.0,0.0,0.0,0.0,0.0,0.0,0.0,0.0,0.0,0.0,0.0,0.0,0.0,0.0,0.0,0.0,0.0,0.0,0.0,0.0,0.0,0.0,0.0,0.0,0.0,0.0,0.0,0.0,0.0,0.0,0.0,0.0,0.0,0.0,0.0,0.0,0.0,0.0,0.0,-5.0031,-5.1347,-5.2388,-5.3879,-5.5773,-5.5808,-5.6191,-5.6918,-5.508,-5.4184,0.0,0.0,0.0,0.0,0.0,0.0,0.0,0.0,0.0,0.0,0.0,0.0,0.0,0.0,0.0,0.0,0.0,0.0,0.0,0.0,0.0,0.0,0.0,0.0,0.0,0.0,0.0,0.0,0.0,0.0,0.0,0.0,0.0,0.0,0.0,0.0,0.0,0.0,0.0,0.0,0.0,0.0,-6.9959,-7.1407,0.0,0.0,0.0,-6.7581,-6.2907,0.0,0.0,0.0,0.0,0.0,0.0,0.0,0.0,0.0,0.0,0.0,0.0,0.0,0.0,0.0,0.0,0.0,0.0,0.0,0.0,0.0,0.0,0.0,0.0,0.0,0.0,0.0,0.0,0.0,0.0,0.0,0.0,0.0,0.0,0.0,0.0,0.0,0.0,0.0,0.0,0.0,0.0,0.0,0.0,0.0,0.0,0.0,0.0,0.0,0.0,0.0,0.0,0.0,0.0,0.0,0.0,0.0,-5.0594,-5.157,-5.3013,-5.478,-5.5238,-5.5636,-5.6126,-5.5027,0.0,0.0,0.0,0.0,0.0,0.0,0.0,0.0,0.0,0.0,0.0,0.0,0.0,0.0,0.0,0.0,0.0,0.0,0.0,0.0,0.0,0.0,0.0,0.0,0.0,0.0,0.0,-5.0865,0.0,0.0,0.0,0.0,0.0,0.0,0.0,0.0,0.0,0.0,0.0,0.0,0.0,0.0,-6.8192,-6.9408,-7.192,-7.3124,0.0,0.0,-6.7613,-6.237,-6.2681,-6.2893,0.0,0.0,0.0,0.0,0.0,0.0,0.0,0.0,0.0,0.0,0.0,0.0,0.0,0.0,0.0,0.0,0.0,0.0,0.0,0.0,0.0,0.0,0.0,0.0,0.0,0.0,0.0,0.0,0.0,0.0,0.0,0.0,0.0,0.0,0.0,0.0,0.0,0.0,0.0,0.0,0.0,0.0,0.0,0.0,0.0,0.0,0.0,0.0,0.0,0.0,0.0,0.0,0.0,0.0,-4.9159,-4.9714,-5.1269,-5.2494,-5.341,-5.472,-5.5402,-5.5426,-5.5253,-5.4525,0.0,0.0,0.0,0.0,0.0,0.0,0.0,0.0,0.0,0.0,0.0,0.0,0.0,0.0,0.0,0.0,0.0,0.0,0.0,0.0,0.0,0.0,0.0,0.0,0.0,0.0,0.0,0.0,0.0,0.0,0.0,0.0,0.0,0.0,0.0,0.0,0.0,0.0,0.0,0.0,0.0,-6.7359,-6.8564,-7.1634,-7.2821,0.0,-6.9171,-6.6485,-6.0257,-5.8922,-5.8699,-5.9154,0.0,0.0,0.0,0.0,0.0,0.0,0.0,0.0,0.0,0.0,0.0,0.0,0.0,0.0,0.0,0.0,0.0,0.0,0.0,0.0,0.0,0.0,0.0,0.0,0.0,0.0,0.0,0.0,0.0,0.0,0.0,0.0,0.0,0.0,0.0,0.0,0.0,0.0,0.0,0.0,0.0,0.0,0.0,0.0,0.0,0.0,0.0,0.0,0.0,0.0,0.0,0.0,0.0,-4.8522,-4.8868,-5.0187,-5.1522,-5.2686,-5.3695,-5.4579,-5.5402,-5.4952,-5.4474,0.0,0.0,0.0,0.0,0.0,0.0,0.0,0.0,0.0,0.0,0.0,0.0,0.0,0.0,0.0,0.0,0.0,0.0,0.0,0.0,0.0,0.0,0.0,0.0,0.0,0.0,0.0,0.0,-5.0913,-5.1587,-5.2944,0.0,0.0,0.0,0.0,0.0,0.0,0.0,0.0,0.0,0.0,-6.571,-6.728,-7.0501,0.0,0.0,-6.9297,-6.7581,-6.0953,-6.19,-6.2725,-6.0896,-6.0873,0.0,0.0,0.0,0.0,0.0,0.0,0.0,0.0,0.0,0.0,0.0,0.0,0.0,0.0,0.0,0.0,0.0,0.0,0.0,0.0,0.0,0.0,0.0,0.0,0.0,0.0,0.0,0.0,0.0,0.0,0.0,0.0,0.0,0.0,0.0,0.0,0.0,0.0,0.0,0.0,0.0,0.0,0.0,0.0,0.0,0.0,0.0,0.0,0.0,0.0,0.0,0.0,-4.8017,-4.8275,-4.9588,-5.0692,-5.1698,-5.2842,-5.4008,-5.5069,-5.4899,-5.4717,0.0,0.0,0.0,0.0,0.0,0.0,0.0,0.0,0.0,0.0,0.0,0.0,0.0,0.0,0.0,0.0,0.0,0.0,0.0,0.0,0.0,0.0,0.0,0.0,0.0,0.0,0.0,0.0,-5.1579,-5.237,-5.3681,0.0,0.0,0.0,0.0,0.0,0.0,0.0,0.0,0.0,0.0,-6.418,-6.6401,-6.9815,-7.1311,-6.8981,-7.0037,-6.9285,-6.4112,-6.5476,-6.6215,-6.355,0.0,0.0,0.0,0.0,0.0,0.0,0.0,0.0,0.0,0.0,0.0,0.0,0.0,0.0,0.0,0.0,0.0,0.0,0.0,0.0,0.0,0.0,0.0,0.0,0.0,0.0,0.0,-4.8289,0.0,0.0,-4.7033,0.0,0.0,0.0,0.0,0.0,0.0,0.0,0.0,0.0,0.0,0.0,0.0,0.0,0.0,0.0,0.0,0.0,0.0,0.0,0.0,0.0,0.0,-4.7864,-4.8014,-4.9458,-5.022,-5.0355,-5.2438,-5.3813,-5.4391,-5.5189,-5.5568,-5.5329,0.0,0.0,0.0,0.0,0.0,0.0,0.0,0.0,0.0,0.0,0.0,0.0,0.0,0.0,0.0,0.0,0.0,0.0,0.0,0.0,0.0,0.0,0.0,0.0,0.0,0.0,-5.3248,-5.4434,-5.5287,0.0,0.0,0.0,0.0,0.0,0.0,0.0,0.0,0.0,-5.9189,-6.0736,-6.2845,-6.6232,-6.983,-7.1645,-7.0428,-7.1253,-7.1441,-6.9812,-6.8814,-6.7871,0.0,0.0,0.0,0.0,0.0,0.0,0.0,0.0,0.0,0.0,0.0,0.0,0.0,0.0,0.0,0.0,0.0,0.0,0.0,0.0,0.0,0.0,0.0,0.0,0.0,0.0,0.0,-4.9959,-4.9853,0.0,0.0,0.0,0.0,0.0,0.0,0.0,0.0,0.0,0.0,0.0,-4.9804,-4.9847,0.0,0.0,0.0,0.0,0.0,0.0,0.0,0.0,0.0,0.0,0.0,0.0,-4.8587,-4.8916,-4.9757,-5.0452,-5.0916,-5.2124,-5.3145,-5.3813,-5.4136,-5.4383,-5.455,0.0,0.0,0.0,0.0,0.0,0.0,0.0,0.0,0.0,0.0,0.0,0.0,0.0,0.0,0.0,0.0,0.0,0.0,0.0,0.0,0.0,0.0,0.0,0.0,0.0,-5.2294,0.0,0.0,0.0,0.0,0.0,0.0,0.0,0.0,0.0,0.0,-5.7212,-5.7666,-5.8631,-6.0614,-6.2954,-6.5749,-6.8751,-7.0246,0.0,0.0,0.0,0.0,0.0,0.0,0.0,0.0,0.0,0.0,0.0,0.0,0.0,0.0,-5.5295,-5.415,-5.2986,-5.257,-5.3973,0.0,0.0,0.0,0.0,0.0,0.0,0.0,0.0,0.0,0.0,0.0,0.0,0.0,0.0,-5.1123,-5.0925,-5.089,0.0,0.0,0.0,0.0,0.0,0.0,0.0,0.0,-4.9232,-4.9354,-4.9724,-4.9984,-5.0109,0.0,-5.0453,-5.0506,0.0,0.0,0.0,0.0,0.0,0.0,0.0,0.0,-4.9262,-4.9542,-5.0226,-5.0817,-5.128,-5.2047,-5.2834,-5.3583,-5.3878,-5.4011,-5.4011,-5.3943,-5.3442,0.0,0.0,0.0,0.0,0.0,0.0,0.0,0.0,0.0,0.0,0.0,0.0,0.0,0.0,0.0,0.0,0.0,0.0,0.0,0.0,0.0,0.0,0.0,-5.279,0.0,0.0,0.0,0.0,0.0,0.0,0.0,0.0,0.0,-5.738,-5.718,-5.7585,-5.8983,-6.015,-6.2229,-6.6135,0.0,0.0,0.0,0.0,0.0,0.0,0.0,-6.9939,-6.7246,-6.6323,-6.5334,-6.338,-6.1689,-5.9924,-5.8026,0.0,0.0,-5.4295,-5.3343,-5.2973,-5.383,-5.4276,-5.475,-5.5894,-5.6402,-5.6736,0.0,0.0,0.0,0.0,0.0,0.0,0.0,0.0,-5.2941,-5.2546,0.0,-5.1489,0.0,0.0,0.0,0.0,-5.0397,-4.9712,0.0,0.0,-4.9963,-4.9233,-4.8392,-4.9769,-4.9791,-4.8853,-5.0391,-5.1008,-5.0652,-4.9769,0.0,0.0,0.0,0.0,0.0,0.0,-4.9664,-4.985,-5.0792,-5.128,-5.1347,-5.215,-5.287,-5.3583,-5.4391,-5.4452,-5.3853,-5.3868,-5.3835,-5.3708,-5.4143,0.0,0.0,0.0,0.0,0.0,0.0,0.0,0.0,0.0,0.0,0.0,0.0,0.0,0.0,0.0,0.0,0.0,0.0,0.0,0.0,-5.3747,0.0,0.0,0.0,0.0,0.0,0.0,0.0,0.0,0.0,-5.7155,-5.7444,-5.7065,-5.7588,-6.0202,0.0,0.0,0.0,0.0,-6.9539,-7.3644,-7.4745,-7.4282,-7.1968,-7.1256,-6.9591,-6.5682,0.0,0.0,-6.1983,-6.1422,-6.0534,-5.8468,-5.6776,-5.5474,-5.4185,-5.5108,-5.5766,-5.5008,-5.5502,-5.6499,-5.7096,-5.6988,-5.7107,-5.504,0.0,0.0,0.0,0.0,-5.2371,-5.3011,-5.4125,-5.4124,-5.3874,-5.3397,-5.3425,0.0,0.0,0.0,0.0,0.0,0.0,-5.0423,-5.1229,-5.0358,-5.0248,-5.0818,-5.0723,-5.0517,-5.0246,-5.0242,-4.9929,-4.9328,-4.8972,-4.916,-4.9812,0.0,0.0,0.0,0.0,-4.969,-5.0622,-5.0665,-5.1054,-5.2042,-5.2345,-5.2624,-5.311,-5.3483,-5.3647,-5.3577,-5.3925,-5.3921,-5.3366,-5.4327,0.0,0.0,0.0,0.0,0.0,0.0,0.0,0.0,0.0,0.0,0.0,0.0,0.0,0.0,0.0,0.0,0.0,0.0,0.0,-5.3049,-4.8572,-4.6779,0.0,0.0,0.0,0.0,0.0,0.0,0.0,0.0,0.0,-5.5247,-5.7084,-5.8457,0.0,0.0,-6.2626,-6.6602,-6.7912,-6.9592,-7.2528,-7.2912,0.0,-7.0113,-6.855,-6.6574,-6.3577,-6.2662,-6.1664,-5.9735,-5.9443,-5.8705,-5.6456,-5.5359,-5.479,-5.4965,-5.3976,-5.3675,-5.4382,-5.4977,-5.5415,-5.588,-5.669,-5.7296,-5.7565,-5.4858,-5.4037,-5.3838,-5.4037,-5.3658,-5.4011,-5.4667,-5.4634,-5.4518,-5.433,-5.3991,-5.3139,-5.1856,-5.1049,0.0,0.0,0.0,-4.9895,-5.0781,-4.9815,-4.9832,-5.077,-5.0677,-5.0337,-4.9925,-4.9934,-4.9512,-4.8653,-4.8903,-4.9106,-4.936,0.0,-4.9722,-4.9426,-4.9389,-4.9805,-5.051,-5.0692,-5.1124,-5.1948,-5.234,-5.2544,-5.281,-5.3023,-5.3235,-5.3408,-5.3686,-5.3783,-5.3645,-5.4675,-5.5233,0.0,0.0,0.0,0.0,0.0,0.0,0.0,0.0,0.0,0.0,0.0,-5.038,-4.9596,0.0,0.0,0.0,-4.5631,-4.6915,-4.9245,-4.3737,0.0,0.0,0.0,0.0,0.0,0.0,0.0,-4.9157,-4.9413,-5.0036,-5.1775,-5.3922,-5.5822,-5.7575,-5.8954,-6.1346,-6.5654,0.0,-6.7812,-7.118,-7.1589,-7.0605,-6.8199,-6.6144,-6.3859,-6.0758,-5.9813,-5.9249,-5.8338,-5.7892,-5.7024,-5.5424,-5.5011,-5.5077,-5.5303,-5.454,-5.4187,-5.5213,-5.5627,-5.5973,-5.6195,-5.7191,-5.7935,-5.9657,-5.8183,-5.6277,-5.5673,-5.5814,-5.5194,-5.49,-5.4868,-5.4835,-5.4832,-5.4782,-5.3684,-5.3252,-5.3315,-5.1329,0.0,-5.0609,-4.912,-4.891,-4.9627,-4.8857,-4.8745,-4.9344,-4.9942,-4.9583,-4.8386,-4.9523,-4.9581,-4.8644,-4.9052,-4.9151,-4.8857,-4.8572,-4.8698,-4.9167,-4.9539,-4.9705,-4.9716,-5.0778,-5.1294,-5.1294,-5.202,-5.2494,-5.2496,-5.2753,-5.2869,-5.3089,-5.3122,-5.3365,-5.398,-5.4918,-5.5706,-5.6126,0.0,0.0,0.0,0.0,0.0,0.0,0.0,0.0,0.0,0.0,0.0,0.0,0.0,0.0,-3.7713,-3.4593,0.0,-4.1661,-3.6869,0.0,0.0,0.0,-2.288,-1.9379,-2.6152,-3.3208,-3.8819,0.0,0.0,-4.684,-4.7916,-5.0269,-5.4805,-5.5659,-5.8088,-6.4079,-6.4248,-6.5233,-6.9661,-7.0284,-6.921,-6.6101,-6.3566,-6.0559,-5.7135,-5.6404,-5.6434,-5.6607,-5.6302,-5.5575,-5.4686,-5.5182,-5.5789,-5.5002,-5.5975,-5.702,-5.6648,-5.7115,-5.7484,-5.7506,-5.813,-5.8874,-6.0548,-5.9002,-5.8527,-5.7804,-5.7,-5.6151,-5.5982,-5.6216,-5.606,-5.5787,-5.5397,-5.4485,-5.3239,-5.1696,-5.1638,-5.135,-5.0738,-5.0227,-5.0352,-5.0923,-5.0185,-4.9853,-5.0002,-5.0182,-4.9823,-4.9045,-4.8835,-4.8595,-4.8377,-4.8015,-4.7739,-4.7775,-4.8499,-4.8817,-4.8834,-4.8808,-4.9187,-4.9804,-5.0119,-5.037,-5.0723,-5.0908,-5.1124,-5.1286,-5.1253,-5.1404,-5.1629,-5.1629,-5.168,-5.1849,-5.3008,-5.4216,-5.5602,-5.6564,0.0,0.0,0.0,0.0,0.0,0.0,0.0,0.0,0.0,-5.0178,-4.9118,0.0,-4.3694,0.0,-2.8513,-2.0086,-1.8055,-1.2517,0.0,0.0,-1.1093,-1.3396,-1.3828,-1.9939,-2.6057,-3.1135,-3.3914,-3.5976,-3.7732,-3.8591,-4.0921,-4.5445,-5.1905,-5.6953,-5.9064,-6.2859,-6.5765,-6.7177,-6.7246,-6.6051,-6.379,-5.9349,-5.516,-5.2149,-5.218,-5.2574,-5.2992,-5.3058,-5.3274,-5.4033,-5.3946,-5.4286,-5.5797,-5.5908,-5.6275,-5.7483,-5.8119,-5.8162,-5.7741,-5.8551,-5.949,-6.1264,-6.0091,-5.9713,-5.9234,-5.854,-5.6869,-5.6277,-5.6369,-5.6323,-5.5973,-5.5402,-5.4419,-5.3181,-5.1754,-5.1617,-5.1248,-5.083,-5.0181,-5.0272,-5.0879,-5.0395,-5.0391,-5.0661,-5.0661,-5.0331,-4.9703,-4.9344,-4.9015,-4.8716,-4.8356,-4.8177,-4.8147,-4.8802,-4.8997,-4.8714,-4.9244,-4.9739,-5.0278,-5.0524,-5.0897,-5.1342,-5.1133,-5.1133,-5.1545,-5.1334,-5.148,-5.2081,-5.2122,-5.2251,-5.2524,-5.3483,-5.4624,-5.5862,-5.651,-5.7093,0.0,0.0,0.0,0.0,0.0,0.0,0.0,0.0,0.0,0.0,0.0,-3.7033,-2.9633,-1.5022,-0.5588,-0.4602,0.0291,0.4655,0.8041,0.4199,0.143,0.1572,-0.6672,-1.4651,-2.0762,-2.4752,-2.7414,-2.8435,-2.9018,-3.1265,-3.6707,-4.3617,-5.046,-5.6745,-6.1423,-6.4388,-6.5459,-6.5332,-6.3884,-6.0693,-5.5802,-5.1785,-5.0001,-4.9848,-5.0438,-5.1169,-5.1764,-5.2631,-5.378,-5.3852,-5.4002,-5.5232,-5.553,-5.5889,-5.6514,-5.738,-5.78,-5.7748,-5.828,-5.8777,-6.1682,-6.092,-6.0258,-5.9893,-5.9595,-5.7423,-5.6474,-5.6297,-5.6198,-5.5784,-5.5127,-5.3923,-5.2997,-5.2323,-5.1481,-5.1037,-5.0838,-5.011,-4.9914,-5.0361,-5.0361,-5.069,-5.1229,-5.1229,-5.093,-5.0361,-5.0272,-4.9942,-4.9404,-4.9224,-4.9194,-4.9164,-4.9133,-4.9131,-4.8916,-5.0063,-5.0739,-5.0697,-5.1064,-5.1539,-5.225,-5.1677,-5.1757,-5.2267,-5.1901,-5.2139,-5.2967,-5.3089,-5.3369,-5.3749,-5.4461,-5.5135,-5.5854,-5.6143,-5.6482,0.0,-5.5434,0.0,0.0,0.0,0.0,0.0,0.0,0.0,0.0,-3.6501,-2.6325,-1.1343,0.1595,0.8249,0.624,0.9524,1.5671,2.4846,2.0512,1.7345,1.8679,0.8332,-0.1976,-0.9644,-1.5102,-1.8512,-1.8916,-1.9264,-2.186,-2.909,-3.4984,-4.309,-5.4594,-5.9633,-6.208,-6.3732,-6.3964,-6.1976,-5.7307,-5.3385,-5.0626,-4.9098,-4.8728,-4.92,-5.0345,-5.1456,-5.2597,-5.3588,-5.4436,-5.4661,-5.4251,-5.5165,-5.5813,-5.5595,-5.6184,-5.6988,-5.7575,-5.78,-5.7664,-6.1417,-6.0191,-6.0059,-5.9297,-5.8204,-5.7694,-5.7529,-5.7463,-5.6867,-5.5875,-5.4618,-5.3798,-5.2935,-5.227,-5.2611,-5.2263,-5.1481,-5.184,-5.1607,-5.102,-5.102,-5.1079,-5.1229,-5.1229,-5.1169,-5.102,-5.0481,-5.0182,-5.0032,-4.8854,-4.8433,-4.8463,-4.8623,-4.8989,-4.9533,0.0,0.0,0.0,-4.973,-4.9819,-5.0979,-5.0886,-5.1109,-5.1539,-5.129,0.0,-5.1595,-5.1436,-5.1382,-5.1443,-5.223,0.0,0.0,0.0,0.0,0.0,0.0,0.0,0.0,0.0,0.0,0.0,-5.0326,-4.7404,-4.2087,-2.7272,-1.045,0.6975,1.4814,2.1723,2.9055,3.0113,3.1703,3.4702,2.9753,2.5393,2.3497,1.4735,0.5858,-0.1719,-0.5153,-0.7232,-0.8645,-0.9775,-1.4361,-2.3896,-3.1247,-3.9642,-5.0408,-5.68,-6.0381,-6.0909,-6.0962,-5.9253,-5.4665,-5.3028,-5.0854,-4.8005,-4.7319,-4.8083,-4.9474,-5.0763,-5.2095,-5.3494,-5.4983,-5.5618,-5.4429,-5.544,-5.6468,-5.636,-5.5863,-5.5791,-5.6988,-5.7543,-5.78,-6.1218,-6.0523,-6.0158,-5.9562,0.0,-5.8104,-5.7806,-5.7707,-5.6614,-5.5322,-5.393,-5.3202,-5.2851,-5.281,-5.3104,-5.2876,-5.2286,-5.2445,-5.2277,-5.1678,-5.1379,-5.1409,-5.1708,-5.1708,-5.1339,-5.0632,-5.0632,-5.0235,-4.953,-4.8798,-4.8461,-4.8586,-4.8682,-4.8878,-4.9121,-4.9324,-4.9868,-5.0538,-5.0176,-5.0206,-5.0568,-5.0568,-5.0635,-5.0877,-5.0223,0.0,0.0,0.0,0.0,0.0,0.0,0.0,0.0,-5.127,0.0,-5.1391,-5.0549,-4.9724,-4.8862,-5.0216,-5.1339,-5.1646,-4.2244,-3.4331,-2.9722,-1.3013,0.4192,2.051,2.5667,3.1336,3.9627,3.9215,3.8712,3.9765,3.4519,2.9294,2.54,1.7612,0.965,0.3638,0.0479,-0.1127,-0.0972,-0.3711,-0.9422,-1.9094,-2.6934,-3.5649,-4.5989,-5.3996,-5.8583,-5.8958,-5.884,-5.8076,-5.5796,-5.3438,-5.1942,-5.0025,-4.9014,-4.9292,-5.0808,-5.2138,-5.3485,-5.4696,-5.5746,-5.591,-5.4939,-5.5435,-5.615,-5.5996,-5.5842,-5.5686,-5.6179,-5.6006,-5.5766,-6.0934,-6.0769,-6.0208,-5.9926,-5.9694,-5.8369,-5.7574,-5.7144,-5.5951,0.0,0.0,-5.2804,-5.2937,-5.3592,-5.3607,-5.3391,-5.307,-5.2947,-5.2551,-5.2007,-5.1468,-5.1558,-5.2187,-5.2067,-5.1476,-5.0379,-5.0671,-5.0191,-4.8966,-4.8753,-4.8596,-4.8624,-4.861,-4.8555,-4.8581,-4.8572,-4.9083,-5.0239,-5.0787,-5.0962,-5.0643,-5.0614,-5.0621,-5.0714,-4.9783,-4.9314,-4.9463,-4.9066,-4.8903,-4.901,-4.9059,-4.9291,-4.9698,-4.9594,-4.9651,-4.9865,-4.9281,-4.8351,-4.7252,-4.9552,-5.0069,-4.7886,-3.0928,-1.8794,-1.461,0.1595,1.7308,3.0992,3.4523,3.8649,4.4793,4.3361,4.2181,4.2726,3.7175,3.1734,2.7279,1.9629,1.2596,0.766,0.535,0.4089,0.4063,0.0644,-0.5624,-1.5246,-2.3714,-3.269,-4.3636,-5.1892,-5.6518,-5.7326,-5.7553,-5.7482,-5.6937,-5.5197,-5.3249,-5.2965,-5.1917,-5.177,-5.3261,-5.4556,-5.5379,-5.5889,-5.6238,-5.593,-5.5188,-5.5273,-5.5511,-5.5358,-5.5512,-5.5644,-5.5018,-5.4098,-5.3498,-6.0346,-5.9816,-5.9927,-5.9628,-5.8999,-5.8138,-5.6746,-5.499,-5.4759,-5.4195,-5.34,-5.3301,-5.3665,-5.4394,-5.4972,-5.4775,-5.3818,-5.3859,-5.2905,-5.1349,-5.1259,-5.1558,-5.2157,-5.1618,-5.1409,-5.1549,-5.0671,-4.9919,-4.9437,-4.8404,-4.7847,-4.7829,-4.768,-4.808,-4.8953,-4.9467,-4.9579,-4.931,-4.9598,-5.0238,-5.128,-5.1251,-5.1366,-5.1817,-5.1439,-5.1075,-5.0879,-5.0395,-5.011,-4.9585,-4.9555,-4.9249,-4.8453,-4.826,-4.7874,-4.7096,-4.5533,-4.4754,-4.505,-4.534,-4.1231,-3.1545,-1.9062,-0.9924,-0.4963,1.2783,2.767,3.6473,3.9989,4.3119,4.6068,4.6307,4.5442,4.375,3.9207,3.4386,2.9946,2.3504,1.7132,1.1403,1.2599,1.1312,0.6877,0.3203,-0.3077,-1.3251,-2.3643,-3.3639,-4.4699,-5.1179,-5.3917,-5.5712,-5.6871,-5.7177,-5.6964,-5.686,-5.5915,-5.4141,-5.488,-5.528,-5.5567,-5.6341,-5.6851,-5.6366,-5.6724,-5.6471,-5.5048,-5.5123,-5.5445,-5.5478,-5.484,-5.3907,-5.3783,-5.3008,-5.2696,-6.1316,-6.0857,-5.9862,-5.9198,-5.8833,-5.7674,-5.6415,-5.5156,-5.5123,-5.446,-5.3467,-5.34,-5.403,-5.509,-5.5454,-5.5017,-5.3976,-5.3976,-5.3148,-5.1832,-5.1768,-5.1917,-5.2187,-5.2247,-5.1689,-5.0774,-5.0154,-4.9408,-4.8402,-4.746,-4.7218,-4.7603,-4.8055,-4.8599,-4.9142,-4.9711,-5.0037,-5.0091,-5.0129,-5.0216,-5.0197,-5.0813,-5.092,-5.046,-4.9992,-4.9547,-4.9123,-4.8665,-4.8276,-4.7989,-4.7645,-4.7401,-4.7259,-4.6275,-4.5695,-4.5502,-4.411,-4.3161,-4.2922,-3.8594,-3.279,-2.4932,-0.8492,0.3978,0.9867,2.2631,3.3157,3.9534,4.2911,4.5485,4.7429,4.7342,4.6796,4.6164,4.1855,3.7246,3.2544,2.7098,2.1412,1.6282,1.4795,1.2946,0.8477,0.3006,-0.3944,-1.3948,-2.5589,-3.7068,-4.4934,-4.8282,-5.1307,-5.4643,-5.6895,-5.8092,-5.8264,-5.8535,-5.8374,-5.762,-5.7778,-5.8121,-5.8319,-5.8421,-5.7806,-5.749,-5.7291,-5.66,-5.5536,-5.5505,-5.5587,-5.5521,-5.4675,-5.3808,-5.3386,-5.2653,-5.2382,-6.1824,-6.1198,-5.958,-5.8701,-5.8303,-5.7177,-5.6282,-5.5653,-5.562,-5.5057,-5.4229,-5.4162,-5.4792,-5.5819,-5.6017,-5.5343,-5.4115,-5.3976,-5.3241,-5.2042,-5.1977,-5.2037,-5.2217,-5.2606,-5.1798,-5.0241,-4.981,-4.8995,-4.7859,-4.6941,-4.6835,-4.7595,-4.8735,-4.9413,-4.9549,-4.9983,-5.0498,-5.1068,-5.0864,-5.0317,-4.982,-5.0661,-5.0547,-4.9314,-4.9193,-4.8487,-4.7184,-4.6947,-4.6572,-4.6089,-4.5529,-4.5449,-4.5715,-4.4568,-4.3898,-4.4209,-4.3098,-4.1378,-3.8847,-3.0451,-2.2701,-1.6573,0.1951,1.6605,2.4179,3.1023,3.7317,4.2292,4.5163,4.715,4.8464,4.8263,4.7788,4.7692,4.4236,3.9875,3.5171,3.0322,2.5412,2.0705,1.733,1.4253,0.9225,0.2356,-0.6788,-1.8025,-2.983,-3.8719,-4.278,-4.5604,-4.9226,-5.3298,-5.6555,-5.8517,-5.9807,-6.0463,-6.0772,-6.1369,-6.0915,-6.0772,-6.0771,-5.9705,-5.8518,-5.8174,-5.7077,-5.6241,-5.5956,-5.5588,-5.5222,-5.499,-5.4146,-5.361,-5.3206,-5.2778,-5.2284,-6.0583,-5.9003,-5.8905,-5.8104,-5.6978,-5.6746,-5.6282,-5.5686,-5.562,-5.5951,-5.6282,-5.6382,-5.6415,-5.668,-5.7243,-5.6157,-5.4008,-5.3976,-5.2993,-5.1506,-5.1319,-5.1618,-5.2067,-5.1708,-5.1498,-5.132,-4.9781,-4.9059,-4.8941,-4.737,-4.7079,-4.8165,-4.9359,-5.02,-5.0661,-5.077,-5.1122,-5.1719,-5.0512,-5.0459,-5.1467,-5.1692,-5.1078,-4.9756,-5.0891,-4.9743,-4.6451,-4.7341,-4.6939,-4.4864,-4.4572,-4.432,-4.4004,-4.379,-4.345,-4.3073,-4.1485,-3.8177,-3.2078,-2.0399,-0.9528,0.0625,1.2648,2.4188,3.2663,3.6914,4.1383,4.5435,4.7442,4.8393,4.9837,4.972,4.9027,4.7984,4.5401,4.2022,3.7391,3.3466,2.9292,2.4195,2.152,1.8348,1.0254,0.1736,-0.9704,-2.4428,-3.1846,-3.7707,-4.1248,-4.4567,-4.7777,-5.1822,-5.5083,-5.7809,-5.9852,-6.1939,-6.2706,-6.3375,-6.3766,-6.341,-6.2513,-6.087,-5.9316,-5.8114,-5.6568,-5.552,-5.5122,-5.4593,-5.4494,-5.4295,-5.3592,-5.2831,-5.3049,-5.3107,-5.2844,-6.1218,-5.999,-5.9201,-5.8038,-5.6779,-5.668,-5.6514,-5.6249,-5.6249,-5.6647,-5.7276,-5.7342,-5.7074,-5.653,-5.6432,-5.5159,-5.3227,-5.3196,-5.2516,-5.1353,-5.1618,-5.1738,-5.1618,-5.1768,-5.1394,-5.0616,-4.9724,-4.9108,-4.8703,-4.8192,-4.8463,-4.9277,-5.0118,-5.0824,-5.1278,-5.0602,-5.0512,-5.1069,-5.0038,-4.9973,-5.0706,-5.0286,-4.9522,-4.8748,-4.909,-4.8762,-4.723,-4.7521,-4.7288,-4.593,-4.5579,-4.5271,-4.4926,-4.3904,-4.291,-4.1966,-3.7681,-3.2973,-2.8221,-1.3093,-0.1375,0.4865,1.7538,2.7807,3.3475,3.4875,3.6983,4.0871,4.4174,4.6225,4.6658,4.7068,4.7578,4.7941,4.5703,4.2604,4.0302,3.4819,2.9992,2.6535,2.184,1.6381,0.8345,-0.3585,-1.6138,-2.7522,-3.3001,-3.6344,-3.8916,-4.2365,-4.5742,-4.8632,-5.1898,-5.5712,-5.9166,-6.1628,-6.3075,-6.4354,-6.5225,-6.5217,-6.3669,-6.1581,-5.9614,-5.8497,-5.6731,-5.5696,-5.5928,-5.5388,-5.5024,-5.4494,-5.4162,-5.3691,-5.3882,-5.3915,-5.3618,-6.102,-6.0092,-5.9032,-5.8129,-5.7287,-5.7056,-5.7033,-5.6987,-5.6757,-5.7111,-5.774,-5.7574,-5.723,-5.6658,-5.6122,-5.4836,-5.317,-5.288,-5.2246,-5.1383,-5.1738,-5.1768,-5.1558,-5.1661,-5.1278,-5.0328,-4.9848,-4.9225,-4.8627,-4.925,-4.9594,-4.9825,-5.0408,-5.0853,-5.0777,-4.9933,-4.978,-5.0327,-4.9364,-4.9165,-4.9611,-4.8551,-4.7887,-4.7902,-4.8108,-4.7832,-4.6925,-4.7178,-4.6781,-4.5615,-4.5227,-4.4693,-4.4014,-4.2658,-4.1276,-3.9397,-3.4154,-2.8679,-2.3701,-0.6973,0.4602,0.8986,2.027,2.886,3.1719,3.0858,3.1154,3.4361,3.7572,3.9661,4.282,4.3911,4.5358,4.7018,4.4664,4.2668,4.1003,3.5481,3.1045,2.8208,2.2414,1.3416,0.3282,-0.9837,-2.2056,-3.0124,-3.3459,-3.5635,-3.7628,-4.0573,-4.3015,-4.5295,-4.867,-5.2823,-5.7932,-6.0722,-6.258,-6.4374,-6.5401,-6.5187,-6.4037,-6.1517,-5.9282,-5.7771,-5.6459,-5.5762,-5.5819,-5.5686,-5.5487,-5.5289,-5.4924,-5.4626,-5.4609,-5.4717,-5.4444,-5.9231,-5.8071,-5.7873,-5.8241,-5.8747,-5.8063,-5.774,-5.7695,-5.7096,-5.7144,-5.7707,-5.7177,-5.7033,-5.7437,-5.7288,-5.6071,-5.4025,-5.3582,-5.2673,-5.1413,-5.1319,-5.1618,-5.2031,-5.1385,-5.1216,-5.1468,-5.0218,-4.9414,-4.9196,-5.014,-5.0131,-4.9153,-4.9976,-4.9935,-4.9165,-4.8913,-4.9163,-4.9887,-4.8426,-4.7954,-4.8612,-4.7209,-4.6904,-4.8064,-4.8886,-4.7694,-4.5412,-4.6109,-4.5455,-4.2571,-4.2637,-4.1684,-3.9778,-3.9497,-3.8062,-3.5195,-3.1612,-2.6141,-1.7559,-0.293,0.828,1.3514,2.0939,2.7952,3.0743,2.6645,2.5338,2.8278,2.8458,3.0998,3.7081,3.9759,4.2079,4.3251,4.2748,4.1166,3.9779,3.5618,3.2888,2.9371,2.2999,1.1261,-0.622,-1.6207,-2.4836,-3.2176,-3.5339,-3.6341,-3.8668,-3.9553,-4.0864,-4.3034,-4.5804,-4.9182,-5.5909,-5.9273,-6.1753,-6.3389,-6.3826,-6.4087,-6.2404,-6.0632,-5.8869,-5.7382,-5.6545,-5.5994,-5.5752,-5.5587,-5.5421,-5.5331,-5.524,-5.5065,-5.5755,-5.5445,-5.517,-5.8999,-5.8548,-5.8562,-5.874,-5.893,-5.9118,-5.8982,-5.8484,-5.8261,-5.8241,-5.8449,-5.8204,-5.821,-5.838,-5.819,-5.655,-5.3975,-5.368,-5.2947,-5.1952,-5.1858,-5.2187,-5.2659,-5.1905,-5.1527,-5.1592,-5.0859,-5.0629,-5.0797,-5.0442,-5.0221,-4.9933,-4.9435,-4.9343,-4.9436,-4.8805,-4.8645,-4.9169,-4.8045,-4.7516,-4.7656,-4.6958,-4.712,-4.806,-4.7313,-4.6311,-4.5229,-4.5879,-4.5064,-4.2702,-4.2793,-4.2213,-4.0394,-3.8512,-3.6482,-3.3861,-3.0037,-2.4494,-1.6211,-0.3624,0.6459,1.1971,1.8639,2.4277,2.6118,2.2553,2.0836,2.4839,2.4936,2.5487,2.6156,3.0393,3.5333,3.9224,3.7641,3.6784,3.7581,3.3629,2.8659,2.6247,1.9182,0.6619,-0.7787,-1.7436,-2.5229,-3.5369,-3.7187,-3.7402,-3.83,-3.8885,-3.981,-4.1122,-4.2962,-4.5755,-5.0441,-5.611,-5.9687,-6.1246,-6.2139,-6.2656,-6.1816,-6.0642,-5.9084,-5.7915,-5.7047,-5.6591,-5.6448,-5.6226,-5.607,-5.6371,-5.6211,-5.6325,-5.7156,-5.6835,-5.6486,-5.8833,-5.9292,-5.9573,-5.979,-6.0086,-6.0559,-6.0563,-5.9963,-5.9525,-5.9304,-5.9276,-5.9026,-5.9032,-5.9216,-5.9034,-5.7689,-5.5301,-5.4636,-5.3897,-5.3058,-5.2708,-5.2875,-5.3247,-5.2586,-5.2174,-5.2095,-5.1822,-5.2054,-5.2442,-5.1292,-5.0695,-5.0713,-4.9439,-4.8748,-4.9011,-4.8188,-4.8064,-4.8284,-4.7723,-4.7394,-4.7632,-4.7446,-4.7785,-4.8439,-4.7045,-4.6136,-4.6294,-4.6025,-4.4891,-4.3211,-4.3007,-4.2217,-3.9979,-3.7846,-3.5716,-3.3733,-3.0451,-2.5375,-1.8122,-0.7554,0.1561,0.8213,1.6418,2.2358,2.368,1.8513,1.8183,2.141,2.0647,1.8017,1.5855,1.7962,2.487,3.3752,3.2737,3.2126,3.6608,3.0174,2.4887,2.1936,1.5436,0.3562,-0.9708,-1.7062,-2.6447,-3.8207,-3.9363,-3.9363,-3.976,-3.9307,-3.9512,-4.0092,-4.2017,-4.4124,-4.7911,-5.2723,-5.6995,-5.8821,-6.0729,-6.1268,-6.1282,-6.0317,-5.9532,-5.8429,-5.7758,-5.7409,-5.7155,-5.6934,-5.7139,-5.7588,-5.7606,-5.7548,-5.8001,-5.8212,-5.7725,-5.8668,-5.9908,-6.0886,-6.1449,-6.1972,-6.2119,-6.2301,-6.1985,-6.0789,-6.0224,-6.0122,-5.9397,-5.9496,-5.9926,-6.001,-5.938,-5.8281,-5.6524,-5.5285,-5.4512,-5.3658,-5.3593,-5.4082,-5.3048,-5.2858,-5.3241,-5.2945,-5.3413,-5.4147,-5.2879,-5.1846,-5.0896,-4.9829,-4.8612,-4.712,-4.7353,-4.7328,-4.7746,-4.7538,-4.7913,-4.9312,-4.8748,-4.8889,-4.98,-4.8436,-4.7689,-4.7977,-4.6674,-4.5005,-4.3149,-4.2591,-4.1158,-3.8525,-3.7129,-3.5946,-3.4397,-3.2333,-2.838,-2.1823,-1.2714,-0.3635,0.4294,1.5293,2.1754,2.043,1.568,1.3919,1.7245,1.475,1.0254,0.6415,0.6384,1.3574,2.8571,2.8693,2.915,3.1537,2.6586,2.0157,1.767,1.2922,0.4136,-0.7367,-1.687,-2.6671,-3.75,-4.2065,-4.2635,-4.2244,-4.0833,-4.0092,-4.0636,-4.211,-4.4039,-4.6644,-4.9618,-5.3322,-5.6589,-5.8623,-5.9858,-5.9851,-5.9209,-5.9208,-5.8351,-5.793,-5.7541,-5.7288,-5.7253,-5.7473,-5.7808,-5.8065,-5.8492,-5.8771,-5.8909,-5.8702,-5.9131,-6.0041,-6.0886,-6.162,-6.2324,-6.2858,-6.3063,-6.2956,-6.205,-6.1627,-6.1457,-6.0798,-6.0556,-6.0721,-6.0755,-6.0588,-6.0135,-5.8223,-5.6684,-5.5438,-5.4352,-5.419,-5.4361,-5.3596,-5.3275,-5.3585,-5.3779,-5.4324,-5.4727,-5.3673,-5.2414,-5.1229,-5.0747,-4.9805,-4.8349,-4.8373,-4.8858,-4.9728,-4.8834,-4.894,-4.9914,-4.9702,-5.0092,-5.0768,-4.9694,-4.9386,-5.0537,-4.7821,-4.5955,-4.505,-4.3703,-4.1278,-3.8442,-3.6371,-3.5228,-3.4367,-3.2544,-2.6801,-1.7287,-0.9591,-0.1641,0.6578,1.4919,1.7886,1.7044,1.312,1.1703,1.3539,0.974,0.5717,0.4659,0.4299,1.0956,2.3308,2.556,2.7429,3.0302,2.523,1.9933,1.738,1.4738,0.581,-0.8549,-1.8113,-2.7012,-4.0444,-4.412,-4.4279,-4.2146,-4.1412,-4.0367,-4.0602,-4.2322,-4.4672,-4.7675,-5.0461,-5.3392,-5.5966,-5.7683,-5.897,-5.8791,-5.9046,-5.8906,-5.864,-5.8217,-5.7885,-5.7631,-5.7606,-5.7823,-5.8205,-5.8631,-5.9012,-5.9383,-5.945,-5.9182,-5.9993,-6.0506,-6.1559,-6.2115,-6.2478,-6.338,-6.3833,-6.3764,-6.3297,-6.3117,-6.2876,-6.1965,-6.1483,-6.145,-6.1251,-6.1119,-6.0919,-5.9024,-5.7651,-5.6774,-5.5478,-5.51,-5.5129,-5.4423,-5.4218,-5.4597,-5.4976,-5.5464,-5.5907,-5.449,-5.327,-5.2634,-5.1614,-5.0871,-5.0049,-4.9903,-5.0344,-5.0697,-5.0013,-4.985,-5.0735,-5.074,-5.1226,-5.1944,-5.1016,-5.1367,-5.2849,-4.9977,-4.7637,-4.617,-4.3663,-4.0969,-3.8868,-3.692,-3.5633,-3.507,-3.2887,-2.6811,-1.431,-0.6127,0.2019,1.0189,1.4802,1.6311,1.4968,1.2409,1.127,1.1286,0.8542,0.538,0.4664,0.5733,1.214,2.4617,2.3359,2.4168,2.5711,2.244,1.9238,1.7572,1.5578,0.5053,-0.8287,-1.8391,-2.7695,-4.1244,-4.6186,-4.623,-4.3977,-4.3045,-4.277,-4.2936,-4.4435,-4.6957,-4.9215,-5.1557,-5.3806,-5.5526,-5.7089,-5.8001,-5.838,-5.9183,-5.9378,-5.9259,-5.8866,-5.8502,-5.8217,-5.8117,-5.8275,-5.8655,-5.9047,-5.9386,-5.9683,-5.9879,-5.9679,-6.1251,-6.1368,-6.2724,-6.2876,-6.2615,-6.393,-6.4422,-6.4467,-6.4381,-6.4298,-6.4025,-6.2733,-6.2197,-6.198,-6.1384,-6.1035,-6.0666,-5.9184,-5.8529,-5.8306,-5.7081,-5.6018,-5.551,-5.5021,-5.526,-5.597,-5.6142,-5.6522,-5.6902,-5.5229,-5.4393,-5.4337,-5.2557,-5.1456,-5.1473,-5.1272,-5.1129,-5.1241,-5.06,-5.1022,-5.2149,-5.2062,-5.2218,-5.3376,-5.2588,-5.2903,-5.4102,-5.2431,-4.9863,-4.6885,-4.3331,-4.1146,-4.0348,-3.8185,-3.6956,-3.6621,-3.5092,-2.5061,-1.2775,-0.3097,0.5746,1.5323,1.679,1.5622,1.6081,1.3847,1.2027,1.222,0.9829,0.7373,0.5934,0.7717,1.6743,2.8547,2.4783,2.0829,1.9607,1.8312,1.7173,1.7156,1.4007,0.5227,-1.1065,-1.955,-3.1162,-4.2993,-4.8978,-4.9208,-4.8011,-4.6717,-4.6568,-4.6962,-4.7679,-4.9806,-5.2337,-5.403,-5.6065,-5.6638,-5.7751,-5.8226,-5.8691,-5.9416,-6.0059,-5.986,-5.9463,-5.9098,-5.8927,-5.8786,-5.874,-5.8948,-5.9215,-5.9592,-5.9748,-5.9943,-5.9791,-6.2709,-6.2794,-6.313,-6.3232,-6.3193,-6.4074,-6.4461,-6.4518,-6.4493,-6.4551,-6.4343,-6.2949,-6.2297,-6.2332,-6.1534,-6.0835,-6.0218,-5.9479,-5.916,-5.9083,-5.7721,-5.6252,-5.545,-5.5298,-5.5632,-5.6251,-5.6387,-5.6604,-5.7092,-5.6138,-5.5306,-5.4472,-5.4179,-5.3316,-5.2104,-5.2027,-5.238,-5.2694,-5.1732,-5.1904,-5.3032,-5.352,-5.3632,-5.3646,-5.4402,-5.4726,-5.4793,-5.3837,-5.1727,-4.8574,-4.5758,-4.328,-4.1612,-3.9584,-3.7662,-3.5635,-3.2223,-2.2674,-0.6842,0.1205,0.9935,2.1988,2.259,2.1097,1.8233,1.5031,1.3205,1.2217,1.014,0.8549,0.8224,1.052,1.7642,2.5535,2.6408,2.4249,2.0112,1.6609,1.4331,1.2097,0.6541,-0.4531,-1.7398,-2.7741,-3.7299,-4.848,-5.2658,-5.2701,-5.0861,-5.01,-4.9737,-5.0389,-5.1434,-5.337,-5.5386,-5.6989,-5.8071,-5.826,-5.882,-5.9134,-5.9526,-5.996,-6.0539,-6.0755,-5.9993,-5.9496,-5.9525,-5.951,-5.943,-5.9059,-5.9484,-5.9805,-5.9757,-5.9809,-5.958,-6.371,-6.3477,-6.369,-6.3615,-6.3366,-6.4113,-6.4377,-6.4504,-6.4715,-6.499,-6.4858,-6.3551,-6.2864,-6.2798,-6.1466,-6.066,-6.0281,-5.9465,-5.9379,-5.9656,-5.8494,-5.7139,-5.6065,-5.5881,-5.6088,-5.6631,-5.6658,-5.6875,-5.6984,-5.6359,-5.5734,-5.5377,-5.4844,-5.4046,-5.3342,-5.2872,-5.3085,-5.3457,-5.3021,-5.3182,-5.4026,-5.4569,-5.4704,-5.4501,-5.5287,-5.5277,-5.5254,-5.5353,-5.409,-5.1428,-4.8593,-4.5691,-4.3332,-4.0409,-3.755,-3.4538,-2.8946,-1.6362,0.1008,0.8168,1.691,2.8423,2.9729,2.4603,2.0497,1.6522,1.3865,1.2148,1.0305,0.9467,1.104,1.5768,2.1114,2.5105,2.6928,2.5612,2.0379,1.3579,0.8183,0.3179,-0.3725,-1.3854,-2.851,-3.6305,-4.5022,-5.3219,-5.6437,-5.5046,-5.3187,-5.2932,-5.2817,-5.3213,-5.3972,-5.5568,-5.6822,-5.8169,-5.9191,-5.9534,-5.9736,-6.0083,-6.0252,-6.0505,-6.072,-6.092,-6.0357,-5.996,-5.989,-5.9685,-5.9187,-5.9186,-5.9614,-5.9563,-5.9149,-5.9539,-5.9341,-6.4414,-6.3881,-6.4287,-6.4067,-6.361,-6.422,-6.4506,-6.4461,-6.516,-6.5563,-6.5387,-6.4267,-6.343,-6.343,-6.1508,-6.0544,-6.0566,-5.9286,-5.9154,-5.9152,-5.8566,-5.7485,-5.6101,-5.588,-5.6192,-5.6623,-5.6888,-5.7017,-5.6773,-5.6034,-5.6024,-5.5952,-5.4677,-5.4243,-5.4418,-5.4093,-5.3863,-5.4026,-5.4256,-5.4321,-5.4704,-5.5166,-5.5355,-5.5166,-5.5114,-5.5535,-5.6248,-5.6786,-5.6326,-5.4996,-5.0911,-4.7983,-4.5527,-4.1158,-3.6127,-3.0835,-2.2409,-0.8491,1.0091,1.6285,2.3958,3.621,3.3447,2.7419,2.2655,1.847,1.501,1.2656,1.0814,1.0675,1.215,2.079,2.2352,2.0842,1.9851,1.7714,1.6111,0.7701,-0.1302,-0.6295,-1.5406,-2.6878,-3.7112,-4.5317,-5.1204,-5.7552,-5.9301,-5.7363,-5.5917,-5.5476,-5.5278,-5.5198,-5.6169,-5.7242,-5.8279,-5.9255,-6.0054,-6.0586,-6.0553,-6.0736,-6.0736,-6.0903,-6.0969,-6.092,-6.0622,-6.0291,-5.9926,-5.9638,-5.9131,-5.8763,-5.9032,-5.8409,-5.7911,-5.8863,-5.9109,-6.548,-6.5347,-6.5216,-6.4796,-6.4387,-6.4839,-6.4872,-6.4519,-6.5367,-6.5841,-6.5674,-6.447,-6.353,-6.3,-6.1557,-6.0437,-5.9538,-5.89,-5.855,-5.7168,-5.7591,-5.6417,-5.5088,-5.4892,-5.5261,-5.5419,-5.5419,-5.6078,-5.6488,-5.5961,-5.5501,-5.5537,-5.5003,-5.4596,-5.5084,-5.4948,-5.5003,-5.5057,-5.5138,-5.5193,-5.5383,-5.5691,-5.5826,-5.5393,-5.5333,-5.587,-5.6593,-5.7328,-5.6968,-5.5189,-5.2393,-4.9374,-4.6859,-4.1308,-3.4482,-2.5898,-1.6016,-0.1502,1.5515,2.3769,3.0261,3.9519,3.5687,3.0145,2.5521,2.0666,1.6944,1.4482,1.2812,1.1563,1.139,0.925,0.981,0.865,0.0787,-0.6857,-0.8551,-1.0016,-1.4436,-2.1534,-3.0121,-3.9651,-4.8124,-5.3175,-5.8012,-6.1881,-6.1447,-5.9612,-5.8624,-5.7875,-5.7377,-5.705,-5.7996,-5.886,-5.855,-5.9414,-6.0116,-6.0754,-6.0936,-6.1119,-6.1119,-6.1119,-6.1119,-6.1086,-6.102,-6.0622,-6.0059,-5.9761,-5.9325,-5.8864,-5.8337,-5.7803,-5.77,-5.839,-5.8223,-6.6243,-6.6422,-6.5825,-6.5371,-6.5138,-6.5437,-6.5404,-6.5138,-6.5613,-6.5867,-6.5534,-6.4095,-6.3198,-6.3045,-6.1206,-5.9757,-5.9197,-5.8563,-5.7716,-5.6609,-5.6204,-5.5014,-5.3288,-5.3021,-5.3215,-5.3894,-5.4727,-5.5419,-5.5492,-5.5545,-5.5545,-5.5555,-5.4921,-5.5018,-5.5453,-5.5247,-5.5111,-5.5328,-5.5437,-5.5627,-5.6351,-5.6251,-5.5628,-5.4315,-5.3476,-5.3028,-5.4159,-5.3904,-5.3861,-5.3119,-5.1365,-4.9734,-4.7458,-4.093,-3.1941,-2.0834,-0.798,0.6388,2.1332,2.9474,3.4773,4.1082,3.5484,3.045,2.5803,2.1009,1.7112,1.4276,1.1341,0.8598,0.4254,0.245,-0.0836,-0.76,-1.5031,-2.2819,-2.6592,-2.6839,-2.819,-3.536,-4.3266,-5.0644,-5.7172,-6.0451,-6.1934,-6.4533,-6.3048,-6.1278,-6.0284,-5.953,-5.8932,-5.8852,-5.9807,-6.0175,-5.9235,-5.9432,-6.0109,-6.0539,-6.0854,-6.0986,-6.1119,-6.1119,-6.1119,-6.1086,-6.0986,-6.0523,-5.9993,-5.9761,-5.933,-5.8528,-5.794,-5.7446,-5.7171,-5.7257,-5.6675,-6.6791,-6.7,-6.6189,-6.5867,-6.5867,-6.578,-6.578,-6.578,-6.578,-6.5592,-6.5205,-6.3396,-6.2811,-6.221,-6.0454,-5.9456,-5.8728,-5.8119,-5.688,-5.5574,-5.5166,-5.3687,-5.2126,-5.1476,-5.1279,-5.2228,-5.3199,-5.3726,-5.4367,-5.4714,-5.5033,-5.5545,-5.5154,-5.5372,-5.5725,-5.5508,-5.5383,-5.5844,-5.5898,-5.6023,-5.665,-5.6133,-5.4821,-5.2253,-4.9226,-4.817,-4.8803,-4.8603,-4.8291,-4.9107,-4.8116,-4.7423,-4.4897,-3.8856,-2.8051,-1.4597,0.0213,1.5136,2.7695,3.4339,3.787,4.0471,3.4007,2.8773,2.5022,2.0687,1.6435,1.1248,0.6935,-0.0637,-0.7733,-1.2642,-1.6187,-2.2757,-2.8736,-3.5493,-4.0838,-4.2438,-4.4643,-4.7702,-5.3307,-5.9389,-6.2747,-6.5495,-6.611,-6.6043,-6.4337,-6.2883,-6.171,-6.0699,-5.9769,-5.905,-5.9588,-6.0255,-5.961,-5.951,-6.0174,-6.085,-6.1002,-6.1168,-6.1334,-6.1465,-6.1547,-6.1069,-6.0788,-6.0472,-6.0141,-5.9761,-5.9164,-5.8171,-5.7664,-5.7448,-5.6828,-5.6169,-5.5655,-6.6574,-6.6589,-6.6095,-6.5942,-6.6009,-6.5901,-6.5934,-6.5813,-6.5746,-6.5028,-6.4022,-6.3636,-6.1902,-6.0422,-6.0054,-5.8654,-5.7236,-5.6564,-5.565,-5.4279,-5.3789,-5.2756,-5.1166,-5.029,-5.0009,-4.9487,-5.0355,-5.1644,-5.3214,-5.3422,-5.4193,-5.5383,-5.5393,-5.5663,-5.6522,-5.6766,-5.6468,-5.6577,-5.6631,-5.6596,-5.6213,-5.4261,-5.1604,-4.8327,-4.4331,-4.2566,-4.1988,-4.1394,-4.0694,-4.0046,-4.1251,-4.0296,-3.6788,-3.075,-1.9998,-0.69,0.838,2.2932,3.3882,3.8244,3.9424,3.8153,3.3287,2.7824,2.4462,2.0655,1.46,0.5891,-0.3159,-1.205,-1.5583,-2.5915,-3.4191,-3.9697,-4.5543,-5.2539,-5.5108,-5.671,-5.7373,-5.8452,-6.2584,-6.505,-6.6174,-6.674,-6.612,-6.5229,-6.3596,-6.245,-6.1511,-6.0523,-5.9633,-5.8999,-5.853,-5.9276,-5.9709,-5.989,-6.0303,-6.1333,-6.1682,-6.1736,-6.1917,-6.2076,-6.1963,-6.1656,-6.1346,-6.1065,-6.0617,-6.0137,-5.9458,-5.8852,-5.8219,-5.7509,-5.6838,-5.6298,-5.6576,-6.6794,-6.7012,-6.6436,-6.6268,-6.6302,-6.6249,-6.6162,-6.5975,-6.5292,-6.4454,-6.3309,-6.1909,-6.0611,-5.9363,-5.8589,-5.7525,-5.6536,-5.4801,-5.4063,-5.3138,-5.1956,-5.1148,-4.991,-4.8988,-4.8575,-4.8072,-4.809,-4.906,-5.163,-5.2165,-5.314,-5.4493,-5.4751,-5.551,-5.6746,-5.6794,-5.6956,-5.7038,-5.6956,-5.6658,-5.5657,-5.2038,-4.6767,-4.2484,-3.8025,-3.5292,-3.4311,-3.2125,-3.1508,-3.171,-3.2071,-2.9749,-2.4855,-1.7763,-0.9941,0.0317,1.5556,2.897,3.7188,4.0054,4.0151,3.7547,3.2406,2.7616,2.3086,1.7987,0.9254,-0.332,-1.3105,-2.4214,-3.306,-4.2243,-4.8288,-5.3443,-5.87,-6.1453,-6.3166,-6.4937,-6.5261,-6.5198,-6.6079,-6.6567,-6.6365,-6.6391,-6.5624,-6.4383,-6.2911,-6.2021,-6.1317,-6.0614,-5.9779,-5.9184,-5.8685,-5.8867,-5.9622,-6.0023,-6.0595,-6.168,-6.2343,-6.2368,-6.2557,-6.2787,-6.2787,-6.26,-6.2188,-6.2256,-6.1683,-6.1467,-6.0482,-5.9488,-5.863,-5.782,-5.6963,-5.6606,-5.6847,-6.6795,-6.6997,-6.666,-6.6457,-6.6356,-6.6238,-6.6152,-6.5847,-6.4399,-6.3317,-6.249,-6.0261,-5.8969,-5.8486,-5.7527,-5.6536,-5.6045,-5.3727,-5.3097,-5.2148,-5.0765,-4.9638,-4.885,-4.7866,-4.6994,-4.7389,-4.6535,-4.6902,-4.9734,-5.0752,-5.2068,-5.3263,-5.3711,-5.4682,-5.6153,-5.6176,-5.6461,-5.6848,-5.7177,-5.7023,-5.4391,-4.7875,-4.1019,-3.6208,-3.051,-2.6958,-2.613,-2.2457,-2.1342,-2.1546,-2.0989,-1.8131,-1.1836,-0.3196,0.2821,0.7693,2.2922,3.2791,3.7977,3.9933,3.9535,3.7089,3.1686,2.7476,2.0335,1.0578,-0.3499,-1.8011,-2.7696,-3.6413,-4.6653,-5.3326,-5.8336,-6.2538,-6.4644,-6.5794,-6.6296,-6.7149,-6.7518,-6.7684,-6.8092,-6.7596,-6.6843,-6.5898,-6.5095,-6.4251,-6.2844,-6.2153,-6.1477,-6.1016,-6.0325,-5.9547,-5.9081,-5.8846,-5.9254,-5.9962,-6.0849,-6.2096,-6.2787,-6.3015,-6.3314,-6.3574,-6.3604,-6.3811,-6.4282,-6.4211,-6.3539,-6.2569,-6.1605,-6.0502,-5.9265,-5.8264,-5.742,-5.6796,-5.6673,-6.546,-6.5087,-6.6268,-6.6354,-6.5831,-6.5345,-6.5127,-6.4991,-6.3417,-6.1768,-6.0677,-5.9648,-5.8225,-5.6847,-5.6105,-5.5165,-5.442,-5.3707,-5.2595,-5.132,-5.0368,-4.9346,-4.8627,-4.8453,-4.6949,-4.6485,-4.5828,-4.7318,-4.8568,-4.8982,-5.0245,-5.1655,-5.2261,-5.3222,-5.518,-5.5339,-5.5894,-5.7017,-5.8088,-5.6843,-5.2348,-4.4783,-3.8855,-3.2654,-2.6163,-2.0244,-1.8101,-1.3625,-1.0806,-1.0383,-0.9805,-0.6292,0.0315,1.0084,1.5516,1.9988,2.6733,3.4147,3.7806,3.9086,3.8773,3.6189,3.1654,2.7591,1.6372,-0.1214,-2.0059,-3.7737,-4.4071,-4.9235,-5.622,-6.1965,-6.5622,-6.6613,-6.731,-6.7494,-6.8051,-6.7626,-6.8078,-6.7782,-6.7561,-6.7104,-6.6515,-6.551,-6.453,-6.3754,-6.2964,-6.2199,-6.1564,-6.1041,-6.0512,-5.9714,-5.9353,-5.9179,-5.975,-6.033,-6.1414,-6.2716,-6.341,-6.3854,-6.4282,-6.4707,-6.4987,-6.5303,-6.5825,-6.5721,-6.4741,-6.3747,-6.2678,-6.1647,-6.0622,-5.9309,-5.7997,-5.7409,-5.703,-6.5082,-6.5765,-6.6316,-6.642,-6.6144,-6.5474,-6.5267,-6.483,-6.267,-6.0903,-5.9697,-5.8436,-5.6979,-5.5713,-5.5508,-5.5468,-5.4637,-5.3376,-5.2334,-5.1012,-4.9907,-4.8658,-4.7676,-4.6522,-4.5382,-4.5696,-4.455,-4.4273,-4.5866,-4.6591,-4.7258,-4.9557,-5.0431,-5.1845,-5.3645,-5.4388,-5.5294,-5.6211,-5.6798,-5.5313,-5.0764,-4.5138,-3.8733,-3.1754,-2.37,-1.7667,-1.1705,-0.5287,-0.2057,-0.1109,0.0721,0.6156,1.243,1.9402,2.4331,2.7831,3.2273,3.6039,3.7364,3.8441,3.7953,3.5743,3.0631,2.2421,0.6949,-1.2414,-3.152,-4.6516,-5.2584,-5.779,-6.2329,-6.648,-6.8163,-6.9016,-6.8747,-6.8959,-6.8926,-6.8062,-6.7851,-6.7358,-6.6938,-6.6457,-6.5888,-6.4892,-6.3691,-6.239,-6.1854,-6.1422,-6.1087,-6.0812,-6.0262,-5.9714,-5.949,-5.9461,-6.0358,-6.1151,-6.2369,-6.3624,-6.4882,-6.5303,-6.5583,-6.5897,-6.6179,-6.6461,-6.688,-6.6461,-6.5759,-6.5126,-6.4422,-6.3289,-6.2152,-6.0757,-5.9466,-5.8548,-5.843,-6.4977,-6.6206,-6.5861,-6.575,-6.5685,-6.5091,-6.4707,-6.4218,-6.1559,-5.9879,-5.8922,-5.7417,-5.6083,-5.5536,-5.562,-5.5594,-5.5436,-5.3068,-5.2129,-5.112,-4.9806,-4.8425,-4.7653,-4.5932,-4.5317,-4.5434,-4.3841,-4.3043,-4.2698,-4.3215,-4.4159,-4.723,-4.8271,-4.98,-5.1537,-5.2425,-5.3162,-5.5553,-5.5632,-5.4336,-5.1558,-4.7729,-4.0983,-3.3157,-2.4419,-1.6102,-0.8515,0.0379,0.47,0.7824,1.2327,1.8061,2.4546,2.8369,3.2007,3.4811,3.7785,3.7383,3.7496,3.7551,3.7613,3.3856,2.3897,0.9808,-0.6655,-2.4226,-3.9091,-5.3783,-5.858,-6.3165,-6.69,-6.9401,-7.0137,-7.0401,-7.0156,-7.0342,-7.0122,-6.8846,-6.78,-6.738,-6.6753,-6.5693,-6.5073,-6.4147,-6.2888,-6.1283,-6.0671,-6.0583,-6.0547,-6.0547,-6.0325,-5.9879,-5.9902,-6.001,-6.0839,-6.1915,-6.3199,-6.4388,-6.5646,-6.6385,-6.6458,-6.6811,-6.7129,-6.7481,-6.7798,-6.7974,-6.7623,-6.6919,-6.611,-6.4776,-6.3432,-6.2275,-6.1153,-6.019,-5.999,-6.4822,-6.5347,-6.4478,-6.3904,-6.3449,-6.331,-6.2821,-6.2088,-5.9822,-5.874,-5.8196,-5.667,-5.6176,-5.6364,-5.599,-5.5663,-5.5126,-5.4394,-5.3111,-5.1696,-5.0198,-4.9297,-4.8418,-4.7467,-4.6359,-4.4763,-4.3491,-4.2136,-4.0704,-4.0464,-4.2209,-4.5005,-4.5497,-4.7029,-4.8244,-4.8847,-5.0243,-5.2425,-5.3057,-5.3928,-5.2671,-4.9821,-4.4637,-3.7124,-2.7119,-1.672,-0.7596,0.5559,1.3999,1.7724,2.3347,2.8445,3.3984,3.631,3.8935,4.0236,3.9397,3.8441,3.7558,3.6895,3.5845,2.838,1.477,-0.2531,-1.5697,-4.5596,-5.9757,-5.9348,-6.3495,-6.6962,-6.9706,-7.1409,-7.1762,-7.1773,-7.1439,-7.0913,-7.0352,-6.895,-6.8034,-6.7465,-6.6802,-6.6125,-6.5668,-6.5077,-6.361,-6.2057,-6.0803,-6.0713,-6.0396,-6.036,-6.0423,-6.0276,-6.0381,-6.0662,-6.134,-6.2385,-6.3445,-6.453,-6.5721,-6.6495,-6.6989,-6.7482,-6.8082,-6.8329,-6.8611,-6.9071,-6.9283,-6.8329,-6.72,-6.59,-6.4702,-6.3767,-6.2872,-6.1963,-6.2066,-6.3643,-6.2925,-6.2745,-6.2963,-6.3287,-6.2495,-6.1548,-6.0556,-5.9304,-5.8379,-5.7731,-5.6647,-5.622,-5.6434,-5.7055,-5.6716,-5.6161,-5.6181,-5.4754,-5.3329,-5.1987,-5.0538,-4.9251,-4.7645,-4.6102,-4.4933,-4.382,-4.2739,-4.1549,-3.9701,-3.9931,-4.1567,-4.1798,-4.286,-4.3778,-4.4447,-4.5602,-4.644,-4.8658,-5.0411,-4.9857,-5.0239,-4.5525,-3.5048,-2.1055,-0.7494,0.5736,2.0209,2.7197,3.1335,3.5332,3.8889,4.1065,4.2304,4.2819,4.2909,4.0611,3.8632,3.7722,3.6605,3.423,2.325,0.8069,-0.9036,-2.3174,-4.7654,-5.9937,-6.3338,-6.6735,-6.9292,-7.1109,-7.228,-7.2904,-7.297,-7.257,-7.175,-7.0696,-6.9295,-6.8814,-6.8506,-6.7888,-6.7185,-6.6875,-6.6462,-6.473,-6.2963,-6.1805,-6.0867,-6.0592,-6.0452,-6.0586,-6.0861,-6.1033,-6.1355,-6.2068,-6.288,-6.3727,-6.4707,-6.5829,-6.6391,-6.7093,-6.8397,-6.8924,-6.9102,-6.9069,-6.9175,-6.9211,-6.9141,-6.8399,-6.7306,-6.6426,-6.5607,-6.4649,-6.3746,-6.4346,-6.2693,-6.1597,-6.1642,-6.1922,-6.2202,-6.1279,-6.0346,-5.9442,-5.8774,-5.7876,-5.6977,-5.6165,-5.6059,-5.6433,-5.6861,-5.7579,-5.7228,-5.7118,-5.6148,-5.4762,-5.327,-5.1513,-4.9638,-4.7901,-4.6446,-4.5353,-4.3627,-4.2342,-4.119,-3.964,-3.8359,-3.7612,-3.7031,-3.7638,-3.9277,-3.9228,-3.8848,-3.9032,-4.0868,-4.2743,-4.1597,-3.9902,-3.6074,-2.4011,-1.0308,0.196,1.48,2.6798,3.4821,3.8731,4.2424,4.5309,4.589,4.5568,4.4718,4.268,3.9818,3.7414,3.8117,3.6032,3.127,2.0235,0.2459,-1.5527,-3.2753,-4.8642,-6.1389,-6.5433,-6.8032,-6.986,-7.1503,-7.2582,-7.3185,-7.3132,-7.2581,-7.1861,-7.1073,-6.9985,-6.9852,-6.9694,-6.9113,-6.8803,-6.8505,-6.8053,-6.5934,-6.4064,-6.2393,-6.1647,-6.1436,-6.1295,-6.1225,-6.1506,-6.1827,-6.2182,-6.2705,-6.348,-6.4217,-6.4848,-6.5794,-6.6171,-6.7008,-6.8204,-6.8693,-6.8269,-6.8309,-6.8919,-6.896,-6.8787,-6.8859,-6.8856,-6.8046,-6.726,-6.6781,-6.6131,-6.6736,-6.2151,-6.1766,-6.1241,-6.0572,-6.0071,-5.9475,-5.9,-5.8391,-5.7921,-5.7178,-5.6183,-5.5362,-5.5771,-5.6603,-5.6789,-5.7255,-5.7994,-5.784,-5.691,-5.5418,-5.4505,-5.2507,-5.0419,-4.8498,-4.6681,-4.4934,-4.3096,-4.1386,-3.9664,-3.7491,-3.5521,-3.2363,-3.0825,-3.0831,-3.439,-3.1975,-3.0552,-3.0648,-3.1578,-3.0325,-2.7722,-2.4073,-1.8218,-0.8606,0.2707,1.4295,2.416,3.3351,4.0359,4.3114,4.6801,4.8471,4.7688,4.6137,4.483,4.3081,3.552,3.439,3.8498,3.4023,2.2889,1.0876,-0.8749,-2.4375,-3.8725,-5.2914,-6.3496,-6.5809,-6.7714,-6.9428,-7.102,-7.2431,-7.281,-7.3148,-7.2624,-7.1971,-7.1213,-7.0612,-7.0437,-7.0772,-7.0883,-7.0745,-7.0381,-6.9518,-6.7312,-6.5267,-6.3326,-6.2424,-6.2213,-6.2108,-6.2038,-6.2003,-6.2319,-6.2775,-6.3267,-6.4074,-6.4777,-6.5268,-6.5543,-6.5812,-6.6145,-6.6948,-6.7184,-6.7065,-6.7405,-6.7815,-6.8071,-6.8361,-6.8575,-6.8823,-6.9388,-6.8947,-6.8527,-6.8441,-6.8967,-6.1919,-6.1236,-6.0754,-6.0273,-5.9771,-5.9597,-5.8625,-5.7253,-5.7109,-5.7087,-5.7141,-5.6886,-5.6982,-5.7514,-5.7834,-5.803,-5.8183,-5.9404,-5.8436,-5.6444,-5.569,-5.3745,-5.1357,-4.8899,-4.6796,-4.4188,-4.2201,-3.9411,-3.6824,-3.4462,-3.1724,-2.853,-2.2604,-2.2009,-2.4009,-2.2748,-2.0171,-1.7656,-1.7039,-1.5858,-1.2527,-0.9717,-0.4146,0.5557,1.6524,2.5882,3.3657,4.1481,4.5736,4.7636,5.1145,5.0948,4.934,4.7466,4.4425,3.7768,2.7744,1.1736,0.6381,-0.191,-0.5935,-1.3995,-2.0738,-3.4234,-4.7387,-5.6972,-6.2753,-6.5022,-6.7043,-6.886,-7.0909,-7.1501,-7.2067,-7.308,-7.2849,-7.2151,-7.1426,-7.1003,-7.0809,-7.1626,-7.2035,-7.2448,-7.2395,-7.1537,-6.9433,-6.7758,-6.6005,-6.3828,-6.3091,-6.3056,-6.2986,-6.267,-6.2775,-6.3267,-6.3828,-6.4532,-6.4847,-6.5128,-6.5088,-6.4996,-6.54,-6.5645,-6.547,-6.5221,-6.5963,-6.6566,-6.6711,-6.7069,-6.8064,-6.8667,-6.9332,-7.0117,-7.0097,-7.0217,-7.0721,-6.1265,-6.0577,-6.0453,-6.0413,-6.0273,-5.9578,-5.8355,-5.7199,-5.6915,-5.7049,-5.7009,-5.6768,-5.7043,-5.7628,-5.8208,-5.9035,-5.8773,-5.935,-5.9106,-5.7033,-5.6196,-5.4107,-5.1476,-4.8415,-4.4998,-4.2311,-3.9028,-3.5983,-3.2462,-3.0113,-2.564,-1.9428,-1.3073,-1.0473,-1.1036,-0.9585,-0.8473,-0.594,-0.4574,-0.109,0.3719,0.8639,1.4178,2.2463,3.0768,3.8332,4.3415,4.8122,5.1758,5.2184,5.2438,5.2468,5.0413,4.7428,4.2672,3.1621,1.6081,-0.4056,-2.0185,-2.294,-2.7809,-3.9907,-3.9125,-4.2952,-5.2793,-5.9781,-6.223,-6.4302,-6.6345,-6.8242,-7.0034,-7.0531,-7.177,-7.2788,-7.2402,-7.1636,-7.1368,-7.0877,-7.1316,-7.2183,-7.3252,-7.3765,-7.4024,-7.316,-7.177,-7.0344,-6.8849,-6.6602,-6.453,-6.4636,-6.4636,-6.425,-6.4179,-6.4776,-6.4953,-6.5058,-6.5163,-6.5023,-6.452,-6.4016,-6.3791,-6.3822,-6.3646,-6.3549,-6.4153,-6.4698,-6.5104,-6.5714,-6.6945,-6.8327,-6.9454,-7.0329,-7.1321,-7.1587,-7.1656,-6.0261,-5.9971,-6.0414,-6.1017,-6.1235,-6.0089,-5.9071,-5.8602,-5.7577,-5.6796,-5.6054,-5.5147,-5.5719,-5.7105,-5.7315,-5.8119,-5.9036,-5.8815,-5.7835,-5.6777,-5.5722,-5.3518,-5.0597,-4.686,-4.31,-3.9019,-3.5018,-3.1078,-2.7212,-2.2357,-1.6518,-0.9752,-0.3182,0.0564,0.2451,0.4346,0.4151,0.5421,0.837,1.2759,1.8399,2.774,3.2323,3.8391,4.3314,4.492,4.629,4.5821,4.633,4.7212,4.8778,5.0259,4.9486,4.6494,3.7128,2.2268,0.389,-1.9386,-4.015,-4.1422,-4.6448,-5.6226,-5.1452,-5.3461,-5.6935,-6.1919,-6.3252,-6.4653,-6.6478,-6.7725,-6.8982,-7.0257,-7.1541,-7.1615,-7.1391,-7.1035,-7.0934,-7.1128,-7.1745,-7.2669,-7.3942,-7.4617,-7.476,-7.4194,-7.3291,-7.2084,-7.071,-6.9762,-6.8006,-6.7445,-6.7234,-6.6426,-6.6426,-6.6637,-6.6531,-6.5969,-6.5229,-6.5018,-6.3418,-6.2729,-6.2446,-6.2266,-6.2127,-6.2193,-6.2416,-6.2881,-6.3795,-6.4884,-6.6113,-6.7414,-6.8754,-7.0153,-7.1017,-7.1559,-7.171,-5.996,-6.0648,-6.0812,-6.1881,-6.3484,-6.4053,-6.3285,-6.146,-5.986,-5.8589,-5.742,-5.6566,-5.6315,-5.7126,-5.7588,-5.7492,-5.727,-5.6842,-5.5968,-5.5219,-5.4439,-5.2882,-5.0028,-4.6037,-4.1236,-3.6062,-3.1158,-2.5737,-1.8976,-1.372,-0.7269,0.0,0.5797,1.0554,1.4604,1.8715,1.6883,1.6785,1.9763,2.5167,3.1103,3.8548,4.3479,4.7159,4.7316,4.7253,4.5191,4.1141,4.1323,4.408,4.5281,4.6137,4.4744,3.9589,2.8593,-0.8222,-2.4442,-3.967,-5.9307,-6.2574,-6.3367,-6.712,-6.3334,-6.3165,-6.476,-6.5047,-6.5413,-6.631,-6.7126,-6.8399,-6.916,-7.0192,-7.1324,-7.1562,-7.1342,-7.128,-7.1235,-7.1635,-7.2267,-7.3259,-7.4564,-7.5055,-7.5261,-7.5114,-7.4225,-7.3275,-7.2465,-7.1833,-7.1026,-7.0323,-6.9411,-6.8568,-6.8041,-6.8041,-6.7302,-6.667,-6.5712,-6.4744,-6.3317,-6.1916,-6.1447,-6.1218,-6.0857,-6.0899,-6.1229,-6.2015,-6.2894,-6.3981,-6.521,-6.6497,-6.7867,-6.9286,-7.0567,-7.111,-7.1484,-5.9889,-6.1127,-6.1431,-6.2934,-6.5319,-6.6832,-6.6134,-6.374,-6.1277,-5.9399,-5.8012,-5.6163,-5.6093,-5.7098,-5.6924,-5.6401,-5.5865,-5.5773,-5.4892,-5.3446,-5.2653,-5.1179,-4.8533,-4.3883,-3.8122,-3.2624,-2.64,-2.0229,-1.2704,-0.4684,0.2192,0.7827,1.3929,1.8054,2.2182,2.6306,2.7989,2.8195,3.0328,3.5593,4.0288,4.4747,4.833,4.9144,4.7637,4.5112,4.1848,3.6599,3.2798,3.2219,3.1116,3.0936,2.7664,2.1417,0.813,-2.4302,-3.8357,-5.1424,-6.6368,-7.0085,-7.1027,-7.1577,-7.1123,-7.0556,-6.9491,-6.9185,-6.8577,-6.8463,-6.8717,-6.9141,-6.9618,-7.0093,-7.1028,-7.1815,-7.1818,-7.1755,-7.1929,-7.2199,-7.3035,-7.3968,-7.4733,-7.5277,-7.5466,-7.5442,-7.5324,-7.4463,-7.4291,-7.4326,-7.3308,-7.2219,-7.1201,-7.0183,-6.9551,-6.913,-6.8211,-6.7183,-6.6208,-6.5069,-6.3694,-6.2429,-6.1229,-6.0296,-6.0073,-6.0011,-6.0227,-6.1133,-6.2191,-6.3045,-6.4211,-6.5643,-6.7122,-6.8344,-6.9625,-7.0388,-7.0737,-5.9923,-6.1534,-6.2284,-6.424,-6.6812,-6.8171,-6.7575,-6.5484,-6.2174,-5.9738,-5.7934,-5.4898,-5.5101,-5.6466,-5.5694,-5.4875,-5.4118,-5.3748,-5.2268,-5.111,-4.9666,-4.8055,-4.4603,-3.9979,-3.3886,-2.7841,-2.1446,-1.4623,-0.7937,0.0352,0.8769,1.4857,1.9697,2.4124,2.8665,3.3305,3.5508,3.7005,3.8899,4.257,4.5502,4.9076,5.0809,4.8682,4.524,4.1126,3.5629,2.7245,1.6522,1.1444,0.8278,0.8982,0.473,-0.3356,-1.9097,-3.0937,-4.5805,-5.7037,-6.6692,-7.0381,-7.1914,-7.2437,-7.2943,-7.3302,-7.2761,-7.1659,-7.0613,-7.0609,-7.0949,-7.08,-7.1146,-7.1583,-7.2267,-7.2717,-7.2771,-7.2647,-7.2541,-7.286,-7.3452,-7.426,-7.473,-7.5253,-7.5404,-7.5403,-7.5818,-7.5415,-7.5618,-7.6006,-7.5494,-7.4194,-7.2816,-7.1581,-7.0739,-6.9928,-6.867,-6.7627,-6.6632,-6.5501,-6.39,-6.231,-6.0628,-5.9886,-5.9284,-5.9669,-6.0152,-6.0706,-6.1631,-6.2643,-6.3947,-6.5596,-6.6867,-6.7585,-6.8558,-6.9368,-6.9429,-5.9664,-6.1708,-6.4105,-6.5886,-6.7114,-6.8365,-6.7704,-6.5679,-6.3624,-6.1166,-5.8684,-5.6663,-5.5466,-5.5668,-5.4287,-5.3015,-5.1468,-5.0762,-4.8416,-4.6406,-4.5119,-4.3402,-4.0225,-3.5166,-2.9302,-2.343,-1.6656,-0.8769,-0.0341,0.7803,1.5089,2.1302,2.5832,3.0175,3.421,3.8714,4.1785,4.3456,4.601,4.6813,4.7543,4.8172,4.8715,4.5156,4.1089,3.0825,2.2854,1.1083,0.2461,-0.3823,-0.8972,-1.1076,-1.3117,-2.4101,-3.267,-4.1158,-5.1597,-6.0348,-6.6029,-6.9957,-7.2049,-7.3324,-7.4068,-7.4676,-7.45,-7.3284,-7.2782,-7.3029,-7.3086,-7.2814,-7.2645,-7.3045,-7.3397,-7.3676,-7.3841,-7.3506,-7.3183,-7.3367,-7.3797,-7.4225,-7.4619,-7.4941,-7.5153,-7.5683,-7.6021,-7.6335,-7.6778,-7.6985,-7.6684,-7.567,-7.3966,-7.2731,-7.1757,-7.0686,-6.9263,-6.7591,-6.6255,-6.474,-6.3069,-6.1502,-6.0198,-5.9866,-5.9649,-5.9906,-6.034,-6.0927,-6.1759,-6.2766,-6.4087,-6.564,-6.6743,-6.7489,-6.7556,-6.8109,-6.785,-5.92,-6.1441,-6.4377,-6.61,-6.6938,-6.7757,-6.7243,-6.592,-6.4562,-6.2604,-6.0093,-5.7693,-5.5938,-5.476,-5.2966,-5.08,-4.8906,-4.7972,-4.5667,-4.3153,-4.0119,-3.8147,-3.4612,-3.0909,-2.6116,-2.0285,-1.1685,-0.2836,0.6563,1.2552,1.8643,2.52,3.0418,3.4758,3.8494,4.2914,4.6229,4.8075,5.0642,4.9826,4.7905,4.7695,4.6154,4.2307,3.1861,2.0281,0.6133,-0.6548,-2.0533,-2.852,-3.5337,-3.5586,-3.719,-4.147,-4.5675,-5.0353,-5.672,-6.2778,-6.6823,-7.0073,-7.276,-7.4154,-7.5076,-7.5606,-7.6076,-7.503,-7.4732,-7.4934,-7.5141,-7.5,-7.4251,-7.4359,-7.4749,-7.4982,-7.495,-7.4647,-7.3616,-7.2894,-7.311,-7.3354,-7.3854,-7.4315,-7.5023,-7.6934,-7.7382,-7.8538,-7.8802,-7.8981,-7.8555,-7.6992,-7.5274,-7.3322,-7.1942,-7.0603,-6.8842,-6.706,-6.5346,-6.3797,-6.2326,-6.145,-6.0617,-6.0304,-6.0156,-6.0076,-6.0355,-6.1233,-6.2056,-6.284,-6.4011,-6.5453,-6.6548,-6.7487,-6.7296,-6.6842,-6.629,-5.8896,-6.1154,-6.3889,-6.5579,-6.6565,-6.6976,-6.6722,-6.5992,-6.5004,-6.3501,-6.1447,-5.8546,-5.6154,-5.4185,-5.1873,-4.9191,-4.7268,-4.6154,-4.3631,-3.9821,-3.6286,-3.3992,-3.1153,-2.7539,-2.1688,-1.42,-0.5506,0.2597,1.112,1.67,2.2414,2.8025,3.2802,3.7266,4.1335,4.4605,4.7782,4.9288,5.0186,4.8811,4.7642,4.6058,4.2163,3.4103,2.0814,0.5112,-0.9921,-2.6084,-4.424,-5.2944,-5.8053,-5.7084,-5.5655,-5.6251,-5.5845,-5.9135,-6.0948,-6.5636,-6.9039,-7.1596,-7.3779,-7.5299,-7.5934,-7.6239,-7.6599,-7.67,-7.6397,-7.6484,-7.6696,-7.6699,-7.5969,-7.5779,-7.6148,-7.5971,-7.5807,-7.5325,-7.3831,-7.2559,-7.2654,-7.2858,-7.3238,-7.3737,-7.5168,-7.7121,-7.8615,-7.9844,-8.0825,-8.122,-8.078,-7.8441,-7.6332,-7.3517,-7.1148,-6.9696,-6.7992,-6.6153,-6.4223,-6.3204,-6.1939,-6.1491,-6.0783,-6.0018,-5.9563,-5.9739,-6.0284,-6.0546,-6.1589,-6.2421,-6.3764,-6.5031,-6.6007,-6.6744,-6.6485,-6.59,-6.4668,-5.9295,-6.2116,-6.3796,-6.5367,-6.6717,-6.7008,-6.6451,-6.5419,-6.4803,-6.3261,-6.1159,-5.9876,-5.8109,-5.5925,-5.2657,-4.9492,-4.5856,-4.4501,-4.0903,-3.6938,-3.3225,-3.0186,-2.6475,-2.1789,-1.4995,-0.6691,0.1914,0.9972,1.6862,2.2234,2.81,3.5085,3.8554,4.2688,4.6869,4.9477,5.0811,5.1177,4.8409,4.6448,4.5949,4.2404,3.48,2.182,0.3562,-1.2904,-2.8753,-4.3708,-5.7254,-6.7039,-7.2087,-7.1102,-6.9127,-6.6758,-6.5232,-6.4179,-6.6061,-6.8009,-7.089,-7.2812,-7.4629,-7.6052,-7.6264,-7.5655,-7.6135,-7.6883,-7.6789,-7.6974,-7.7266,-7.7719,-7.7367,-7.7533,-7.7701,-7.6654,-7.6117,-7.4863,-7.3505,-7.2841,-7.2606,-7.2844,-7.3151,-7.3817,-7.4577,-7.634,-7.7785,-7.9164,-8.0838,-8.1199,-8.1086,-7.9227,-7.7398,-7.4059,-7.0812,-6.7922,-6.5837,-6.454,-6.2919,-6.2134,-6.1478,-6.1058,-6.0266,-5.9033,-5.876,-5.9377,-5.9002,-5.8927,-6.0081,-6.1779,-6.2829,-6.4087,-6.5198,-6.5943,-6.5632,-6.5124,-6.3994]},{"header":{"parameterUnit":"m.s-1","parameterCategory":1,"la1":31.0,"la2":29.5877,"lo1":-88.7671,"lo2":-86.6584,"dy":0.0162,"dx":0.0185,"nx":115,"ny":88,"refTime":"2023-04-26T12:00:00:Z","depth":0,"parameterNumber":3,"parameterNumberName":"V-component_of_WINDS"},"data":[0.0,0.0,0.0,0.0,0.0,0.0,0.0,0.0,0.0,0.0,0.0,0.0,0.0,0.0,0.0,0.0,0.0,0.0,0.0,0.0,0.0,0.0,0.0,0.0,0.0,0.0,0.0,0.0,0.0,0.0,0.0,0.0,0.0,0.0,0.0,0.0,0.0,0.0,0.0,0.0,0.0,0.0,0.0,0.0,0.0,0.0,0.0,0.0,0.0,0.0,0.0,0.0,0.0,0.0,0.0,0.0,0.0,0.0,0.0,0.0,0.0,0.0,0.0,0.0,0.0,0.0,0.0,0.0,0.0,0.0,0.0,0.0,0.0,0.0,0.0,0.0,0.0,0.0,0.0,0.0,0.0,0.0,0.0,0.0,0.0,0.0,0.0,0.0,0.0,0.0,0.0,0.0,0.0,0.0,0.0,0.0,0.0,0.0,0.0,0.0,0.0,0.0,0.0,0.0,0.0,0.0,0.0,0.0,0.0,0.0,0.0,0.0,0.0,0.0,0.0,0.0,0.0,0.0,0.0,0.0,0.0,0.0,0.0,0.0,0.0,0.0,0.0,0.0,0.0,0.0,0.0,0.0,0.0,0.0,0.0,0.0,0.0,0.0,0.0,0.0,0.0,0.0,0.0,0.0,0.0,0.0,0.0,0.0,0.0,0.0,0.0,0.0,0.0,0.0,0.0,0.0,0.0,0.0,0.0,0.0,0.0,0.0,0.0,0.0,0.0,0.0,0.0,0.0,0.0,0.0,0.0,0.0,0.0,0.0,0.0,0.0,0.0,0.0,0.0,0.0,0.0,0.0,0.0,0.0,0.0,0.0,0.0,0.0,0.0,0.0,0.0,0.0,0.0,0.0,0.0,0.0,0.0,0.0,0.0,0.0,0.0,0.0,0.0,0.0,0.0,0.0,0.0,0.0,0.0,0.0,0.0,0.0,0.0,0.0,0.0,0.0,0.0,0.0,0.0,0.0,0.0,0.0,0.0,0.0,0.0,0.0,0.0,0.0,0.0,0.0,0.0,0.0,0.0,0.0,0.0,0.0,0.0,0.0,0.0,0.0,0.0,0.0,0.0,0.0,0.0,0.0,0.0,0.0,0.0,0.0,0.0,0.0,0.0,0.0,0.0,0.0,0.0,0.0,0.0,0.0,0.0,0.0,0.0,0.0,0.0,0.0,0.0,0.0,0.0,0.0,0.0,0.0,0.0,0.0,0.0,0.0,0.0,0.0,0.0,0.0,0.0,0.0,0.0,0.0,0.0,0.0,0.0,0.0,0.0,0.0,0.0,0.0,0.0,0.0,0.0,0.0,0.0,0.0,0.0,0.0,0.0,0.0,0.0,0.0,0.0,0.0,0.0,0.0,0.0,0.0,0.0,0.0,0.0,0.0,0.0,0.0,0.0,0.0,0.0,0.0,0.0,0.0,0.0,0.0,0.0,0.0,0.0,0.0,0.0,0.0,0.0,0.0,0.0,0.0,0.0,0.0,0.0,0.0,0.0,0.0,0.0,0.0,0.0,0.0,0.0,0.0,0.0,0.0,0.0,0.0,0.0,0.0,0.0,0.0,0.0,0.0,0.0,0.0,0.0,0.0,0.0,0.0,0.0,0.0,0.0,0.0,0.0,0.0,0.0,0.0,0.0,0.0,0.0,0.0,0.0,0.0,0.0,0.0,0.0,0.0,0.0,0.0,0.0,0.0,0.0,0.0,0.0,0.0,0.0,0.0,0.0,0.0,0.0,0.0,0.0,0.0,0.0,0.0,0.0,0.0,0.0,0.0,0.0,0.0,0.0,0.0,0.0,0.0,0.0,0.0,0.0,0.0,0.0,0.0,0.0,0.0,0.0,0.0,0.0,0.0,0.0,0.0,0.0,0.0,0.0,0.0,0.0,0.0,0.0,0.0,0.0,0.0,0.0,0.0,0.0,0.0,0.0,0.0,0.0,0.0,0.0,0.0,0.0,0.0,0.0,0.0,0.0,0.0,0.0,0.0,0.0,0.0,0.0,0.0,0.0,0.0,0.0,0.0,0.0,0.0,0.0,0.0,0.0,0.0,0.0,0.0,0.0,0.0,0.0,0.0,0.0,0.0,0.0,0.0,0.0,0.0,0.0,0.0,0.0,0.0,0.0,0.0,0.0,0.0,0.0,0.0,0.0,0.0,0.0,0.0,0.0,0.0,0.0,0.0,0.0,0.0,0.0,0.0,0.0,0.0,0.0,0.0,0.0,0.0,0.0,0.0,0.0,0.0,0.0,0.0,0.0,0.0,0.0,0.0,0.0,0.0,0.0,0.0,0.0,0.0,0.0,0.0,0.0,0.0,0.0,0.0,0.0,0.0,0.0,0.0,0.0,0.0,0.0,0.0,0.0,0.0,0.0,0.0,0.0,0.0,0.0,0.0,0.0,0.0,0.0,0.0,0.0,0.0,0.0,0.0,0.0,0.0,0.0,0.0,0.0,0.0,0.0,0.0,0.0,0.0,0.0,0.0,0.0,0.0,0.0,0.0,0.0,0.0,0.0,0.0,0.0,0.0,0.0,0.0,0.0,0.0,0.0,0.0,0.0,0.0,0.0,0.0,0.0,0.0,0.0,0.0,0.0,0.0,0.0,0.0,0.0,0.0,0.0,0.0,0.0,0.0,0.0,0.0,0.0,0.0,0.0,0.0,0.0,0.0,0.0,0.0,0.0,0.0,0.0,0.0,0.0,0.0,0.0,0.0,0.0,0.0,0.0,0.0,0.0,0.0,0.0,0.0,0.0,0.0,0.0,0.0,0.0,0.0,0.0,0.0,0.0,0.0,0.0,0.0,0.0,0.0,0.0,0.0,0.0,0.0,0.0,0.0,0.0,0.0,0.0,0.0,0.0,0.0,0.0,0.0,0.0,0.0,0.0,0.0,0.0,0.0,0.0,0.0,0.0,0.0,0.0,0.0,0.0,0.0,0.0,0.0,0.0,0.0,0.0,0.0,0.0,0.0,0.0,0.0,0.0,0.0,0.0,0.0,0.0,0.0,0.0,0.0,0.0,0.0,0.0,0.0,0.0,0.0,0.0,0.0,0.0,0.0,0.0,0.0,0.0,0.0,0.0,0.0,0.0,0.0,0.0,0.0,0.0,0.0,0.0,0.0,0.0,0.0,0.0,0.0,0.0,0.0,0.0,0.0,0.0,0.0,0.0,0.0,0.0,0.0,0.0,0.0,0.0,0.0,0.0,0.0,0.0,0.0,0.0,0.0,0.0,0.0,0.0,0.0,0.0,0.0,0.0,0.0,0.0,0.0,0.0,0.0,0.0,0.0,0.0,0.0,0.0,0.0,0.0,0.0,0.0,0.0,0.0,0.0,0.0,0.0,0.0,0.0,0.0,0.0,0.0,0.0,0.0,0.0,0.0,0.0,0.0,0.0,0.0,0.0,0.0,0.0,0.0,0.0,0.0,0.0,0.0,0.0,0.0,0.0,0.0,0.0,0.0,0.0,0.0,0.0,0.0,0.0,0.0,0.0,0.0,0.0,0.0,0.0,0.0,0.0,0.0,0.0,0.0,0.0,0.0,0.0,0.0,0.0,0.0,0.0,0.0,0.0,0.0,0.0,0.0,0.0,0.0,0.0,0.0,0.0,0.0,0.0,0.0,0.0,0.0,0.0,0.0,0.0,0.0,0.0,0.0,0.0,0.0,0.0,0.0,0.0,0.0,0.0,0.0,0.0,0.0,0.0,0.0,0.0,0.0,0.0,0.0,0.0,0.0,0.0,0.0,0.0,0.0,0.0,0.0,0.0,0.0,0.0,0.0,0.0,0.0,0.0,0.0,0.0,0.0,0.0,0.0,0.0,0.0,0.0,0.0,0.0,0.0,0.0,0.0,0.0,0.0,0.0,0.0,0.0,0.0,0.0,0.0,0.0,0.0,0.0,0.0,0.0,0.0,0.0,0.0,0.0,0.0,0.0,0.0,0.0,0.0,0.0,0.0,0.0,0.0,0.0,0.0,0.0,0.0,0.0,0.0,0.0,0.0,0.0,0.0,0.0,0.0,0.0,0.0,0.0,0.0,0.0,0.0,0.0,0.0,0.0,0.0,0.0,0.0,0.0,0.0,0.0,0.0,0.0,0.0,0.0,0.0,0.0,0.0,0.0,0.0,0.0,0.0,0.0,0.0,0.0,0.0,0.0,0.0,0.0,0.0,0.0,0.0,0.0,0.0,0.0,0.0,0.0,0.0,0.0,0.0,0.0,0.0,0.0,0.0,0.0,0.0,0.0,0.0,0.0,1.0393,0.0,0.0,0.0,1.7091,0.0,0.0,0.0,0.0,0.0,0.0,0.0,0.0,0.0,0.0,0.0,0.0,0.0,0.0,0.0,0.0,0.0,0.0,0.0,0.0,0.0,0.0,0.0,0.0,0.0,0.0,0.0,0.0,0.0,0.0,0.0,0.0,0.0,0.0,0.0,0.0,0.0,0.0,0.0,0.0,0.0,0.0,0.0,0.0,0.0,0.0,0.0,0.0,0.0,0.0,0.0,0.0,0.0,0.0,0.0,0.0,0.0,0.0,0.0,0.0,0.0,0.0,0.0,0.0,0.0,0.0,0.0,0.0,0.0,0.0,0.0,0.0,0.0,0.0,0.0,0.0,0.0,0.0,0.0,0.0,0.0,0.0,0.0,0.0,0.0,0.0,0.0,0.0,0.0,0.0,0.0,0.0,0.0,0.0,0.0,0.0,0.0,0.0,0.0,0.0,0.0,0.0,0.0,0.0,0.0,0.0,0.0,0.0,0.0,0.0,1.0501,1.1982,1.371,1.5267,1.6613,0.0,0.0,0.0,0.0,0.0,0.0,0.0,0.0,0.0,0.0,0.0,0.0,0.0,0.0,0.0,0.0,0.0,0.0,0.0,0.0,0.0,0.0,0.0,0.0,0.0,0.0,0.0,0.0,0.0,0.0,0.0,0.0,0.0,0.0,0.0,0.0,0.0,0.0,0.0,0.0,0.0,0.0,0.0,0.0,0.0,0.0,0.0,0.0,0.0,0.0,0.0,0.0,0.0,0.0,0.0,0.0,0.0,0.0,0.0,0.0,0.0,0.0,0.0,0.0,0.0,0.0,0.0,0.0,0.0,0.0,0.0,0.0,0.0,0.0,0.0,0.0,0.0,0.0,0.0,0.0,0.0,0.0,0.0,0.0,0.0,0.0,0.0,0.0,0.0,0.0,0.0,0.0,0.0,0.0,0.0,0.0,0.0,0.0,0.0,0.0,0.0,0.0,0.0,0.0,0.0,0.0,0.0,0.0,0.0,0.0,0.0,0.0,1.3551,1.5045,1.6521,0.0,0.0,0.0,0.0,0.0,0.0,0.0,0.0,0.0,0.0,0.0,0.0,0.0,0.0,0.0,0.0,0.0,0.0,0.0,0.0,0.0,0.0,0.0,0.0,0.0,0.0,0.0,0.0,0.0,0.0,0.0,0.0,0.0,0.0,0.0,0.0,0.0,0.0,0.0,0.0,0.0,0.0,0.0,0.0,0.0,0.0,0.0,0.0,0.0,0.0,0.0,0.0,0.0,0.0,0.0,0.0,0.0,0.0,0.0,0.0,0.0,0.0,0.0,0.0,0.0,0.0,0.0,0.0,0.0,0.0,0.0,0.0,0.0,0.0,0.0,0.0,0.0,0.0,0.0,0.0,0.0,0.0,0.0,0.0,0.0,0.0,0.0,0.0,0.0,0.0,0.0,0.0,0.0,0.0,0.0,0.0,0.0,0.0,0.0,0.0,0.0,0.0,0.0,0.0,0.0,0.0,0.0,0.0,0.0,0.0,1.086,1.229,1.3404,0.0,1.7232,0.0,0.0,0.0,0.0,0.0,0.0,0.0,0.0,0.0,0.0,0.0,0.0,0.0,0.0,0.0,0.0,0.0,0.0,0.0,0.0,0.0,0.0,0.0,0.0,0.0,0.0,0.0,0.0,0.0,0.0,0.0,0.0,0.0,0.0,0.0,0.0,0.0,0.0,0.0,0.0,0.0,0.0,0.0,0.0,0.0,0.0,0.0,0.0,0.0,0.0,0.0,0.0,0.0,0.0,0.0,0.0,0.0,0.0,0.0,0.0,0.0,0.0,0.0,0.0,0.0,0.0,0.0,0.0,0.0,0.0,0.0,0.0,0.0,0.0,0.0,0.0,0.0,0.0,0.0,0.0,0.0,0.0,0.0,0.0,0.0,0.0,0.0,0.0,0.0,0.0,0.0,0.0,0.0,0.0,0.0,0.0,0.0,0.0,0.0,0.0,0.0,0.0,0.0,0.0,0.0,0.0,0.0,0.0,0.0,0.0,1.1612,1.2654,1.4008,1.5545,0.0,0.0,0.0,0.0,0.0,0.0,0.0,0.0,0.0,0.0,0.0,0.0,0.0,0.0,0.0,0.0,0.0,0.0,0.0,0.0,0.0,0.0,0.0,0.0,0.0,0.0,0.0,0.0,0.0,0.0,0.0,0.0,0.0,0.0,0.0,0.0,0.0,0.0,0.0,0.0,0.0,0.0,0.0,0.0,0.0,0.0,0.0,0.0,0.0,0.0,0.0,0.0,0.0,0.0,0.0,0.0,0.0,0.0,0.0,0.0,0.0,0.0,0.0,0.0,0.0,0.0,0.0,0.0,0.0,0.0,0.0,0.0,0.0,0.0,0.0,0.0,0.0,0.0,0.0,0.0,0.0,0.0,0.0,0.0,0.0,0.0,0.0,0.0,0.0,0.0,0.0,0.0,0.0,0.0,0.0,0.0,0.0,0.0,0.0,0.0,0.0,0.0,0.0,0.0,0.0,0.0,0.0,0.0,0.0,0.0,1.1159,1.2187,1.3204,1.4769,1.6034,1.705,0.0,0.0,0.0,0.0,0.0,0.0,0.0,0.0,0.0,0.0,0.0,0.0,0.0,0.0,0.0,0.0,0.0,0.0,0.0,0.0,0.0,0.0,0.0,0.0,0.0,0.0,0.0,0.0,0.0,0.0,0.0,0.0,0.0,0.0,0.0,0.0,0.0,0.0,0.0,0.0,0.0,0.0,0.0,0.0,0.0,0.0,0.0,0.0,0.0,0.0,0.0,0.0,0.0,0.0,0.0,0.0,0.0,0.0,0.0,0.0,0.0,0.0,0.0,0.0,0.0,0.0,0.0,0.0,0.0,0.0,0.0,0.0,0.0,0.0,0.0,0.0,0.0,0.0,0.0,0.0,0.0,0.0,0.0,0.0,0.0,0.0,0.0,0.0,0.0,0.0,0.0,0.0,0.0,0.0,0.0,0.0,0.0,0.0,0.0,0.0,0.0,0.0,0.0,0.0,0.0,0.0,0.0,0.0,1.056,1.1435,1.2571,1.4057,1.5163,1.6024,0.0,0.0,0.0,0.0,0.0,0.0,0.0,0.0,0.0,0.0,0.0,0.0,0.0,0.0,0.0,0.0,0.0,0.0,0.0,0.0,0.0,0.0,0.0,0.0,0.0,0.0,0.0,0.0,0.0,0.0,0.0,0.0,0.0,0.0,0.0,0.0,0.0,0.0,0.0,0.0,0.0,0.0,0.0,0.0,0.0,0.0,0.0,0.0,0.0,0.0,0.0,0.0,0.0,0.0,0.0,0.0,0.0,0.0,0.0,0.0,0.0,0.0,0.0,0.0,0.0,0.0,0.0,0.0,0.0,0.0,0.0,0.0,0.0,0.0,0.0,0.0,0.0,0.0,0.0,0.0,0.0,0.0,0.0,0.0,0.0,0.0,0.0,0.0,0.0,0.0,0.0,0.0,0.0,0.0,0.0,0.0,0.0,0.0,0.0,0.0,0.0,0.0,0.0,0.0,0.0,0.0,0.0,0.0,0.0,1.1408,1.2499,1.3539,1.4467,1.5153,1.5921,0.0,0.0,0.0,0.0,0.0,0.0,0.0,0.0,0.0,0.0,0.0,0.0,0.0,0.0,0.0,0.0,0.0,0.0,0.0,0.0,0.0,0.0,0.0,0.0,0.0,0.0,0.0,0.0,0.0,0.0,0.0,0.0,0.0,0.0,0.0,0.0,0.0,0.0,0.0,0.0,0.0,0.0,0.0,0.0,0.0,0.0,0.0,0.0,0.0,0.0,0.0,0.0,0.0,0.0,0.0,0.0,0.0,0.0,0.0,0.0,0.0,0.0,0.0,0.0,0.0,0.0,0.0,0.0,0.0,0.0,0.0,0.0,0.0,0.0,0.0,0.0,0.0,0.0,0.0,0.0,0.0,0.0,0.0,0.0,0.0,0.0,0.0,0.0,0.0,0.0,0.0,0.0,0.0,0.0,0.0,0.0,0.0,0.0,0.0,0.0,0.0,0.0,0.0,0.0,0.0,0.0,0.0,0.0,0.0,1.2452,0.0,1.418,1.4815,1.5399,1.611,0.0,0.0,0.0,0.0,0.0,0.0,0.0,0.0,0.0,0.0,0.0,0.0,0.0,0.0,0.0,0.0,0.0,0.0,0.0,0.0,0.0,0.0,0.0,0.0,0.0,0.0,0.0,0.0,0.0,0.0,0.0,0.0,0.0,0.0,0.0,0.0,0.0,0.0,0.0,0.0,0.0,0.0,0.0,0.0,0.0,0.0,0.0,0.0,0.0,0.0,0.0,0.0,0.0,0.0,0.0,0.0,0.0,0.0,0.0,0.0,0.0,0.0,0.0,0.0,0.0,0.0,0.0,0.0,0.0,0.0,0.0,0.0,0.0,0.0,0.0,0.0,0.0,0.0,0.0,0.0,0.0,0.0,0.0,0.0,0.0,0.0,0.0,0.0,0.0,0.0,0.0,0.0,0.0,0.0,0.0,0.0,0.0,0.0,0.0,0.0,0.0,0.0,0.0,0.0,0.0,0.0,0.0,0.0,1.2233,1.3491,1.3943,1.4622,1.5493,1.6016,1.6504,0.0,0.0,0.0,0.0,0.0,0.0,0.0,0.0,0.0,0.0,0.0,0.0,0.0,0.0,0.0,0.0,0.0,0.0,0.0,0.0,0.0,0.0,0.0,0.0,0.0,0.0,0.0,0.0,0.0,0.0,0.0,0.0,0.0,0.0,0.0,0.0,0.0,0.0,0.0,0.0,0.0,0.0,0.0,0.0,0.0,0.0,0.0,0.0,0.0,0.0,0.0,0.0,0.0,0.0,0.0,0.0,0.0,0.0,0.0,0.0,0.0,0.0,0.0,0.0,0.0,0.0,0.0,0.0,0.0,0.0,0.0,0.0,0.0,0.0,0.0,0.0,0.0,0.0,0.0,0.0,0.0,0.0,0.0,0.0,0.0,0.0,0.0,0.0,0.0,0.0,0.0,0.0,0.0,0.0,0.0,0.0,0.0,0.0,0.0,0.0,0.0,0.0,0.0,0.0,0.0,0.0,0.0,0.0,0.0,1.431,1.4778,1.5401,1.6054,1.6596,1.7013,0.0,0.0,0.0,0.0,0.0,0.0,0.0,0.0,0.0,0.0,0.0,0.0,0.0,0.0,0.0,0.0,0.0,0.0,0.0,0.0,0.0,0.0,0.0,0.0,0.0,0.0,0.0,0.0,0.0,0.0,0.0,0.0,0.0,0.0,0.0,0.0,0.0,0.0,0.0,0.0,0.0,0.0,0.0,0.0,0.0,0.0,0.0,0.0,0.0,0.0,0.0,0.0,0.0,0.0,0.0,0.0,0.0,0.0,0.0,0.0,0.0,0.0,0.0,0.0,0.0,0.0,0.0,0.0,0.0,0.0,0.0,0.0,0.0,0.0,0.0,0.0,0.0,0.0,0.0,0.0,0.0,0.0,0.0,0.0,0.0,0.0,0.0,0.0,0.0,0.0,0.0,0.0,0.0,0.0,0.0,0.0,0.0,0.0,0.0,0.0,0.0,0.0,0.0,0.0,0.0,0.0,0.0,0.0,0.0,1.5366,1.5603,1.6055,1.6718,1.7067,1.752,1.8025,0.0,0.0,0.0,0.0,0.0,0.0,0.0,0.0,0.0,0.0,0.0,0.0,0.0,0.0,0.0,0.0,0.0,0.0,0.0,0.0,0.0,0.0,0.0,0.0,0.0,0.0,0.0,0.0,0.0,0.0,0.0,0.0,0.0,0.0,0.0,0.0,0.0,0.0,0.0,0.0,0.0,0.0,0.0,0.0,0.0,0.0,0.0,0.0,0.0,0.0,0.0,0.0,0.0,0.0,0.0,0.0,0.0,0.0,0.0,0.0,0.0,0.0,0.0,0.0,0.0,0.0,0.0,0.0,0.0,0.0,0.0,0.0,0.0,0.0,0.0,0.0,0.0,0.0,0.0,0.0,0.0,0.0,0.0,0.0,0.0,0.0,0.0,0.0,0.0,0.0,0.0,0.0,0.0,0.0,0.0,0.0,0.0,0.0,0.0,0.0,0.0,0.0,0.0,0.0,0.0,0.0,0.0,0.0,1.6594,1.6629,1.6866,1.7539,1.784,1.8216,0.0,0.0,0.0,0.0,0.0,0.0,0.0,0.0,0.0,0.0,0.0,0.0,0.0,0.0,0.0,0.0,0.0,0.0,0.0,0.0,0.0,0.0,0.0,0.0,0.0,0.0,0.0,0.0,0.0,0.0,0.0,0.0,0.0,0.0,0.0,0.0,0.0,0.0,0.0,0.0,0.0,0.0,0.0,0.0,0.0,0.0,0.0,0.0,0.0,0.0,0.0,0.0,0.0,0.0,0.0,0.0,0.0,0.0,0.0,0.0,0.0,0.0,0.0,0.0,0.0,0.0,0.0,0.0,0.0,0.0,0.0,0.0,0.0,0.0,0.0,0.0,0.0,0.0,0.0,0.0,0.0,0.0,0.0,0.0,0.0,0.0,0.0,0.0,0.0,0.0,0.0,0.0,0.0,0.0,0.0,0.0,0.0,0.0,0.0,0.0,0.0,0.0,0.0,0.0,0.0,0.0,0.0,0.0,0.0,1.7596,1.7483,1.8116,1.9331,1.9218,1.9611,0.0,0.0,0.0,0.0,0.0,0.0,0.0,0.0,0.0,0.0,0.0,0.0,0.0,0.0,0.0,0.0,0.0,0.0,0.0,0.0,0.0,0.0,0.0,0.0,0.0,0.0,0.0,0.0,0.0,0.0,0.0,0.0,0.0,0.0,0.0,0.0,0.0,0.0,0.0,0.0,0.0,0.0,0.0,0.0,0.0,0.0,0.0,0.0,0.0,0.0,0.0,0.0,0.0,0.0,0.0,0.0,0.0,0.0,0.0,0.0,0.0,0.0,0.0,0.0,0.0,0.0,0.0,0.0,0.0,0.0,0.0,0.0,0.0,0.0,0.0,0.0,0.0,0.0,0.0,0.0,0.0,0.0,0.0,0.0,0.0,0.0,0.0,0.0,0.0,0.0,0.0,0.0,0.0,0.0,0.0,0.0,0.0,0.0,0.0,0.0,0.0,0.0,0.0,0.0,0.0,0.0,0.0,0.0,1.8514,1.8976,1.9346,2.0228,2.171,2.0265,2.0151,0.0,0.0,0.0,0.0,0.0,0.0,0.0,0.0,0.0,0.0,0.0,0.0,0.0,0.0,0.0,0.0,0.0,0.0,0.0,0.0,0.0,0.0,0.0,0.0,0.0,0.0,0.0,0.0,0.0,0.0,0.0,0.0,0.0,0.0,0.0,0.0,0.0,0.0,0.0,0.0,0.0,0.0,0.0,0.0,0.0,0.0,0.0,0.0,0.0,0.0,0.0,0.0,0.0,0.0,0.0,0.0,0.0,0.0,0.0,0.0,0.0,0.0,0.0,0.0,0.0,0.0,0.0,0.0,0.0,0.0,0.0,0.0,0.0,0.0,0.0,0.0,0.0,0.0,0.0,0.0,0.0,0.0,0.0,0.0,0.0,0.0,0.0,0.0,0.0,0.0,0.0,0.0,0.0,0.0,0.0,0.0,0.0,0.0,0.0,0.0,0.0,0.0,0.0,0.0,0.0,0.0,0.0,0.0,2.008,2.0416,2.1336,2.2421,2.3869,2.1216,2.0452,0.0,0.0,0.0,0.0,0.0,0.0,0.0,0.0,0.0,0.0,0.0,0.0,0.0,0.0,0.0,0.0,0.0,0.0,0.0,0.0,0.0,0.0,0.0,0.0,0.0,0.0,0.0,0.0,0.0,0.0,0.0,0.0,0.0,0.0,0.0,0.0,0.0,0.0,0.0,0.0,0.0,0.0,0.0,0.0,0.0,0.0,0.0,0.0,0.0,0.0,0.0,0.0,0.0,0.0,0.0,0.0,0.0,0.0,0.0,0.0,0.0,0.0,0.0,0.0,0.0,0.0,0.0,0.0,0.0,0.0,0.0,0.0,0.0,0.0,0.0,0.0,0.0,0.0,0.0,0.0,0.0,0.0,0.0,0.0,0.0,0.0,0.0,0.0,0.0,0.0,0.0,0.0,0.0,0.0,0.0,0.0,0.0,0.0,0.0,0.0,0.0,0.0,0.0,0.0,0.0,0.0,0.0,0.0,2.097,2.1631,2.1477,2.2346,2.3898,2.2534,2.2198,0.0,0.0,0.0,0.0,0.0,0.0,0.0,0.0,0.0,0.0,0.0,0.0,0.0,0.0,0.0,0.0,0.0,0.0,0.0,0.0,0.0,0.0,0.0,0.0,0.0,0.0,0.0,0.0,0.0,0.0,0.0,0.0,0.0,0.0,0.0,0.0,0.0,0.0,0.0,0.0,0.0,0.0,0.0,0.0,0.0,0.0,0.0,0.0,-0.2605,0.0,0.0,0.0,0.0,0.0,0.0,0.0,0.0,0.0,0.0,0.0,0.0,0.0,0.0,0.0,0.0,0.0,0.0,0.0,0.0,0.0,0.0,0.0,0.0,0.0,0.0,0.0,0.0,0.0,0.0,0.0,0.0,0.0,0.0,0.0,0.0,0.0,0.0,0.0,0.0,0.0,0.0,0.0,0.0,0.0,0.0,0.0,0.0,0.0,0.0,0.0,0.0,0.0,0.0,0.0,0.0,0.0,0.0,0.0,2.2333,2.298,2.3039,2.3627,2.4675,2.39,2.3592,0.0,0.0,0.0,0.0,0.0,0.0,0.0,0.0,0.0,0.0,0.0,0.0,0.0,0.0,0.0,0.0,0.0,0.0,0.0,0.0,0.0,0.0,0.0,0.0,0.0,0.0,0.0,0.0,0.0,0.0,0.0,0.0,0.0,0.0,0.0,0.0,0.0,0.0,0.0,0.0,0.0,0.0,0.0,0.0,0.0,0.0,0.0,0.0,0.0,0.0,0.0,0.0,0.0,0.0,0.0,0.0,0.0,0.0,0.0,0.0,0.0,0.0,0.0,0.0,0.0,0.0,0.0,0.0,0.0,0.0,0.0,0.0,0.0,0.0,0.0,0.0,0.0,0.0,0.0,0.0,0.0,0.0,0.0,0.0,0.0,0.0,0.0,0.0,0.0,0.0,0.0,0.0,0.0,0.0,0.0,0.0,0.0,0.0,0.0,0.0,0.0,0.0,0.0,0.0,0.0,0.0,0.0,2.2444,2.3591,2.4264,2.4838,2.5278,2.5612,2.496,2.4436,2.4118,0.0,0.0,0.0,0.0,0.0,0.0,0.0,0.0,0.0,0.0,0.0,0.0,0.0,0.0,0.0,0.0,0.0,0.0,0.0,0.0,0.0,0.0,0.0,0.0,0.0,0.0,0.0,0.0,0.0,0.0,0.0,0.0,0.0,0.0,0.0,0.0,0.0,0.0,-0.0264,0.2332,0.0,0.0,0.0,0.0,0.0,0.0,0.0,0.0,-0.3428,0.0,0.0,0.0,0.0,0.0,0.0,0.0,0.0,0.0,0.0,0.0,0.0,0.0,0.0,0.0,0.0,0.0,0.0,0.0,0.0,0.0,0.0,0.0,0.0,0.0,0.0,0.0,0.0,0.0,0.0,0.0,0.0,0.0,0.0,0.0,0.0,0.0,0.0,0.0,0.0,0.0,0.0,0.0,0.0,0.0,0.0,0.0,0.0,0.0,0.0,0.0,0.0,0.0,0.0,0.0,0.0,2.1994,2.3262,2.4309,2.4869,2.5071,2.5278,2.5596,2.4944,2.4563,2.4436,0.0,0.0,0.0,0.0,0.0,0.0,0.0,0.0,0.0,0.0,0.0,0.0,0.0,0.0,0.0,0.0,0.0,0.0,0.0,0.0,0.0,0.0,0.0,0.0,0.0,0.0,0.0,0.0,0.0,0.0,0.0,0.0,0.0,0.0,0.0,0.0,0.0,0.0,0.0,0.238,0.3707,0.0,0.0,0.0,0.0,0.0,0.0,0.0,0.0,-0.5373,0.0,0.0,0.0,0.0,0.0,0.0,0.0,0.0,0.0,0.0,0.0,0.0,0.0,0.0,0.0,0.0,0.0,0.0,0.0,0.0,0.0,0.0,0.0,0.0,0.0,0.0,0.0,0.0,0.0,0.0,0.0,0.0,0.0,0.0,0.0,0.0,0.0,0.0,0.0,0.0,0.0,0.0,0.0,0.0,0.0,0.0,0.0,0.0,0.0,0.0,0.0,0.0,0.0,0.0,0.0,2.2199,2.3457,2.4404,2.5071,2.5103,2.5278,2.5612,2.496,2.4458,0.0,0.0,0.0,0.0,0.0,0.0,0.0,0.0,0.0,0.0,0.0,0.0,0.0,0.0,0.0,0.0,0.0,0.0,0.0,0.0,0.0,0.0,0.0,0.0,0.0,0.0,0.0,0.0,0.0,0.0,0.0,0.0,0.0,0.0,0.0,0.0,0.0,0.0,0.0,0.0,0.2297,0.3072,0.4415,0.0,0.0,0.0,0.0,0.0,0.0,-0.5842,-0.7297,0.0,0.0,0.0,0.0,0.0,0.0,0.0,0.0,0.0,0.0,0.0,0.0,0.0,0.0,0.0,0.0,0.0,0.0,0.0,0.0,0.0,0.0,0.0,0.0,0.0,0.0,0.0,0.0,0.0,0.0,0.0,0.0,0.0,0.0,0.0,0.0,0.0,0.0,0.0,0.0,0.0,0.0,0.0,0.0,0.0,0.0,0.0,0.0,0.0,0.0,0.0,0.0,0.0,0.0,0.0,2.2199,2.3457,2.4388,2.5071,2.5103,2.5278,2.5612,2.4881,2.4348,0.0,0.0,0.0,0.0,0.0,0.0,0.0,0.0,0.0,0.0,0.0,0.0,0.0,0.0,0.0,0.0,0.0,0.0,0.0,0.0,0.0,0.0,0.0,0.0,0.0,0.0,0.0,0.0,0.0,0.0,0.0,0.0,0.0,0.0,0.0,0.0,0.0,0.0,0.0,0.0,0.0,0.2989,0.4093,0.4068,0.0,0.0,0.0,0.0,-0.9536,-1.2507,0.0,0.0,0.0,0.0,0.0,0.0,0.0,0.0,0.0,0.0,0.0,0.0,0.0,0.0,0.0,0.0,0.0,0.0,0.0,0.0,0.0,0.0,0.0,0.0,0.0,0.0,0.0,0.0,0.0,0.0,0.0,0.0,0.0,0.0,0.0,0.0,0.0,0.0,0.0,0.0,0.0,0.0,0.0,0.0,0.0,0.0,0.0,0.0,0.0,0.0,0.0,0.0,0.0,0.0,0.0,0.0,2.2199,2.3457,2.4404,2.5071,2.5103,2.5278,2.5612,2.4642,2.4,0.0,0.0,0.0,0.0,0.0,0.0,0.0,0.0,0.0,0.0,0.0,0.0,0.0,0.0,0.0,0.0,0.0,0.0,0.0,0.0,0.0,0.0,0.0,0.0,0.0,0.0,0.0,0.0,0.0,0.0,0.0,0.0,0.0,0.0,0.0,0.0,0.0,0.0,0.0,0.0,0.0,0.3297,0.4599,0.3842,0.2301,0.0,0.0,-1.1173,-1.4955,-2.4343,0.0,0.0,0.0,0.0,0.0,0.0,0.0,0.0,0.0,0.0,0.0,0.0,0.0,0.0,0.0,0.0,0.0,0.0,0.0,0.0,0.0,0.0,0.0,0.0,0.0,0.0,0.0,0.0,0.0,0.0,0.0,0.0,0.0,0.0,0.0,0.0,0.0,0.0,0.0,0.0,0.0,0.0,0.0,0.0,0.0,0.0,0.0,0.0,0.0,0.0,0.0,0.0,0.0,0.0,0.0,2.2275,2.3536,2.5269,2.6133,2.6156,2.6172,2.5905,2.5342,2.4379,2.37,0.0,0.0,0.0,0.0,0.0,0.0,0.0,0.0,0.0,0.0,0.0,0.0,0.0,0.0,0.0,0.0,0.0,0.0,0.0,0.0,0.0,0.0,0.0,0.0,0.0,0.0,0.0,0.0,0.0,0.0,0.0,0.0,0.0,0.0,0.0,0.0,0.0,0.0,0.0,0.0,0.0,0.0,0.7044,0.5777,0.0,0.0,0.0,-1.7478,-2.4148,0.0,0.0,0.0,0.0,0.0,0.0,0.0,0.0,0.0,0.0,0.0,0.0,0.0,0.0,0.0,0.0,0.0,0.0,0.0,0.0,0.0,0.0,0.0,0.0,0.0,0.0,0.0,0.0,0.0,0.0,0.0,0.0,0.0,0.0,0.0,0.0,0.0,0.0,0.0,0.0,0.0,0.0,0.0,0.0,0.0,0.0,0.0,0.0,0.0,0.0,0.0,0.0,0.0,0.0,0.0,0.0,0.0,2.4404,2.656,2.7597,2.7312,2.7091,2.6537,2.5578,2.4499,0.0,0.0,0.0,0.0,0.0,0.0,0.0,0.0,0.0,0.0,0.0,0.0,0.0,0.0,0.0,0.0,0.0,0.0,0.0,0.0,0.0,0.0,0.0,0.0,0.0,0.0,0.0,-0.6584,0.0,0.0,0.0,0.0,0.0,0.0,0.0,0.0,0.0,0.0,0.0,0.0,0.0,0.0,1.1411,1.0993,0.8512,0.4152,0.0,0.0,-2.3446,-3.2123,-3.2456,-2.983,0.0,0.0,0.0,0.0,0.0,0.0,0.0,0.0,0.0,0.0,0.0,0.0,0.0,0.0,0.0,0.0,0.0,0.0,0.0,0.0,0.0,0.0,0.0,0.0,0.0,0.0,0.0,0.0,0.0,0.0,0.0,0.0,0.0,0.0,0.0,0.0,0.0,0.0,0.0,0.0,0.0,0.0,0.0,0.0,0.0,0.0,0.0,0.0,0.0,0.0,0.0,0.0,0.0,0.0,2.3054,2.4247,2.6547,2.7911,2.8101,2.7432,2.7021,2.6883,2.5326,2.3992,0.0,0.0,0.0,0.0,0.0,0.0,0.0,0.0,0.0,0.0,0.0,0.0,0.0,0.0,0.0,0.0,0.0,0.0,0.0,0.0,0.0,0.0,0.0,0.0,0.0,0.0,0.0,0.0,0.0,0.0,0.0,0.0,0.0,0.0,0.0,0.0,0.0,0.0,0.0,0.0,0.0,1.5242,1.6936,1.1666,0.3976,0.0,-1.7567,-2.8221,-3.6385,-3.7719,-3.372,-2.1239,0.0,0.0,0.0,0.0,0.0,0.0,0.0,0.0,0.0,0.0,0.0,0.0,0.0,0.0,0.0,0.0,0.0,0.0,0.0,0.0,0.0,0.0,0.0,0.0,0.0,0.0,0.0,0.0,0.0,0.0,0.0,0.0,0.0,0.0,0.0,0.0,0.0,0.0,0.0,0.0,0.0,0.0,0.0,0.0,0.0,0.0,0.0,0.0,0.0,0.0,0.0,0.0,0.0,2.4192,2.5575,2.8539,2.9746,2.9355,2.9306,2.8564,2.7021,2.6064,2.4682,0.0,0.0,0.0,0.0,0.0,0.0,0.0,0.0,0.0,0.0,0.0,0.0,0.0,0.0,0.0,0.0,0.0,0.0,0.0,0.0,0.0,0.0,0.0,0.0,0.0,0.0,0.0,0.0,-1.2812,-1.4671,-1.5182,0.0,0.0,0.0,0.0,0.0,0.0,0.0,0.0,0.0,0.0,2.1509,2.186,1.4184,0.0,0.0,-2.0362,-3.1334,-3.8088,-3.4488,-2.7274,-1.6175,-0.5192,0.0,0.0,0.0,0.0,0.0,0.0,0.0,0.0,0.0,0.0,0.0,0.0,0.0,0.0,0.0,0.0,0.0,0.0,0.0,0.0,0.0,0.0,0.0,0.0,0.0,0.0,0.0,0.0,0.0,0.0,0.0,0.0,0.0,0.0,0.0,0.0,0.0,0.0,0.0,0.0,0.0,0.0,0.0,0.0,0.0,0.0,0.0,0.0,0.0,0.0,0.0,0.0,2.5263,2.6759,2.9796,3.1064,3.0452,3.0662,2.963,2.7607,2.6628,2.537,0.0,0.0,0.0,0.0,0.0,0.0,0.0,0.0,0.0,0.0,0.0,0.0,0.0,0.0,0.0,0.0,0.0,0.0,0.0,0.0,0.0,0.0,0.0,0.0,0.0,0.0,0.0,0.0,-1.382,-1.5886,-1.654,0.0,0.0,0.0,0.0,0.0,0.0,0.0,0.0,0.0,0.0,2.6748,2.6156,1.7731,0.6866,-0.5732,-1.8276,-2.7993,-3.2491,-2.5627,-1.6509,-0.71,0.0,0.0,0.0,0.0,0.0,0.0,0.0,0.0,0.0,0.0,0.0,0.0,0.0,0.0,0.0,0.0,0.0,0.0,0.0,0.0,0.0,0.0,0.0,0.0,0.0,0.0,0.0,2.0997,0.0,0.0,2.0941,0.0,0.0,0.0,0.0,0.0,0.0,0.0,0.0,0.0,0.0,0.0,0.0,0.0,0.0,0.0,0.0,0.0,0.0,0.0,0.0,0.0,0.0,2.5718,2.7303,3.0012,3.1381,3.1313,3.0734,2.9982,2.892,2.7366,2.5764,2.4201,0.0,0.0,0.0,0.0,0.0,0.0,0.0,0.0,0.0,0.0,0.0,0.0,0.0,0.0,0.0,0.0,0.0,0.0,0.0,0.0,0.0,0.0,0.0,0.0,0.0,0.0,-1.2293,-1.5224,-1.7167,0.0,0.0,0.0,0.0,0.0,0.0,0.0,0.0,0.0,2.2277,2.7519,3.0652,2.9488,2.2353,1.2311,-0.0461,-1.0014,-1.6493,-1.8055,-1.0745,-0.1629,0.0,0.0,0.0,0.0,0.0,0.0,0.0,0.0,0.0,0.0,0.0,0.0,0.0,0.0,0.0,0.0,0.0,0.0,0.0,0.0,0.0,0.0,0.0,0.0,0.0,0.0,0.0,2.2243,2.1806,0.0,0.0,0.0,0.0,0.0,0.0,0.0,0.0,0.0,0.0,0.0,2.6481,2.5811,0.0,0.0,0.0,0.0,0.0,0.0,0.0,0.0,0.0,0.0,0.0,0.0,2.6106,2.7534,3.0045,3.1526,3.1816,3.1942,3.1305,2.9982,2.9394,2.8009,2.5727,0.0,0.0,0.0,0.0,0.0,0.0,0.0,0.0,0.0,0.0,0.0,0.0,0.0,0.0,0.0,0.0,0.0,0.0,0.0,0.0,0.0,0.0,0.0,0.0,0.0,-1.0996,0.0,0.0,0.0,0.0,0.0,0.0,0.0,0.0,0.0,0.0,1.5732,2.0989,2.6104,2.9074,3.0875,3.1009,2.2007,1.144,0.0,0.0,0.0,0.0,0.0,0.0,0.0,0.0,0.0,0.0,0.0,0.0,0.0,0.0,3.7473,3.5672,3.6077,3.613,3.4219,0.0,0.0,0.0,0.0,0.0,0.0,0.0,0.0,0.0,0.0,0.0,0.0,0.0,0.0,2.4384,2.3612,2.3595,0.0,0.0,0.0,0.0,0.0,0.0,0.0,0.0,2.8711,2.9655,3.0025,2.959,2.9223,0.0,2.8545,2.6573,0.0,0.0,0.0,0.0,0.0,0.0,0.0,0.0,2.6747,2.8172,3.0478,3.1754,3.2043,3.2365,3.1903,3.047,2.9865,2.8718,2.6929,2.573,2.4496,0.0,0.0,0.0,0.0,0.0,0.0,0.0,0.0,0.0,0.0,0.0,0.0,0.0,0.0,0.0,0.0,0.0,0.0,0.0,0.0,0.0,0.0,0.0,-1.5013,0.0,0.0,0.0,0.0,0.0,0.0,0.0,0.0,0.0,1.5107,1.9549,2.4295,2.8768,3.1312,3.2394,3.1015,0.0,0.0,0.0,0.0,0.0,0.0,0.0,1.1861,1.9441,2.3813,2.7733,3.212,3.5258,3.8544,4.2546,0.0,0.0,4.1662,4.1489,4.1201,3.8752,3.661,3.4378,3.1302,3.0624,3.0167,0.0,0.0,0.0,0.0,0.0,0.0,0.0,0.0,2.8894,2.7646,0.0,2.6376,0.0,0.0,0.0,0.0,2.5679,2.8269,0.0,0.0,3.4338,3.5443,3.42,3.4687,3.4381,3.3263,3.3353,3.2184,2.9688,2.6463,0.0,0.0,0.0,0.0,0.0,0.0,2.7956,2.951,3.1125,3.2043,3.2085,3.2272,3.1767,3.047,2.892,2.8045,2.7587,2.7299,2.6403,2.476,2.3402,0.0,0.0,0.0,0.0,0.0,0.0,0.0,0.0,0.0,0.0,0.0,0.0,0.0,0.0,0.0,0.0,0.0,0.0,0.0,0.0,-1.4025,0.0,0.0,0.0,0.0,0.0,0.0,0.0,0.0,0.0,2.0099,1.95,2.3201,2.716,3.018,0.0,0.0,0.0,0.0,2.4796,1.6495,1.318,1.1931,1.3176,1.7107,2.1942,2.7206,0.0,0.0,3.8356,3.9319,4.1023,4.527,4.8706,4.9949,4.7519,4.6446,4.5159,4.24,3.9772,3.7219,3.4818,3.3401,3.2805,3.1777,0.0,0.0,0.0,0.0,3.1003,3.0915,3.0623,3.0466,2.971,2.8542,2.8407,0.0,0.0,0.0,0.0,0.0,0.0,3.1203,3.2637,3.4934,3.6173,3.6584,3.6516,3.62,3.584,3.5508,3.4799,3.3744,3.2877,3.0125,2.5793,0.0,0.0,0.0,0.0,3.0005,3.1326,3.2432,3.2839,3.252,3.255,3.2248,3.1441,3.0723,3.0198,3.0004,2.9127,2.8219,2.7338,2.5189,0.0,0.0,0.0,0.0,0.0,0.0,0.0,0.0,0.0,0.0,0.0,0.0,0.0,0.0,0.0,0.0,0.0,0.0,0.0,-1.6599,-2.4615,-2.9515,0.0,0.0,0.0,0.0,0.0,0.0,0.0,0.0,0.0,3.1416,3.0512,3.0756,0.0,0.0,3.365,3.1946,2.9353,2.6019,2.1829,2.108,0.0,2.2107,2.5459,2.9293,3.3273,3.5996,3.8719,4.1633,4.3785,4.6488,5.0611,5.3227,5.4314,5.2848,5.0998,4.8329,4.463,4.2185,3.9893,3.7162,3.6639,3.6854,3.5622,3.4279,3.3602,3.3479,3.3602,3.3692,3.3423,3.3173,3.3153,3.2435,3.121,3.1015,3.0065,2.8597,2.8442,0.0,0.0,0.0,3.3813,3.5557,3.703,3.8238,3.9133,3.9062,3.8799,3.8309,3.8489,3.7821,3.6496,3.6684,3.4544,3.0248,0.0,2.9876,3.014,3.1162,3.2036,3.2959,3.3394,3.3519,3.3254,3.2706,3.2674,3.2839,3.2493,3.2145,3.1933,3.1309,3.0274,2.8824,2.726,2.5463,0.0,0.0,0.0,0.0,0.0,0.0,0.0,0.0,0.0,0.0,0.0,1.5043,1.3521,0.0,0.0,0.0,0.3191,-0.8589,-2.2963,-3.1777,0.0,0.0,0.0,0.0,0.0,0.0,0.0,2.9829,3.4922,3.8742,4.0451,3.9357,3.8365,3.7928,3.8102,3.7226,3.436,0.0,3.0547,2.679,2.6588,2.7634,2.9477,3.2619,3.5946,3.9269,4.1109,4.2457,4.3961,4.6256,4.9135,5.2366,5.4534,5.5077,5.3173,5.1082,4.8577,4.491,4.2877,4.0854,3.8442,3.8575,3.9078,3.8742,3.7784,3.6199,3.5982,3.6767,3.6359,3.6166,3.6144,3.6123,3.5269,3.3735,3.3872,3.2793,3.0781,3.0842,0.0,3.3023,3.5199,3.7192,3.8948,4.0096,4.0902,4.1404,4.1907,4.1605,4.0601,4.1555,4.069,3.8176,3.8669,3.7715,3.5497,3.4487,3.3626,3.3007,3.3572,3.4161,3.4489,3.425,3.4112,3.4112,3.314,3.3122,3.4418,3.4095,3.3843,3.3497,3.3518,3.2383,2.9922,2.9508,2.8078,2.5578,0.0,0.0,0.0,0.0,0.0,0.0,0.0,0.0,0.0,0.0,0.0,0.0,0.0,0.0,2.0264,0.5324,0.0,-2.4786,-3.6548,0.0,0.0,0.0,-0.8955,-0.3243,2.1272,3.8882,4.1994,0.0,0.0,4.7457,4.8973,4.8545,4.4977,4.5476,4.3773,3.737,3.7468,3.6532,3.1197,3.056,3.1906,3.5517,3.8763,4.1816,4.4439,4.5675,4.5699,4.6044,4.7453,4.9603,5.2122,5.3522,5.3173,5.018,4.8019,4.5968,4.3664,4.2071,4.0626,3.9154,3.9209,3.9711,3.8946,3.8316,3.7466,3.7002,3.6664,3.6465,3.6009,3.5641,3.5886,3.5369,3.4448,3.4212,3.3917,3.3572,3.4017,3.4799,3.6024,3.7848,3.9163,4.0144,4.1186,4.1831,4.1957,4.2108,4.1806,4.1153,4.0978,4.0595,3.9879,3.9581,3.9179,3.8515,3.8234,3.7121,3.4994,3.5298,3.5573,3.5854,3.5749,3.5598,3.5024,3.4825,3.4646,3.4756,3.4734,3.451,3.4173,3.4173,3.3883,3.3191,3.1536,2.9898,2.8026,2.4595,0.0,0.0,0.0,0.0,0.0,0.0,0.0,0.0,0.0,1.8263,1.7635,0.0,2.2143,0.0,0.262,-1.374,-2.0587,-4.0942,0.0,0.0,-2.7115,-0.7812,0.0121,2.7953,4.7992,5.1563,5.375,5.5398,5.6204,5.6945,5.737,5.7389,5.0785,4.5302,4.3705,4.0046,3.7019,3.5156,3.5193,3.699,3.9667,4.3318,4.608,4.7162,4.6778,4.6924,4.8558,4.9694,5.0999,5.2407,5.2552,5.1067,4.7445,4.4671,4.2023,3.9877,3.9572,3.9787,3.8947,3.9493,4.0126,3.8842,3.8283,3.7858,3.7374,3.6936,3.6579,3.6199,3.5911,3.6055,3.5659,3.4956,3.417,3.3717,3.377,3.531,3.6386,3.71,3.9382,4.0709,4.1201,4.1913,4.2283,4.2509,4.2509,4.2233,4.1706,4.1404,4.1128,4.0877,4.0576,4.0425,4.04,4.0408,3.9677,3.8403,3.7786,3.7651,3.7715,3.7385,3.6809,3.6117,3.5804,3.5804,3.5758,3.5446,3.4887,3.3983,3.3848,3.3287,3.2187,3.1191,2.9968,2.8463,2.6052,2.3649,0.0,0.0,0.0,0.0,0.0,0.0,0.0,0.0,0.0,0.0,0.0,2.8674,2.8244,0.6299,-1.1269,-1.9544,-4.4452,-5.6018,-4.503,-2.0871,0.04,1.4957,4.1538,5.9311,6.0728,6.2041,6.3048,6.3494,6.4045,6.4458,6.4551,5.6586,4.9803,4.6985,4.2215,3.8307,3.6847,3.7151,3.8766,4.2104,4.5795,4.808,4.7866,4.8138,4.8707,4.9413,5.0426,5.1047,5.1035,5.0217,4.8198,4.4328,4.1845,3.9498,3.7761,3.7799,3.8438,3.8586,3.9126,3.9646,3.8543,3.8067,3.7653,3.7425,3.7239,3.6582,3.6326,3.6385,3.6321,3.5882,3.4951,3.3859,3.3277,3.3173,3.5714,3.7081,3.7618,4.0038,4.1697,4.2258,4.2258,4.2534,4.2986,4.2986,4.2735,4.2258,4.2183,4.1907,4.1455,4.1487,4.1462,4.1436,4.1594,4.1777,4.2149,4.0903,3.9999,3.9609,3.9006,3.8311,3.7269,3.6861,3.6748,3.711,3.6341,3.5168,3.3907,3.3497,3.2226,3.0255,3.0344,3.0092,2.9076,2.7992,2.6941,0.0,2.5117,0.0,0.0,0.0,0.0,0.0,0.0,0.0,0.0,3.5248,3.6737,3.5702,1.2988,-0.6445,-1.8384,-4.6296,-5.5567,-3.4673,-1.2203,1.0268,3.2517,5.5748,6.9659,6.8622,6.8831,6.9086,6.9382,7.0056,6.9863,6.7303,6.0901,5.4171,4.8942,4.3724,3.974,3.7729,3.749,3.9104,4.2599,4.5999,4.7832,4.7621,4.8941,5.0286,4.9474,5.0126,5.0351,4.889,4.7112,4.466,4.0881,3.9168,3.7824,3.6104,3.6486,3.7185,3.7928,3.8438,3.8712,3.8378,3.7612,3.7529,3.7053,3.637,3.6227,3.6123,3.6081,3.5707,3.5084,3.4295,3.3617,3.3886,3.4761,3.5654,3.7451,3.9682,4.0684,4.1791,4.2811,4.2811,4.2861,4.2986,4.2986,4.2936,4.2811,4.2359,4.2108,4.1982,4.2281,4.2288,4.2314,4.3018,4.3724,4.4405,0.0,0.0,0.0,4.0631,4.0523,3.9118,3.9046,3.8689,3.8311,3.7265,0.0,3.596,3.5021,3.4332,3.3888,3.2955,0.0,0.0,0.0,0.0,0.0,0.0,0.0,0.0,0.0,0.0,0.0,3.4912,3.7036,3.773,4.4723,4.9694,4.9629,1.8212,-0.4518,-0.9301,-4.3005,-5.661,-3.5779,-1.2783,1.0453,3.3713,5.6468,7.0499,7.162,7.1455,7.1824,7.3045,7.302,7.1382,6.7952,6.1326,5.5066,5.0189,4.3979,3.9776,3.9178,3.9024,3.9779,4.1757,4.3325,4.5389,4.7174,4.8574,4.9575,5.0126,4.9885,4.9007,4.6707,4.4326,4.1532,3.8111,3.6695,3.5974,3.556,3.576,3.6231,3.7185,3.7906,3.8438,3.8253,3.7819,3.7591,3.7218,0.0,3.6308,3.6121,3.6059,3.5376,3.4569,3.3699,3.3244,3.3508,3.4295,3.5483,3.7196,3.94,4.0607,4.1956,4.3363,4.3112,4.3137,4.3388,4.3388,4.3462,4.3628,4.3628,4.3669,4.3821,4.3938,4.4019,4.3939,4.4414,4.5183,4.6411,4.7217,4.5896,4.2595,4.3618,4.3643,4.262,4.262,4.2113,4.1016,3.977,0.0,0.0,0.0,0.0,0.0,0.0,0.0,0.0,3.5402,0.0,3.6319,3.6223,3.6626,3.7833,3.6484,3.5781,3.65,4.1333,4.5148,4.688,5.4202,5.813,5.597,2.0878,-0.3432,-0.7613,-4.2053,-5.2797,-2.2843,-0.6866,1.3894,4.5589,6.2447,7.0909,7.2448,7.3201,7.3819,7.4251,7.3891,7.157,6.7142,6.1211,5.5423,5.063,4.4116,3.9515,3.9024,3.913,3.9358,4.0167,4.2127,4.3778,4.584,4.7539,4.8651,4.928,4.7986,4.5882,4.3119,4.0502,3.7889,3.5678,3.4977,3.5086,3.5331,3.5575,3.5818,3.6135,3.6545,3.6911,3.8632,3.8528,3.7805,3.7446,3.7301,3.6473,3.5976,3.5707,3.4962,0.0,0.0,3.2996,3.3078,3.3651,3.5146,3.6867,3.8735,4.008,4.1801,4.3639,4.3187,4.3263,4.379,4.3689,4.3964,4.4571,4.483,4.5192,4.5662,4.5662,4.5714,4.5741,4.5928,4.6889,4.837,4.9643,4.9083,4.6645,4.6742,4.6494,4.58,4.5773,4.5181,4.3891,4.2518,4.1014,3.9345,3.8334,3.7524,3.6932,3.6801,3.7143,3.7963,3.8227,3.8791,3.9843,4.0624,4.1846,4.3489,4.1764,3.9649,3.775,4.2568,4.8644,5.5492,6.0916,6.241,5.8907,2.1782,-0.3296,-0.7095,-3.8532,-4.484,-0.715,0.26,2.2845,5.9858,6.9021,7.1437,7.288,7.4182,7.4888,7.442,7.3786,7.1459,6.6036,6.0981,5.5774,5.0419,4.432,3.9758,3.8304,3.8456,3.8772,3.8949,4.0657,4.2928,4.4443,4.6134,4.7231,4.6914,4.4973,4.2302,3.9498,3.7047,3.5289,3.3819,3.4204,3.4856,3.5098,3.5365,3.5449,3.505,3.4964,3.5242,4.0322,3.9779,3.8178,3.726,3.6867,3.6328,3.5459,3.4362,3.4217,3.3865,3.3368,3.3306,3.3534,3.3989,3.4685,3.6427,3.9101,3.9311,4.0779,4.3087,4.3011,4.3263,4.3765,4.3313,4.4102,4.5607,4.483,4.5145,4.6303,4.654,4.661,4.6796,4.7889,4.9141,5.0472,5.1225,5.1117,5.0178,4.8953,4.7674,4.6376,4.635,4.6047,4.5243,4.4128,4.3048,4.1941,4.0991,4.0038,3.9442,3.9418,4.0418,4.268,4.3074,4.4255,4.6483,4.715,4.7783,4.8522,4.8198,4.1412,2.7181,2.9074,3.9435,5.8187,6.0141,5.9678,5.6704,1.9504,-0.4913,-0.8227,-2.7824,-3.1672,-0.6149,1.5148,3.8527,6.422,6.9739,7.2054,7.4088,7.4291,7.4576,7.4841,7.3367,7.048,6.5868,6.0799,5.5436,4.9426,4.4489,4.0999,3.8111,3.8,3.8385,3.8423,3.8715,4.0999,4.4432,4.4639,4.4765,4.4597,4.2456,3.9623,3.678,3.5273,3.4267,3.3899,3.4445,3.4814,3.4835,3.4601,3.4177,3.3934,3.377,3.3895,3.9629,3.9332,3.777,3.6991,3.6763,3.6039,3.5252,3.4465,3.4445,3.4031,3.341,3.3368,3.3762,3.4424,3.4652,3.6415,3.9216,3.9216,4.0782,4.33,4.3438,4.3564,4.379,4.384,4.4735,4.612,4.5757,4.6276,4.7773,4.7668,4.7632,4.8021,4.933,5.0326,5.0888,5.1478,5.1815,5.1871,5.1235,5.0216,4.89,4.9499,4.9388,4.8516,4.7649,4.6813,4.6009,4.5183,4.4626,4.4361,4.4042,4.459,4.6038,4.6477,4.7319,4.8795,4.9639,5.0312,5.0926,5.0297,4.254,2.6045,2.4838,2.5473,2.7295,3.7852,3.8822,2.6541,0.6222,-0.9772,-2.1865,-3.9901,-3.8234,-0.6078,0.8231,2.91,5.9938,6.9682,7.2286,7.4211,7.5239,7.5341,7.4401,7.2477,6.9458,6.4925,5.9921,5.4956,5.0788,4.8282,4.4995,4.0618,3.9286,3.8633,3.8018,3.8743,4.0307,4.2637,4.3145,4.2616,4.1407,3.9406,3.736,3.4544,3.3579,3.3673,3.37,3.4348,3.4734,3.4693,3.4497,3.4114,3.3684,3.3382,3.3371,3.9197,3.88,3.7411,3.668,3.6432,3.5728,3.5169,3.4776,3.4755,3.4403,3.3886,3.3844,3.4238,3.4879,3.5004,3.663,3.8957,3.9216,4.0854,4.3475,4.3614,4.3664,4.3815,4.4141,4.5027,4.624,4.6246,4.7108,4.8702,4.8397,4.8499,4.9286,5.0466,5.1169,5.1309,5.1759,5.2293,5.2883,5.3133,5.2792,5.159,5.2461,5.2572,5.1966,5.1164,5.065,5.0378,4.9689,4.9291,4.9209,4.8823,4.8738,4.9023,4.9281,4.9618,4.9969,5.1135,5.2487,5.3714,5.3009,4.2921,2.1404,1.8177,0.8279,-0.9708,0.436,1.1677,-0.1015,-0.7963,-1.917,-3.3621,-4.7636,-4.284,-0.7767,0.3967,2.5159,5.9118,6.9322,7.2263,7.4034,7.5818,7.5979,7.38,7.1953,6.8924,6.3913,5.9504,5.6337,5.4267,5.2693,4.9657,4.532,4.204,4.003,3.8654,3.9078,4.0034,4.0619,4.1087,4.0034,3.8158,3.6766,3.5335,3.2746,3.2622,3.3129,3.3456,3.4064,3.4507,3.4362,3.4164,3.3989,3.3896,3.3623,3.3308,4.0671,3.9239,3.7527,3.6308,3.5604,3.5459,3.5169,3.4797,3.4755,3.4962,3.5169,3.5231,3.5252,3.5418,3.5769,3.7169,3.9239,3.9216,4.0663,4.2837,4.3062,4.3313,4.3689,4.3388,4.4178,4.5805,4.5817,4.6759,4.8728,4.8415,4.8752,4.9876,5.1112,5.1983,5.2461,5.2574,5.2939,5.3557,5.4644,5.4586,5.3529,5.3529,5.4061,5.5018,5.3862,5.3812,5.4387,5.3509,5.2822,5.2762,5.2651,5.2353,5.175,5.1727,5.1553,5.1105,5.3098,5.5808,5.908,5.9243,4.254,0.6493,0.2487,-1.3965,-4.9349,-3.9069,-2.1086,-1.3028,-2.2756,-3.3104,-3.6208,-3.902,-3.0784,-0.6317,1.4097,3.9704,6.1017,6.9382,7.2046,7.3914,7.5671,7.5698,7.4138,7.2323,6.9048,6.3636,6.1502,5.9762,5.8096,5.6787,5.5204,5.1148,4.6838,4.2972,4.1328,4.0032,4.014,4.018,3.8885,3.7352,3.5549,3.4089,3.2542,3.2213,3.2332,3.3195,3.3779,3.4113,3.4051,3.3927,3.3651,3.3173,3.3633,3.3833,3.3665,3.9566,3.8587,3.7353,3.6266,3.548,3.5418,3.5314,3.5148,3.5148,3.5397,3.579,3.5832,3.6185,3.6886,3.6822,3.8087,4.0292,4.0268,4.1215,4.2899,4.3313,4.3413,4.3313,4.3438,4.4479,4.6178,4.6166,4.7216,4.913,4.9687,5.0185,5.1028,5.1899,5.263,5.3332,5.4027,5.4644,5.5246,5.6807,5.7488,5.7313,5.6589,5.6221,5.6326,5.5977,5.5848,5.6286,5.5887,5.5367,5.498,5.456,5.3952,5.3068,5.326,5.3465,5.3714,5.6661,5.9792,6.2648,6.2949,4.5018,0.3733,0.023,-1.8144,-5.8569,-5.7473,-4.9752,-4.3069,-3.891,-4.0896,-5.0918,-5.2968,-3.9923,-0.9863,0.7341,2.7273,6.1764,6.9456,7.2857,7.4932,7.6798,7.7067,7.4691,7.1394,6.7873,6.4447,6.3058,6.2009,6.1679,6.0224,5.8547,5.6941,5.3275,4.8858,4.5195,4.3153,4.2145,4.0605,3.9191,3.7274,3.3853,3.361,3.3215,3.1596,3.2754,3.3963,3.4778,3.461,3.4383,3.4051,3.3844,3.3713,3.3997,3.4018,3.383,3.8129,3.755,3.6887,3.5972,3.5105,3.5479,3.5293,3.4922,3.5294,3.5687,3.608,3.5976,3.6812,3.8037,3.7855,3.8754,4.0432,4.1129,4.1932,4.2925,4.3413,4.3438,4.3263,4.3928,4.4969,4.6319,4.6892,4.8162,5.0135,5.1,5.1807,5.2505,5.3351,5.4059,5.4931,5.57,5.6514,5.7386,5.883,5.9908,6.0452,5.9955,5.9136,5.8368,5.7843,5.7767,5.8206,5.8001,5.777,5.7603,5.7113,5.6439,5.5582,5.5845,5.6293,5.7056,5.9756,6.2568,6.5118,6.4978,4.6727,0.8234,0.0354,-1.9102,-5.4938,-6.6553,-6.7578,-6.6006,-5.5181,-5.3844,-6.3185,-6.6029,-4.9936,-1.7463,-0.5484,1.6915,5.1088,6.501,7.3137,7.5446,7.7528,7.8074,7.5163,7.112,6.738,6.5344,6.4273,6.3631,6.4199,6.3078,6.2295,6.1775,5.9304,5.5421,4.9698,4.7016,4.5051,4.1805,3.9882,3.6693,3.2981,3.3401,3.3882,3.2188,3.3757,3.4675,3.4879,3.4797,3.4672,3.4548,3.432,3.4134,3.4456,3.4357,3.4351,3.7011,3.6287,3.6163,3.5341,3.426,3.5407,3.5037,3.3816,3.4818,3.5707,3.6059,3.5728,3.6685,3.8559,3.8641,3.8898,3.9613,4.1115,4.2274,4.295,4.3062,4.3313,4.3853,4.4668,4.5512,4.6342,4.7864,4.9414,5.0944,5.2149,5.329,5.4351,5.5503,5.669,5.7565,5.7779,5.859,5.9717,6.0608,6.1379,6.2501,6.2933,6.2527,6.1243,5.9834,5.9692,6.0814,6.009,6.0048,6.1081,6.0892,6.065,6.0098,5.9957,6.0324,6.096,6.171,6.3502,6.6106,6.3917,4.5225,0.9507,-0.3129,-2.1643,-6.0662,-6.8517,-7.0092,-7.0434,-6.956,-6.9622,-6.9739,-6.8519,-5.6866,-3.2889,-1.1155,1.1901,3.6611,6.1076,7.1339,7.5043,7.7642,7.7664,7.4859,7.1627,6.8238,6.597,6.5087,6.4892,6.4673,6.5828,6.6035,6.5017,6.3626,6.1554,5.5182,5.1073,4.7599,4.3974,4.0271,3.6258,3.4059,3.2408,3.2464,3.2797,3.4144,3.4819,3.4838,3.4734,3.4631,3.4407,3.4183,3.4242,3.4166,3.4814,3.481,3.6867,3.6408,3.5187,3.4428,3.4023,3.3618,3.354,3.3936,3.4318,3.5341,3.6346,3.637,3.6728,3.7551,3.8698,3.9781,4.0858,4.1564,4.2494,4.34,4.3514,4.379,4.4382,4.532,4.6395,4.7483,4.9114,5.0851,5.2602,5.3856,5.4806,5.57,5.6868,5.8029,5.9177,6.0001,6.0882,6.1814,6.3183,6.3922,6.3818,6.4043,6.3389,6.1791,6.1382,6.1457,6.1968,6.144,6.146,6.2131,6.1974,6.1708,6.1611,6.1932,6.2245,6.269,6.4049,6.595,6.6248,5.351,3.2847,0.4989,-1.5094,-3.6161,-6.2284,-7.1529,-7.3267,-7.37,-7.5068,-7.5625,-7.49,-7.2479,-5.6272,-2.3685,-0.6299,1.5614,4.7671,6.7082,7.515,7.677,7.839,7.7609,7.4084,7.1257,6.8385,6.4804,6.441,6.4783,6.5345,6.6677,6.7584,6.7435,6.7114,6.5956,6.2848,5.5866,5.0529,4.5943,4.1717,3.7092,3.3913,3.3615,3.3598,3.3437,3.4447,3.5191,3.5273,3.4964,3.4697,3.4207,3.3942,3.3676,3.35,3.3813,3.394,3.6763,3.6691,3.5091,3.4173,3.365,3.271,3.2372,3.3067,3.3849,3.4933,3.597,3.6527,3.6887,3.7182,3.8337,3.9648,4.1108,4.1924,4.268,4.335,4.3836,4.4367,4.5077,4.632,4.76,4.9007,5.0925,5.2739,5.4543,5.5731,5.6799,5.7827,5.8919,6.0198,6.134,6.2236,6.2922,6.3786,6.4789,6.4934,6.4371,6.3828,6.284,6.1445,6.1588,6.1784,6.1714,6.1916,6.2358,6.2872,6.2869,6.2885,6.3363,6.3299,6.3451,6.3777,6.4933,6.6537,6.5346,4.6381,2.3816,0.1934,-2.3124,-4.7674,-6.8772,-7.425,-7.5738,-7.6554,-7.7734,-7.8826,-7.8811,-7.7035,-5.9673,-2.4186,-0.6809,1.5843,5.2525,6.8577,7.603,7.8435,7.9412,7.7692,7.3739,7.1066,6.8007,6.422,6.361,6.361,6.52,6.7064,6.8436,6.9093,6.8902,6.7945,6.4748,5.8812,5.2917,4.8273,4.2326,3.7729,3.5026,3.4824,3.4544,3.4417,3.4705,3.5353,3.5541,3.5232,3.4673,3.3922,3.3426,3.3058,3.2815,3.26,3.2826,3.666,3.7253,3.5865,3.4413,3.3299,3.2856,3.1915,3.1243,3.335,3.4595,3.5238,3.6221,3.7177,3.7446,3.7681,3.8378,3.9682,4.2017,4.3,4.2974,4.4036,4.497,4.5784,4.7974,4.9507,5.0524,5.3176,5.507,5.6317,5.7456,5.8859,6.0655,6.1534,6.2501,6.4263,6.3994,6.4547,6.4821,6.4538,6.4163,6.3687,6.2394,6.1187,6.0144,6.035,6.0494,6.0316,6.1379,6.2516,6.3671,6.4045,6.4605,6.5077,6.4309,6.3859,6.4353,6.4498,6.5269,6.4288,4.2922,1.8275,-0.1021,-2.6623,-5.2846,-7.0091,-7.6216,-7.7946,-7.8599,-7.9582,-8.06,-8.1506,-8.1116,-6.9029,-4.2359,-1.5096,1.2,3.7584,6.2256,7.7943,7.9705,8.0453,7.8915,7.4794,7.0951,6.771,6.4952,6.2658,6.2035,6.4741,6.7291,6.9093,6.968,6.9395,6.8466,6.5091,6.1001,5.5701,5.0286,4.3776,3.8502,3.6677,3.5929,3.54,3.5234,3.5326,3.5956,3.5624,3.5085,3.4193,3.3544,3.3019,3.2256,3.1744,3.1488,3.1873,3.6949,3.7336,3.5865,3.4509,3.3138,3.2028,3.1271,3.1047,3.2819,3.4336,3.5661,3.7075,3.7839,3.7943,3.7964,3.8228,3.8866,4.1339,4.2715,4.3313,4.4606,4.6079,4.7674,4.9112,5.1223,5.3585,5.5205,5.6254,5.7168,5.8318,5.9504,6.0783,6.1288,6.2056,6.3295,6.3326,6.3101,6.2517,6.307,6.2641,6.1365,6.0832,5.9697,5.8401,5.8961,5.9117,5.8136,6.039,6.1822,6.2291,6.3292,6.4482,6.5262,6.5278,6.4881,6.4634,6.4566,6.5511,6.2335,3.0889,0.5584,-0.869,-4.017,-6.5046,-7.5322,-7.8402,-7.9495,-7.9836,-8.0782,-8.1753,-8.2055,-8.2036,-7.0165,-4.3837,-1.6441,1.0943,3.8785,6.3239,7.7073,8.0049,8.0498,7.8183,7.3607,7.0039,6.728,6.3485,6.1854,6.2364,6.4899,6.7578,6.9566,6.9972,6.9403,6.7492,6.3267,5.8563,5.3392,4.8865,4.3467,3.9217,3.7634,3.6717,3.6275,3.6111,3.6201,3.5995,3.5663,3.4956,3.4061,3.2931,3.2166,3.1377,3.0584,3.0455,3.0972,3.7488,3.7625,3.6261,3.5143,3.3923,3.212,3.1652,3.2314,3.3302,3.4627,3.6485,3.7787,3.8419,3.8398,3.8274,3.8191,3.8437,4.0946,4.266,4.3564,4.5327,4.706,4.8989,5.075,5.328,5.6045,5.6929,5.7435,5.8147,5.8946,5.9947,6.0816,6.0969,6.1438,6.236,6.2177,6.1619,6.1228,6.1486,6.1014,5.9666,5.9148,5.8156,5.6936,5.7664,5.7299,5.5935,5.8001,5.9888,6.127,6.2939,6.4308,6.5009,6.4924,6.4615,6.4256,6.3514,6.2032,5.2944,1.8997,-0.7951,-2.0105,-5.2484,-7.5124,-7.7911,-7.9467,-8.0188,-8.0304,-8.1271,-8.2089,-8.2133,-8.1987,-7.2546,-5.5616,-2.1688,1.3604,4.6623,6.9063,7.8618,8.0087,8.014,7.71,7.2732,6.924,6.6452,6.2313,6.1014,6.1909,6.4288,6.6922,6.8115,6.838,6.7134,6.4334,6.0775,5.6019,5.0837,4.6799,4.2631,3.9677,3.7551,3.7161,3.6923,3.667,3.6784,3.6556,3.6201,3.5093,3.3985,3.2848,3.1727,3.075,3.0083,2.9691,2.9917,3.8274,3.8161,3.7132,3.6485,3.5606,3.3103,3.3002,3.4098,3.4593,3.5641,3.7151,3.8255,3.8677,3.873,3.8357,3.8325,3.8835,4.1057,4.2719,4.3937,4.6017,4.8268,5.0201,5.2902,5.5501,5.7706,5.8137,5.8531,5.8924,5.9486,6.0409,6.0879,6.0727,6.1052,6.1343,6.1104,6.0663,6.0261,6.0036,5.9214,5.8172,5.7567,5.6737,5.5757,5.6394,5.5992,5.4339,5.477,5.6858,6.028,6.2171,6.3359,6.3639,6.3551,6.337,6.3429,6.3307,5.3439,3.534,1.1868,-1.2535,-3.1945,-5.7603,-7.6786,-7.8168,-7.9546,-8.0473,-8.0563,-8.1519,-8.2209,-8.2286,-8.202,-7.631,-6.3743,-2.3933,2.0379,6.8946,7.932,7.9934,7.9857,7.9438,7.7167,7.086,6.7621,6.4248,6.0833,5.9152,6.0227,6.2569,6.4894,6.6199,6.5536,6.385,5.9885,5.588,5.2634,4.7673,4.4251,4.1194,3.9831,3.7933,3.767,3.7529,3.7405,3.7156,3.6929,3.6465,3.5497,3.4428,3.3521,3.2319,3.0692,2.9952,2.9561,2.9162,3.9185,3.9048,3.8876,3.7806,3.6484,3.5883,3.5182,3.4667,3.5933,3.6707,3.7148,3.8199,3.8739,3.8385,3.8264,3.857,3.9668,4.1455,4.318,4.4724,4.7582,5.0428,5.285,5.5298,5.7108,5.825,5.839,5.8615,5.9121,5.8899,5.9308,6.0233,5.9126,5.8697,5.9152,5.9065,5.8174,5.7254,5.7707,5.7393,5.6621,5.6645,5.627,5.5552,5.536,5.4488,5.2913,5.2217,5.3332,5.6373,5.8831,6.0677,6.1692,6.2134,6.268,6.3631,6.324,5.5424,3.52,1.146,-1.216,-3.4021,-6.0823,-7.6722,-7.8977,-8.0126,-8.108,-8.1748,-8.2583,-8.3077,-8.3502,-8.2693,-6.5841,-2.7623,-0.6462,2.4143,6.5783,7.9853,8.0254,7.9752,7.8713,7.408,6.7884,6.38,6.0569,5.6763,5.6222,5.7513,5.9815,6.1868,6.2809,6.1127,5.8908,5.4786,5.0975,4.8032,4.4761,4.1556,3.9862,3.9886,3.8657,3.8199,3.8013,3.7964,3.7488,3.7177,3.6835,3.6111,3.5182,3.4269,3.2803,3.1299,3.0283,2.9657,2.9059,3.9425,3.9281,3.9605,3.8983,3.7886,3.7389,3.7168,3.6867,3.7363,3.7901,3.8204,3.8563,3.8712,3.8671,3.8595,3.9205,4.0279,4.2221,4.3938,4.5776,4.9519,5.2588,5.4855,5.6865,5.8081,5.8643,5.8671,5.8896,5.9008,5.8362,5.8475,5.8867,5.7542,5.6953,5.7453,5.7197,5.6678,5.5842,5.6363,5.6534,5.5945,5.6507,5.6648,5.6192,5.5529,5.432,5.1977,5.0722,5.1105,5.3023,5.5166,5.7442,5.9097,6.0476,6.1881,6.3611,6.4634,5.394,2.7169,0.6976,-1.5428,-4.274,-6.6381,-7.4067,-7.7855,-7.9433,-8.0692,-8.1285,-8.2444,-8.3095,-8.2467,-8.0183,-5.3945,-1.4641,0.3128,2.6638,7.2259,7.8006,7.7852,7.6653,7.4164,6.9651,6.114,5.8383,5.4616,5.1169,5.104,5.3158,5.556,5.7513,5.8147,5.6075,5.3972,5.0254,4.7258,4.4634,4.3005,3.978,3.8978,3.9018,3.8756,3.836,3.8312,3.8067,3.7715,3.7467,3.7061,3.6575,3.5739,3.4516,3.3215,3.2004,3.112,2.9847,2.9103,3.9473,3.9146,3.9976,4.0034,3.9363,3.8207,3.8568,3.9695,3.8766,3.9006,3.9678,3.919,3.906,3.906,3.9185,3.9883,4.1045,4.347,4.5596,4.8115,5.1588,5.479,5.6593,5.8119,5.8956,5.9408,5.9426,5.9301,5.9048,5.8025,5.7762,5.794,5.662,5.617,5.6598,5.626,5.5777,5.5945,5.6429,5.6745,5.6648,5.7126,5.7322,5.7126,5.6085,5.4336,5.1768,5.024,5.0052,4.9955,5.2491,5.4714,5.6473,5.878,6.1638,6.3928,6.4168,5.0066,1.5103,0.2798,-1.8887,-5.4449,-6.8957,-7.4322,-7.6481,-7.844,-8.001,-8.1049,-8.2143,-8.2476,-8.0099,-7.4335,-4.7935,-1.114,0.3011,2.9048,6.1196,7.4839,7.4598,7.1952,6.8083,6.1449,5.5021,5.0551,4.7958,4.3962,4.4889,4.7708,4.9689,5.1281,5.1322,5.0138,4.7973,4.5942,4.3519,4.1298,4.0127,3.8597,3.8576,3.8507,3.8507,3.8242,3.8283,3.8067,3.7881,3.7674,3.7446,3.6725,3.6058,3.5308,3.4082,3.3046,3.1935,3.0316,2.931,4.0126,4.0045,4.0554,4.0489,4.0038,4.0124,4.0144,4.0121,3.9861,3.9757,3.9656,3.8929,3.9122,3.975,3.9976,4.0957,4.3059,4.5605,4.848,5.2615,5.394,5.6664,5.8817,6.0168,6.0572,6.0745,6.0745,6.0137,5.9267,5.8203,5.7724,5.8015,5.6957,5.6535,5.7041,5.6901,5.6957,5.7013,5.7097,5.7154,5.735,5.7922,5.8062,5.7612,5.6308,5.4664,5.3005,5.1393,5.0623,5.1016,5.2623,5.4836,5.6342,6.0103,6.3508,6.5327,6.5452,4.9157,1.4918,-0.0986,-1.9093,-5.9145,-7.0419,-7.4145,-7.6273,-7.8497,-8.0581,-8.2131,-8.3238,-8.2277,-7.7369,-6.1891,-3.7932,-1.0587,1.0596,3.0929,5.7216,6.9082,7.0171,6.677,6.1757,5.5589,4.7499,4.3639,4.0621,3.755,3.877,4.1741,4.3578,4.5014,4.4828,4.3974,4.3505,4.1791,4.0807,3.9325,3.9039,3.8333,3.8262,3.8191,3.8191,3.8191,3.8191,3.8171,3.8129,3.7881,3.7529,3.7343,3.6712,3.5895,3.4879,3.3709,3.2314,3.0883,2.9506,4.0,4.0306,4.0535,4.0453,4.0309,4.0494,4.0473,4.0309,4.0208,4.0166,3.9963,3.947,3.9875,4.0552,4.1284,4.2821,4.5219,4.7848,5.0839,5.3955,5.5716,5.7973,6.0764,6.208,6.2582,6.1998,6.1316,6.048,5.9508,5.8277,5.7519,5.7781,5.6873,5.6725,5.7173,5.721,5.7069,5.7294,5.7407,5.7603,5.8099,5.9277,5.9915,5.9796,5.9132,5.8379,5.6576,5.6063,5.5289,5.5247,5.6301,5.6711,5.7062,6.1256,6.5128,6.6582,5.7693,4.091,1.2503,-0.9011,-3.0495,-6.3261,-7.0783,-7.3513,-7.6013,-7.8406,-8.0506,-8.2009,-8.1993,-8.0126,-6.9557,-5.6118,-3.1942,-0.4936,1.2895,3.0979,5.0276,6.0997,6.3689,5.9141,5.3429,4.661,4.0593,3.7044,3.4507,3.1824,3.3523,3.6276,3.6942,3.8291,3.8637,3.8402,3.8654,3.8151,3.7737,3.7499,3.8109,3.8013,3.8026,3.8109,3.8191,3.8191,3.8191,3.8171,3.8109,3.7819,3.7488,3.7343,3.7074,3.6218,3.5159,3.4007,3.3008,3.2066,3.0612,3.9539,4.0257,4.0164,4.0166,4.0166,4.031,4.031,4.031,4.031,4.0392,4.035,4.0583,4.0985,4.1961,4.3122,4.5007,4.777,5.0079,5.3041,5.5574,5.7126,5.9626,6.2121,6.3568,6.4178,6.3357,6.2288,6.1263,5.9853,5.8417,5.774,5.7519,5.6865,5.7089,5.7454,5.7229,5.735,5.7828,5.7884,5.8523,5.9436,6.0991,6.1964,6.3388,6.4443,6.4214,6.2747,6.221,6.1809,6.0913,6.2143,6.1247,6.0952,6.3097,6.375,6.3861,4.8828,2.7027,-0.0181,-2.1043,-4.1328,-6.5083,-7.0899,-7.3515,-7.5328,-7.7885,-7.9889,-8.0034,-7.9267,-7.3005,-5.7766,-4.2006,-2.228,0.1591,1.4327,2.798,4.2289,5.1482,5.1356,5.0049,4.5128,3.8937,3.4246,3.0541,2.8403,2.7356,2.932,3.084,3.1783,3.2615,3.3816,3.5131,3.5981,3.7287,3.7068,3.7006,3.7418,3.7289,3.7565,3.7668,3.777,3.7482,3.7348,3.7975,3.7984,3.7604,3.7398,3.7343,3.697,3.6349,3.5684,3.4689,3.3977,3.3251,3.1488,3.9215,3.942,3.9714,3.9818,3.9858,4.0187,4.0207,4.033,4.0289,4.0634,4.0983,4.0932,4.2345,4.4101,4.5254,4.7922,5.1085,5.2978,5.5166,5.7701,5.9217,6.1226,6.3467,6.4659,6.5173,6.5374,6.4162,6.2371,6.0413,5.8813,5.8369,5.8107,5.7612,5.7893,5.8531,5.8783,5.8474,5.8587,5.8643,5.938,6.1077,6.2972,6.5167,6.7441,6.9252,6.9803,6.9879,6.9233,6.8741,6.8668,6.8316,6.8068,6.7056,6.8663,6.0203,4.7588,3.7032,1.5178,-1.6161,-3.042,-4.6364,-6.2566,-7.098,-7.296,-7.4731,-7.7085,-7.8775,-7.7001,-7.2353,-6.4231,-5.3031,-3.1438,-1.144,0.6554,2.0635,3.283,3.823,3.9893,4.0173,3.9986,3.6133,3.3145,2.9809,2.7304,2.6546,2.6354,2.7818,2.9121,3.0001,3.0672,3.1374,3.2872,3.4477,3.597,3.713,3.7061,3.7135,3.6489,3.6515,3.6729,3.6654,3.6384,3.6499,3.6864,3.7226,3.7238,3.7146,3.7033,3.6794,3.6065,3.5677,3.5415,3.449,3.3494,3.1684,3.9149,3.9473,3.9525,3.9425,3.9445,3.961,3.9754,3.9838,4.0207,4.0667,4.1507,4.2748,4.4239,4.5964,4.7445,5.0227,5.2952,5.4801,5.6722,5.9016,6.0832,6.2324,6.446,6.5602,6.6248,6.647,6.5586,6.4226,6.2078,6.0808,5.9801,5.9209,5.8971,5.9009,5.902,5.8812,5.898,5.9064,5.898,5.9967,6.2633,6.5421,6.9335,7.1766,7.383,7.4829,7.4855,7.5224,7.468,7.4254,7.3759,7.3631,7.0679,6.0941,5.0555,3.6288,1.7739,-0.3493,-3.0792,-4.2765,-5.8149,-6.6364,-7.07,-7.2413,-7.435,-7.6387,-7.6749,-7.2424,-6.514,-5.3442,-3.704,-1.8149,-0.3271,1.0026,2.268,2.9312,3.115,3.0626,3.1128,3.1799,3.0114,2.8427,2.6982,2.5319,2.5027,2.5524,2.6542,2.7614,2.8593,2.9074,2.9805,3.1303,3.3034,3.4675,3.6002,3.6244,3.605,3.5432,3.5452,3.5646,3.5393,3.4983,3.4983,3.5237,3.5724,3.5763,3.5973,3.5488,3.5627,3.5921,3.5753,3.5432,3.4736,3.351,3.1999,3.837,3.9267,3.907,3.8951,3.8892,3.9017,3.9161,3.9369,4.0241,4.0923,4.1754,4.4387,4.6279,4.7572,4.9569,5.2033,5.4597,5.6124,5.7945,6.0255,6.2133,6.3533,6.4827,6.6185,6.7427,6.7054,6.708,6.6058,6.3656,6.2395,6.1506,6.0734,6.0443,6.02,5.9692,5.9456,5.9239,5.8868,5.8439,5.9567,6.3684,6.9335,7.4001,7.634,7.8456,7.9416,7.924,7.9628,7.9651,7.9029,7.833,7.7758,7.2675,5.0446,3.3945,2.4033,-0.8174,-2.813,-4.4466,-5.4711,-6.5474,-6.9026,-7.0341,-7.2048,-7.3326,-7.4092,-7.2846,-6.6065,-5.5854,-4.2823,-2.533,-1.1213,0.1655,1.315,2.0227,2.3785,2.5781,2.6282,2.6087,2.5982,2.512,2.477,2.4329,2.4966,2.4988,2.5959,2.7,2.751,2.8341,2.8129,2.8774,3.0178,3.1746,3.3463,3.4556,3.4969,3.4602,3.3891,3.4091,3.4571,3.402,3.3448,3.3641,3.3751,3.293,3.3071,3.343,3.4327,3.4854,3.5284,3.561,3.5529,3.5187,3.4634,3.355,3.6285,3.7578,3.7875,3.8117,3.8008,3.83,3.8746,3.905,3.982,4.1077,4.1507,4.4948,4.715,4.8982,5.1636,5.4211,5.6108,5.7594,5.9448,6.198,6.3605,6.4893,6.6016,6.6385,6.7362,6.7636,6.7942,6.6338,6.4746,6.3547,6.2604,6.2108,6.2007,6.1495,6.1015,6.0923,6.0202,5.9301,5.8088,5.99,6.5224,7.2016,7.6257,7.9323,8.1735,8.3519,8.337,8.3663,8.3483,8.3064,8.1325,7.9948,7.2109,3.5754,1.4405,0.0698,-1.736,-3.9981,-5.8495,-6.5697,-6.8184,-6.9149,-7.027,-7.1878,-7.1629,-6.956,-6.6126,-5.9235,-4.6441,-3.2126,-1.7322,-0.5694,0.603,1.3704,1.9779,2.2583,2.4433,2.4114,2.3774,2.3671,2.3593,2.3598,2.3391,2.4331,2.5257,2.6245,2.7214,2.7693,2.8057,2.7979,2.8378,2.9935,3.0897,3.2467,3.3291,3.3614,3.3345,3.2474,3.2833,3.3418,3.293,3.2438,3.2402,3.2204,3.1397,3.1524,3.2632,3.3539,3.4209,3.4701,3.5,3.5461,3.5889,3.5353,3.4777,3.334,3.5152,3.5447,3.5502,3.5355,3.5364,3.5253,3.5567,3.6915,3.8242,3.9888,4.3438,4.6762,4.9507,5.1762,5.3565,5.5842,5.7742,5.9938,6.2435,6.4166,6.5458,6.6226,6.7374,6.8241,6.7748,6.86,6.8501,6.6735,6.623,6.5948,6.4584,6.4549,6.4023,6.3088,6.312,6.2224,6.1344,6.0908,6.252,6.6758,7.1886,7.6845,8.0612,8.3336,8.494,8.6004,8.644,8.5678,8.468,8.2614,8.0468,6.7895,3.649,0.5394,-0.1824,-3.4157,-5.6843,-6.7407,-6.8641,-6.8822,-6.9029,-6.9614,-6.9521,-6.7534,-6.3127,-5.5996,-4.5512,-3.464,-2.2328,-1.071,-0.0725,0.7315,1.4041,1.8421,2.0263,2.2229,2.2608,2.2374,2.2374,2.2397,2.2721,2.3171,2.4424,2.5571,2.6966,2.7701,2.7992,2.8161,2.8196,2.8905,2.9935,3.0804,3.1616,3.2093,3.2514,3.2295,3.1722,3.1645,3.2027,3.181,3.1608,3.1743,3.1878,3.1543,3.1878,3.2429,3.2648,3.3002,3.3651,3.4275,3.5078,3.5731,3.6408,3.5631,2.9612,3.1048,3.2837,3.3321,3.2928,3.2631,3.2438,3.2368,3.4298,3.5801,3.7719,4.1525,4.5822,4.8704,5.008,5.1842,5.4715,5.6908,5.9442,6.1739,6.3749,6.5145,6.6194,6.7777,6.8143,6.7359,6.9148,6.9556,6.9677,6.9495,6.9316,6.7452,6.7673,6.6995,6.5965,6.5612,6.5067,6.2516,6.3436,6.4755,6.6889,7.0429,7.5091,7.9071,8.2436,8.4813,8.6456,8.6913,8.6083,8.5149,8.2482,7.9818,7.029,3.3511,0.586,-0.9084,-4.0875,-6.6412,-6.9783,-6.9886,-6.9275,-6.8278,-6.5212,-6.1923,-5.8411,-5.378,-4.4379,-3.0274,-2.234,-1.2421,-0.3506,0.4245,0.9234,1.3685,1.7005,1.8192,1.9611,2.1048,2.2029,2.2056,2.2335,2.278,2.3364,2.4624,2.5888,2.7445,2.813,2.8411,2.8395,2.8395,2.8774,2.9691,3.0686,3.1073,3.0999,3.1208,3.0995,3.123,3.1136,3.1309,3.1521,3.1689,3.1839,3.1826,3.1795,3.1878,3.2436,3.2098,3.1888,3.265,3.355,3.4697,3.5485,3.6345,3.6224,2.5045,2.4432,3.041,3.221,3.1635,3.1738,3.1493,3.1125,3.316,3.4428,3.6013,4.0422,4.389,4.5847,4.7399,4.9681,5.3468,5.4157,5.7455,6.0797,6.3391,6.4537,6.5733,6.6855,6.777,6.8601,6.9599,7.0473,7.158,7.2253,7.1656,7.0305,7.0733,7.0053,6.9221,6.8798,6.759,6.5612,6.6107,6.6005,6.6813,6.9206,7.2841,7.6116,7.932,8.2183,8.4699,8.4818,8.4789,8.4289,8.0755,7.4103,6.2267,2.7238,0.315,-1.6053,-4.6745,-6.8641,-7.1387,-7.0499,-6.8492,-6.5269,-5.9241,-5.0405,-4.2548,-3.2673,-2.3088,-1.5764,-0.9348,-0.3802,0.2891,0.7821,1.1366,1.3789,1.6329,1.801,1.951,2.1245,2.1941,2.1921,2.219,2.2607,2.3901,2.5144,2.6186,2.7629,2.8677,2.8959,2.8807,2.879,2.8659,2.9236,3.0434,3.0743,3.0083,3.0259,3.1116,3.1474,3.1524,3.1716,3.1952,3.2007,3.2291,3.2226,3.2359,3.2392,3.2307,3.2226,3.2233,3.232,3.2967,3.4084,3.539,3.6499,3.6014,2.3637,2.3214,2.6634,2.7705,2.7354,2.7988,2.8374,2.856,3.0054,3.2861,3.5725,3.875,4.0846,4.2333,4.3583,4.5723,4.882,5.1031,5.4516,5.7944,6.06,6.2969,6.4768,6.6488,6.7709,6.821,6.9115,6.9743,7.0186,7.312,7.3928,7.347,7.3878,7.3493,7.2859,7.2178,7.0897,7.0164,6.917,6.8438,6.8938,7.0108,7.321,7.7352,7.6572,7.9648,8.2026,8.0309,8.0119,7.8046,7.4075,6.4723,5.0938,1.6878,-0.5447,-2.2218,-5.5134,-6.8982,-7.1698,-6.9945,-6.506,-5.0145,-4.5184,-3.8003,-2.2674,-1.3216,-0.829,-0.2765,0.1748,0.5758,0.7317,0.9998,1.2364,1.4184,1.5922,1.7723,1.944,2.1185,2.2193,2.2259,2.2386,2.2643,2.4011,2.5679,2.6647,2.7705,2.8656,2.9359,2.9389,2.9321,2.9223,2.9192,3.0264,3.0758,3.0105,3.0669,3.1427,3.1735,3.1929,3.2381,3.2724,3.2991,3.3245,3.3145,3.2944,3.2995,3.2827,3.2609,3.2442,3.2103,3.2578,3.3429,3.4919,3.6619,3.6036,2.1893,2.136,2.2741,2.377,2.4345,2.5383,2.6083,2.6777,2.8034,3.0935,3.5087,3.63,3.7458,3.8785,3.9814,4.1834,4.4511,4.7085,5.0778,5.4286,5.7627,6.085,6.3533,6.5628,6.6951,6.7555,6.9145,7.0122,7.0985,7.3774,7.5283,7.6269,7.7203,7.717,7.6261,7.5759,7.5427,7.498,7.3728,7.2203,7.2779,7.1985,6.5754,6.6875,6.2436,5.6138,5.3822,4.91,4.9961,4.9797,4.7532,4.1156,2.4272,0.3987,-1.8409,-3.8938,-5.7666,-7.2255,-7.1311,-6.1784,-5.3889,-4.1719,-2.3897,-1.2914,-0.1144,0.4684,0.8901,1.1096,1.2763,1.2318,1.2447,1.3289,1.3895,1.5545,1.659,1.8084,1.9543,2.1063,2.2024,2.2645,2.279,2.2854,2.4091,2.5783,2.7818,2.8691,2.9427,2.9901,2.9798,2.973,2.9696,2.9833,3.0155,3.0496,3.0583,3.1133,3.1668,3.2156,3.2446,3.3353,3.3775,3.4005,3.4249,3.4224,3.4057,3.3614,3.3262,3.281,3.2292,3.1743,3.2456,3.3534,3.5321,3.6846,3.6802,1.9298,1.8003,1.9456,2.145,2.336,2.4635,2.5654,2.6918,2.8094,3.0083,3.2765,3.376,3.4512,3.5541,3.6703,3.8619,4.0986,4.2799,4.6291,5.1228,5.4268,5.806,6.1709,6.4359,6.6358,6.8536,6.9982,7.1323,7.3052,7.5195,7.705,7.9105,8.0302,8.0844,7.9566,8.0146,8.0114,7.9324,7.8159,7.748,7.6166,7.3543,6.4061,5.0086,4.4253,3.7484,2.3229,1.8392,1.882,1.9083,1.6688,1.0746,0.0832,-1.8758,-3.4555,-4.3648,-6.3426,-7.2101,-6.8743,-4.5771,-3.1942,-2.5937,-0.6098,0.9848,1.4768,1.9652,2.3583,2.3628,2.2165,1.9908,1.8532,1.6722,1.6642,1.6384,1.7435,1.8445,1.9916,2.142,2.2378,2.2995,2.3031,2.3328,2.4406,2.5992,2.8572,2.9916,3.0375,3.0446,3.0343,3.0292,3.0258,3.0241,3.0395,3.0617,3.0857,3.1251,3.1769,3.2364,3.3036,3.3714,3.4433,3.4665,3.4974,3.5285,3.4716,3.3996,3.3569,3.2974,3.2709,3.2643,3.2911,3.4001,3.5863,3.6775,3.6285,1.6736,1.6265,1.7564,1.9149,2.1019,2.3176,2.5339,2.777,3.0047,3.197,3.2825,3.3342,3.3565,3.4047,3.4579,3.591,3.7784,3.9693,4.3241,4.6736,5.0585,5.4692,5.882,6.2871,6.5606,6.8044,6.9888,7.221,7.4262,7.6502,7.8521,8.0566,8.2911,8.3596,8.3044,8.3439,8.4019,8.3066,8.1918,8.0643,7.9092,7.5077,6.3263,4.0834,3.388,1.9592,-0.2501,-0.7688,-0.7859,-0.5638,-0.6847,-1.0366,-1.7593,-3.4486,-4.29,-5.1745,-6.6981,-5.5212,-3.9725,-1.6766,0.2612,0.7208,1.1495,2.6032,3.5385,3.4571,3.4964,3.2419,2.8804,2.5746,2.2698,2.0334,1.931,1.7545,1.7995,1.8996,2.0312,2.1877,2.3007,2.3273,2.3406,2.5477,2.6887,2.7281,2.9473,3.1416,3.2015,3.1131,3.0772,3.0754,3.072,3.0566,3.0617,3.0857,3.1131,3.1649,3.1804,3.2118,3.2985,3.4015,3.4591,3.5457,3.6104,3.6713,3.5443,3.4468,3.4358,3.4173,3.3935,3.3863,3.4191,3.4009,3.4759,3.5392,3.526,1.5844,1.5385,1.6765,1.7895,1.9149,2.2127,2.5373,2.8674,3.2037,3.3605,3.3749,3.3773,3.3769,3.3776,3.3946,3.4774,3.6193,3.7992,4.1579,4.476,4.8421,5.317,5.7674,6.1414,6.4865,6.7711,7.0772,7.337,7.6015,7.7939,8.0098,8.2509,8.4937,8.5297,8.5265,8.5794,8.6029,8.4949,8.3781,8.3235,8.1126,7.4383,5.9627,3.4923,1.7408,0.2849,-1.9557,-2.9201,-2.9883,-2.6733,-2.7007,-2.7459,-3.4164,-3.6558,-4.0495,-4.4331,-4.2446,-2.9803,-1.2736,-0.1152,1.5256,2.8203,2.8688,3.5407,4.5489,4.1086,3.8697,3.6195,3.3441,2.9672,2.5837,2.3599,2.1089,1.9334,1.9569,2.0711,2.2673,2.4405,2.4208,2.4327,2.4332,2.6666,2.8972,2.9559,3.0465,3.2058,3.358,3.2484,3.1474,3.1525,3.1525,3.1337,3.1302,3.1593,3.1855,3.1907,3.2135,3.2066,3.3408,3.4939,3.5908,3.7034,3.749,3.7808,3.6852,3.6047,3.5717,3.5494,3.5595,3.5569,3.5771,3.5257,3.421,3.4915,3.5922,1.6429,1.5231,1.6612,1.7496,1.8284,2.1871,2.5685,2.9538,3.3242,3.4634,3.435,3.4627,3.4817,3.4652,3.4608,3.5616,3.7249,3.8744,4.2213,4.5772,4.8013,5.2822,5.6939,6.0794,6.4504,6.8269,7.1798,7.5029,7.7924,7.994,8.2105,8.3967,8.5761,8.6131,8.641,8.6531,8.6424,8.557,8.4979,8.4116,8.2144,7.3702,4.7696,2.0736,-0.1986,-2.8069,-5.141,-6.667,-6.7411,-6.5885,-6.4146,-5.1818,-4.2265,-3.3164,-1.9534,-1.0384,-0.8487,-0.2681,0.5375,1.396,2.1659,3.4964,4.2413,4.6269,4.4884,4.1765,3.9716,3.7704,3.4976,3.1581,2.8221,2.5571,2.29,2.2408,2.2338,2.394,2.5993,2.6594,2.5936,2.5555,2.51,2.6607,2.9449,3.0543,3.1678,3.3231,3.4487,3.4025,3.3169,3.2895,3.2792,3.2398,3.2398,3.2501,3.2629,3.2532,3.2878,3.295,3.4972,3.6583,3.7521,3.8344,3.901,3.9052,3.8248,3.7783,3.7391,3.7461,3.7595,3.7754,3.7915,3.7301,3.6576,3.7649,3.8531,1.6347,1.5262,1.5727,1.6726,1.8805,2.3313,2.6863,2.9479,3.3011,3.4684,3.5187,3.6037,3.6572,3.6394,3.6687,3.8053,3.9361,4.092,4.2946,4.5519,4.8588,5.1741,5.5562,5.9997,6.4416,6.8907,7.2961,7.6365,7.9806,8.1985,8.3081,8.4609,8.5585,8.5956,8.6114,8.6195,8.5856,8.5357,8.4758,8.1679,7.4172,6.2598,3.2913,0.5999,-1.8758,-4.6435,-6.8928,-7.8197,-7.6906,-7.3726,-5.5918,-4.0107,-3.4024,-1.6804,-0.0125,0.6224,0.7824,1.0722,1.9844,2.3707,2.8047,3.3465,3.8243,3.9854,3.988,3.9861,3.8724,3.7326,3.5504,3.2077,2.9714,2.7296,2.5257,2.4815,2.5089,2.6297,2.806,2.8218,2.756,2.7027,2.6405,2.7689,3.0407,3.1884,3.3047,3.4559,3.5344,3.5035,3.4642,3.4299,3.3854,3.3443,3.3186,3.3186,3.3008,3.2878,3.3482,3.4244,3.6189,3.7942,3.877,3.9566,4.0472,4.0691,4.0335,3.9698,3.911,3.9208,3.8989,3.9956,4.0176,3.96,3.9317,4.0027,4.0238,1.774,1.6522,1.7036,1.7898,1.9349,2.3666,2.672,2.9216,3.3271,3.569,3.6603,3.842,3.9276,3.961,4.0604,4.2116,4.3843,4.4963,4.6882,4.9621,5.0405,5.3696,5.7077,6.0677,6.5042,6.9566,7.3529,7.6835,8.0211,8.2484,8.3721,8.3187,8.4366,8.4938,8.5005,8.4721,8.4262,8.3658,8.1659,7.5896,6.2936,4.736,2.1771,-0.8776,-3.2894,-5.3525,-7.4344,-7.8487,-7.7739,-7.1943,-5.1026,-3.0936,-1.6377,0.9424,2.6802,3.2992,2.9834,2.7921,2.9375,2.903,3.0515,3.1308,3.1852,3.3088,3.4837,3.5442,3.6271,3.6402,3.4636,3.2609,3.0814,2.9213,2.8158,2.7208,2.7748,2.8446,2.9061,2.9537,2.9138,2.8579,2.8874,2.9842,3.1452,3.2803,3.4129,3.5517,3.6234,3.6251,3.5755,3.5224,3.4727,3.4231,3.3922,3.3717,3.3638,3.3863,3.4649,3.5698,3.7332,3.8821,3.9763,4.144,4.2849,4.3003,4.2564,4.2016,4.1358,4.0552,4.0319,4.1418,4.2147,4.1881,4.1423,4.1669,4.146,2.0341,1.8373,1.9787,1.9947,1.9949,2.3141,2.594,2.8473,3.3582,3.6787,3.8164,4.0994,4.228,4.2744,4.45,4.6661,4.8302,4.9467,5.1363,5.5049,5.4678,5.6765,6.0004,6.3363,6.6865,7.0229,7.3579,7.7022,7.882,8.0741,8.1718,8.1151,8.2044,8.2767,8.325,8.2432,7.9287,7.185,6.9459,6.4012,4.8581,3.2792,1.2904,-2.5342,-4.3687,-5.7127,-7.3456,-7.969,-7.9433,-6.8385,-4.9468,-2.3707,1.0379,3.6526,5.2826,5.3856,4.6612,4.031,3.4903,3.2446,3.0526,3.019,2.9471,3.055,3.2205,3.2846,3.406,3.4248,3.252,3.1522,2.9834,2.8559,2.756,2.7913,2.8849,3.0091,3.1542,3.1492,3.0801,3.0381,3.0573,3.1556,3.2201,3.3572,3.4552,3.5971,3.6271,3.6457,3.6617,3.5987,3.5515,3.5106,3.4693,3.4485,3.4989,3.5392,3.6178,3.7248,3.8966,4.0465,4.2059,4.3709,4.5491,4.5373,4.5122,4.4308,4.3556,4.2853,4.2527,4.3007,4.3632,4.389,4.3676,4.3346,4.3174,2.2456,2.1398,2.1139,2.109,2.1483,2.354,2.582,2.8218,3.2243,3.585,3.8658,4.1168,4.353,4.528,4.7818,5.0309,5.2603,5.4198,5.5942,5.7821,5.8535,6.0013,6.2837,6.5447,6.8614,7.2109,7.5129,7.6963,7.8202,7.9226,7.9479,7.8812,7.9502,8.0173,8.1086,7.9817,7.3481,5.9539,5.3633,4.7429,3.3912,1.4384,-0.8043,-3.5598,-5.3307,-6.6483,-7.7155,-7.5282,-7.0465,-6.0348,-3.1034,0.2557,4.0671,5.6096,6.0802,5.7968,5.1597,4.486,3.9674,3.4689,3.2078,3.1502,3.125,3.1314,3.1432,3.1296,3.1081,3.0999,3.046,2.9789,2.9166,2.8039,2.7442,2.8466,2.9646,3.1771,3.3738,3.3242,3.2471,3.2467,3.2639,3.2975,3.346,3.4093,3.5046,3.5393,3.499,3.5287,3.6577,3.6703,3.6276,3.5867,3.5192,3.5243,3.6056,3.7274,3.8445,4.0062,4.1943,4.3264,4.4341,4.6144,4.7873,4.7865,4.7569,4.6751,4.5908,4.5393,4.5292,4.5113,4.4176,4.4037,4.4292,4.4231,4.4484,2.4069,2.3278,2.2639,2.2438,2.2885,2.4327,2.6149,2.8151,3.1141,3.4346,3.7916,4.1342,4.4695,4.7812,5.0926,5.4002,5.6758,5.8715,6.0328,6.1628,6.2673,6.3802,6.5786,6.7433,6.9388,7.2529,7.4835,7.6432,7.6947,7.707,7.6913,7.6421,7.6729,7.7611,7.849,7.585,6.4811,4.444,3.7816,2.5251,1.2278,-0.9704,-2.9262,-5.2245,-6.5688,-7.5689,-7.3808,-7.1262,-6.5121,-5.0153,-2.3612,1.0795,3.9882,5.3802,5.6404,5.4472,4.9961,4.4573,4.0549,3.6867,3.335,3.2629,3.1675,3.1317,3.0159,2.9934,2.9626,2.9328,2.7907,2.6928,2.7946,2.7432,2.7391,2.8221,2.9713,3.1686,3.3355,3.3991,3.3898,3.4206,3.4243,3.4456,3.4785,3.4454,3.5265,3.5173,3.4674,3.4753,3.58,3.693,3.6713,3.6957,3.6656,3.695,3.816,3.9699,4.123,4.3032,4.4868,4.6516,4.7786,4.9051,5.0031,5.0187,4.9974,4.9145,4.8483,4.7785,4.6935,4.6472,4.5099,4.3826,4.4332,4.4874,4.4924,2.5304,2.4863,2.4205,2.4031,2.4063,2.5208,2.6619,2.8182,3.0484,3.3586,3.7287,4.1761,4.6289,5.0088,5.3951,5.7595,6.0229,6.1527,6.3483,6.5301,6.6484,6.7074,6.7966,6.9467,7.0938,7.2211,7.4092,7.4369,7.4408,7.4559,7.4473,7.397,7.4548,7.5568,7.5344,6.968,5.6944,3.4352,1.7895,-0.3627,-2.1963,-3.8818,-5.0695,-6.3801,-7.3801,-7.3103,-7.0595,-6.5379,-5.9787,-4.1365,-1.7472,1.2134,3.4105,4.6784,5.0063,4.9182,4.7617,4.3443,4.0262,3.7072,3.4404,3.2741,3.1647,3.0803,2.9788,2.8868,2.8564,2.7649,2.6222,2.5477,2.653,2.6835,2.6965,2.8027,2.967,3.1586,3.3259,3.4609,3.5044,3.5339,3.572,3.5765,3.5853,3.5553,3.5002,3.4925,3.4725,3.4895,3.5124,3.5955,3.6408,3.7864,3.8831,3.9432,4.0652,4.2144,4.3933,4.5921,4.7742,4.9572,5.1229,5.1944,5.2466,5.262,5.2174,5.217,5.0996,5.0098,4.9149,4.812,4.6433,4.5019,4.4634,4.508,4.5281,2.6245,2.7009,2.5937,2.5584,2.5777,2.589,2.7186,2.9297,3.0909,3.4527,3.9151,4.2316,4.5604,4.8615,5.3351,5.7439,6.1408,6.3259,6.5459,6.733,6.85,6.9424,6.9879,7.0171,7.209,7.2818,7.31,7.327,7.2318,7.216,7.0883,6.8489,7.0275,7.0003,6.7561,5.6417,3.4759,1.3354,-0.9519,-3.2072,-4.6963,-5.7306,-5.6511,-6.4742,-7.0926,-6.7965,-6.3093,-5.3975,-4.4732,-2.9498,-0.9971,1.2697,2.723,3.7962,4.2565,4.5568,4.3933,4.2497,3.97,3.7099,3.48,3.2871,3.2176,3.2309,3.0954,2.8937,2.8519,2.8016,2.6605,2.5252,2.5699,2.5192,2.5434,2.7522,2.9409,3.1777,3.3692,3.4744,3.5412,3.5725,3.6074,3.6402,3.698,3.6208,3.5039,3.4627,3.3691,3.3841,3.421,3.5067,3.5886,3.8348,4.0473,4.2856,4.4408,4.5191,4.677,4.8763,5.0454,5.169,5.3085,5.4569,5.5034,5.4887,5.5746,5.6165,5.4813,5.2531,5.1333,5.007,4.8024,4.6388,4.5743,4.4968,4.5017]}]]